[[{"header":{"parameterUnit":"m.s-1","parameterCategory":1,"la1":31.0,"la2":29.5877,"lo1":-88.7671,"lo2":-86.6584,"dx":0.0162,"dy":0.0185,"nx":115,"ny":88,"refTime":"2022-11-21T18:00:00:Z","depth":0,"parameterNumber":2,"parameterNumberName":"U-component_of_WINDS"},"data":[0.0,0.0,0.0,0.0,0.0,0.0,0.0,0.0,0.0,0.0,0.0,0.0,0.0,0.0,0.0,0.0,0.0,0.0,0.0,0.0,0.0,0.0,0.0,0.0,0.0,0.0,0.0,0.0,0.0,0.0,0.0,0.0,0.0,0.0,0.0,0.0,0.0,0.0,0.0,0.0,0.0,0.0,0.0,0.0,0.0,0.0,0.0,0.0,0.0,0.0,0.0,0.0,0.0,0.0,0.0,0.0,0.0,0.0,0.0,0.0,0.0,0.0,0.0,0.0,0.0,0.0,0.0,0.0,0.0,0.0,0.0,0.0,0.0,0.0,0.0,0.0,0.0,0.0,0.0,0.0,0.0,0.0,0.0,0.0,0.0,0.0,0.0,0.0,0.0,0.0,0.0,0.0,0.0,0.0,0.0,0.0,0.0,0.0,0.0,0.0,0.0,0.0,0.0,0.0,0.0,0.0,0.0,0.0,0.0,0.0,0.0,0.0,0.0,0.0,0.0,0.0,0.0,0.0,0.0,0.0,0.0,0.0,0.0,0.0,0.0,0.0,0.0,0.0,0.0,0.0,0.0,0.0,0.0,0.0,0.0,0.0,0.0,0.0,0.0,0.0,0.0,0.0,0.0,0.0,0.0,0.0,0.0,0.0,0.0,0.0,0.0,0.0,0.0,0.0,0.0,0.0,0.0,0.0,0.0,0.0,0.0,0.0,0.0,0.0,0.0,0.0,0.0,0.0,0.0,0.0,0.0,0.0,0.0,0.0,0.0,0.0,0.0,0.0,0.0,0.0,0.0,0.0,0.0,0.0,0.0,0.0,0.0,0.0,0.0,0.0,0.0,0.0,0.0,0.0,0.0,0.0,0.0,0.0,0.0,0.0,0.0,0.0,0.0,0.0,0.0,0.0,0.0,0.0,0.0,0.0,0.0,0.0,0.0,0.0,0.0,0.0,0.0,0.0,0.0,0.0,0.0,0.0,0.0,0.0,0.0,0.0,0.0,0.0,0.0,0.0,0.0,0.0,0.0,0.0,0.0,0.0,0.0,0.0,0.0,0.0,0.0,0.0,0.0,0.0,0.0,0.0,0.0,0.0,0.0,0.0,0.0,0.0,0.0,0.0,0.0,0.0,0.0,0.0,0.0,0.0,0.0,0.0,0.0,0.0,0.0,0.0,0.0,0.0,0.0,0.0,0.0,0.0,0.0,0.0,0.0,0.0,0.0,0.0,0.0,0.0,0.0,0.0,0.0,0.0,0.0,0.0,0.0,0.0,0.0,0.0,0.0,0.0,0.0,0.0,0.0,0.0,0.0,0.0,0.0,0.0,0.0,0.0,0.0,0.0,0.0,0.0,0.0,0.0,0.0,0.0,0.0,0.0,0.0,0.0,0.0,0.0,0.0,0.0,0.0,0.0,0.0,0.0,0.0,0.0,0.0,0.0,0.0,0.0,0.0,0.0,0.0,0.0,0.0,0.0,0.0,0.0,0.0,0.0,0.0,0.0,0.0,0.0,0.0,0.0,0.0,0.0,0.0,0.0,0.0,0.0,0.0,0.0,0.0,0.0,0.0,0.0,0.0,0.0,0.0,0.0,0.0,0.0,0.0,0.0,0.0,0.0,0.0,0.0,0.0,0.0,0.0,0.0,0.0,0.0,0.0,0.0,0.0,0.0,0.0,0.0,0.0,0.0,0.0,0.0,0.0,0.0,0.0,0.0,0.0,0.0,0.0,0.0,0.0,0.0,0.0,0.0,0.0,0.0,0.0,0.0,0.0,0.0,0.0,0.0,0.0,0.0,0.0,0.0,0.0,0.0,0.0,0.0,0.0,0.0,0.0,0.0,0.0,0.0,0.0,0.0,0.0,0.0,0.0,0.0,0.0,0.0,0.0,0.0,0.0,0.0,0.0,0.0,0.0,0.0,0.0,0.0,0.0,0.0,0.0,0.0,0.0,0.0,0.0,0.0,0.0,0.0,0.0,0.0,0.0,0.0,0.0,0.0,0.0,0.0,0.0,0.0,0.0,0.0,0.0,0.0,0.0,0.0,0.0,0.0,0.0,0.0,0.0,0.0,0.0,0.0,0.0,0.0,0.0,0.0,0.0,0.0,0.0,0.0,0.0,0.0,0.0,0.0,0.0,0.0,0.0,0.0,0.0,0.0,0.0,0.0,0.0,0.0,0.0,0.0,0.0,0.0,0.0,0.0,0.0,0.0,0.0,0.0,0.0,0.0,0.0,0.0,0.0,0.0,0.0,0.0,0.0,0.0,0.0,0.0,0.0,0.0,0.0,0.0,0.0,0.0,0.0,0.0,0.0,0.0,0.0,0.0,0.0,0.0,0.0,0.0,0.0,0.0,0.0,0.0,0.0,0.0,0.0,0.0,0.0,0.0,0.0,0.0,0.0,0.0,0.0,0.0,0.0,0.0,0.0,0.0,0.0,0.0,0.0,0.0,0.0,0.0,0.0,0.0,0.0,0.0,0.0,0.0,0.0,0.0,0.0,0.0,0.0,0.0,0.0,0.0,0.0,0.0,0.0,0.0,0.0,0.0,0.0,0.0,0.0,0.0,0.0,0.0,0.0,0.0,0.0,0.0,0.0,0.0,0.0,0.0,0.0,0.0,0.0,0.0,0.0,0.0,0.0,0.0,0.0,0.0,0.0,0.0,0.0,0.0,0.0,0.0,0.0,0.0,0.0,0.0,0.0,0.0,0.0,0.0,0.0,0.0,0.0,0.0,0.0,0.0,0.0,0.0,0.0,0.0,0.0,0.0,0.0,0.0,0.0,0.0,0.0,0.0,0.0,0.0,0.0,0.0,0.0,0.0,0.0,0.0,0.0,0.0,0.0,0.0,0.0,0.0,0.0,0.0,0.0,0.0,0.0,0.0,0.0,0.0,0.0,0.0,0.0,0.0,0.0,0.0,0.0,0.0,0.0,0.0,0.0,0.0,0.0,0.0,0.0,0.0,0.0,0.0,0.0,0.0,0.0,0.0,0.0,0.0,0.0,0.0,0.0,0.0,0.0,0.0,0.0,0.0,0.0,0.0,0.0,0.0,0.0,0.0,0.0,0.0,0.0,0.0,0.0,0.0,0.0,0.0,0.0,0.0,0.0,0.0,0.0,0.0,0.0,0.0,0.0,0.0,0.0,0.0,0.0,0.0,0.0,0.0,0.0,0.0,0.0,0.0,0.0,0.0,0.0,0.0,0.0,0.0,0.0,0.0,0.0,0.0,0.0,0.0,0.0,0.0,0.0,0.0,0.0,0.0,0.0,0.0,0.0,0.0,0.0,0.0,0.0,0.0,0.0,0.0,0.0,0.0,0.0,0.0,0.0,0.0,0.0,0.0,0.0,0.0,0.0,0.0,0.0,0.0,0.0,0.0,0.0,0.0,0.0,0.0,0.0,0.0,0.0,0.0,0.0,0.0,0.0,0.0,0.0,0.0,0.0,0.0,0.0,0.0,0.0,0.0,0.0,0.0,0.0,0.0,0.0,0.0,0.0,0.0,0.0,0.0,0.0,0.0,0.0,0.0,0.0,0.0,0.0,0.0,0.0,0.0,0.0,0.0,0.0,0.0,0.0,0.0,0.0,0.0,0.0,0.0,0.0,0.0,0.0,0.0,0.0,0.0,0.0,0.0,0.0,0.0,0.0,0.0,0.0,0.0,0.0,0.0,0.0,0.0,0.0,0.0,0.0,0.0,0.0,0.0,0.0,0.0,0.0,0.0,0.0,0.0,0.0,0.0,0.0,0.0,0.0,0.0,0.0,0.0,0.0,0.0,0.0,0.0,0.0,0.0,0.0,0.0,0.0,0.0,0.0,0.0,0.0,0.0,0.0,0.0,0.0,0.0,0.0,0.0,0.0,0.0,0.0,0.0,0.0,0.0,0.0,0.0,0.0,0.0,0.0,0.0,0.0,0.0,0.0,0.0,0.0,0.0,0.0,0.0,0.0,0.0,0.0,0.0,0.0,0.0,0.0,0.0,0.0,0.0,0.0,0.0,0.0,0.0,0.0,0.0,0.0,0.0,0.0,0.0,0.0,0.0,0.0,0.0,0.0,0.0,0.0,0.0,0.0,0.0,0.0,0.0,0.0,0.0,0.0,0.0,0.0,0.0,0.0,0.0,0.0,0.0,0.0,0.0,0.0,0.0,0.0,0.0,0.0,0.0,0.0,0.0,0.0,0.0,0.0,0.0,0.0,0.0,0.0,0.0,0.0,0.0,0.0,0.0,0.0,0.0,0.0,0.0,0.0,0.0,-1.1591,0.0,0.0,0.0,-1.1591,0.0,0.0,0.0,0.0,0.0,0.0,0.0,0.0,0.0,0.0,0.0,0.0,0.0,0.0,0.0,0.0,0.0,0.0,0.0,0.0,0.0,0.0,0.0,0.0,0.0,0.0,0.0,0.0,0.0,0.0,0.0,0.0,0.0,0.0,0.0,0.0,0.0,0.0,0.0,0.0,0.0,0.0,0.0,0.0,0.0,0.0,0.0,0.0,0.0,0.0,0.0,0.0,0.0,0.0,0.0,0.0,0.0,0.0,0.0,0.0,0.0,0.0,0.0,0.0,0.0,0.0,0.0,0.0,0.0,0.0,0.0,0.0,0.0,0.0,0.0,0.0,0.0,0.0,0.0,0.0,0.0,0.0,0.0,0.0,0.0,0.0,0.0,0.0,0.0,0.0,0.0,0.0,0.0,0.0,0.0,0.0,0.0,0.0,0.0,0.0,0.0,0.0,0.0,0.0,0.0,0.0,0.0,0.0,0.0,0.0,-1.1591,-1.1591,-1.1591,-1.1591,-1.1591,0.0,0.0,0.0,0.0,0.0,0.0,0.0,0.0,0.0,0.0,0.0,0.0,0.0,0.0,0.0,0.0,0.0,0.0,0.0,0.0,0.0,0.0,0.0,0.0,0.0,0.0,0.0,0.0,0.0,0.0,0.0,0.0,0.0,0.0,0.0,0.0,0.0,0.0,0.0,0.0,0.0,0.0,0.0,0.0,0.0,0.0,0.0,0.0,0.0,0.0,0.0,0.0,0.0,0.0,0.0,0.0,0.0,0.0,0.0,0.0,0.0,0.0,0.0,0.0,0.0,0.0,0.0,0.0,0.0,0.0,0.0,0.0,0.0,0.0,0.0,0.0,0.0,0.0,0.0,0.0,0.0,0.0,0.0,0.0,0.0,0.0,0.0,0.0,0.0,0.0,0.0,0.0,0.0,0.0,0.0,0.0,0.0,0.0,0.0,0.0,0.0,0.0,0.0,0.0,0.0,0.0,0.0,0.0,0.0,0.0,0.0,0.0,-1.1621,-1.1591,-1.1591,0.0,0.0,0.0,0.0,0.0,0.0,0.0,0.0,0.0,0.0,0.0,0.0,0.0,0.0,0.0,0.0,0.0,0.0,0.0,0.0,0.0,0.0,0.0,0.0,0.0,0.0,0.0,0.0,0.0,0.0,0.0,0.0,0.0,0.0,0.0,0.0,0.0,0.0,0.0,0.0,0.0,0.0,0.0,0.0,0.0,0.0,0.0,0.0,0.0,0.0,0.0,0.0,0.0,0.0,0.0,0.0,0.0,0.0,0.0,0.0,0.0,0.0,0.0,0.0,0.0,0.0,0.0,0.0,0.0,0.0,0.0,0.0,0.0,0.0,0.0,0.0,0.0,0.0,0.0,0.0,0.0,0.0,0.0,0.0,0.0,0.0,0.0,0.0,0.0,0.0,0.0,0.0,0.0,0.0,0.0,0.0,0.0,0.0,0.0,0.0,0.0,0.0,0.0,0.0,0.0,0.0,0.0,0.0,0.0,0.0,-1.1738,-1.1952,-1.1706,0.0,-1.1621,0.0,0.0,0.0,0.0,0.0,0.0,0.0,0.0,0.0,0.0,0.0,0.0,0.0,0.0,0.0,0.0,0.0,0.0,0.0,0.0,0.0,0.0,0.0,0.0,0.0,0.0,0.0,0.0,0.0,0.0,0.0,0.0,0.0,0.0,0.0,0.0,0.0,0.0,0.0,0.0,0.0,0.0,0.0,0.0,0.0,0.0,0.0,0.0,0.0,0.0,0.0,0.0,0.0,0.0,0.0,0.0,0.0,0.0,0.0,0.0,0.0,0.0,0.0,0.0,0.0,0.0,0.0,0.0,0.0,0.0,0.0,0.0,0.0,0.0,0.0,0.0,0.0,0.0,0.0,0.0,0.0,0.0,0.0,0.0,0.0,0.0,0.0,0.0,0.0,0.0,0.0,0.0,0.0,0.0,0.0,0.0,0.0,0.0,0.0,0.0,0.0,0.0,0.0,0.0,0.0,0.0,0.0,0.0,0.0,0.0,-1.2014,-1.1765,-1.165,-1.1782,0.0,0.0,0.0,0.0,0.0,0.0,0.0,0.0,0.0,0.0,0.0,0.0,0.0,0.0,0.0,0.0,0.0,0.0,0.0,0.0,0.0,0.0,0.0,0.0,0.0,0.0,0.0,0.0,0.0,0.0,0.0,0.0,0.0,0.0,0.0,0.0,0.0,0.0,0.0,0.0,0.0,0.0,0.0,0.0,0.0,0.0,0.0,0.0,0.0,0.0,0.0,0.0,0.0,0.0,0.0,0.0,0.0,0.0,0.0,0.0,0.0,0.0,0.0,0.0,0.0,0.0,0.0,0.0,0.0,0.0,0.0,0.0,0.0,0.0,0.0,0.0,0.0,0.0,0.0,0.0,0.0,0.0,0.0,0.0,0.0,0.0,0.0,0.0,0.0,0.0,0.0,0.0,0.0,0.0,0.0,0.0,0.0,0.0,0.0,0.0,0.0,0.0,0.0,0.0,0.0,0.0,0.0,0.0,0.0,0.0,-1.2248,-1.216,-1.1736,-1.1987,-1.2102,-1.2131,0.0,0.0,0.0,0.0,0.0,0.0,0.0,0.0,0.0,0.0,0.0,0.0,0.0,0.0,0.0,0.0,0.0,0.0,0.0,0.0,0.0,0.0,0.0,0.0,0.0,0.0,0.0,0.0,0.0,0.0,0.0,0.0,0.0,0.0,0.0,0.0,0.0,0.0,0.0,0.0,0.0,0.0,0.0,0.0,0.0,0.0,0.0,0.0,0.0,0.0,0.0,0.0,0.0,0.0,0.0,0.0,0.0,0.0,0.0,0.0,0.0,0.0,0.0,0.0,0.0,0.0,0.0,0.0,0.0,0.0,0.0,0.0,0.0,0.0,0.0,0.0,0.0,0.0,0.0,0.0,0.0,0.0,0.0,0.0,0.0,0.0,0.0,0.0,0.0,0.0,0.0,0.0,0.0,0.0,0.0,0.0,0.0,0.0,0.0,0.0,0.0,0.0,0.0,0.0,0.0,0.0,0.0,0.0,-1.2862,-1.2332,-1.2025,-1.204,-1.2906,-1.2701,0.0,0.0,0.0,0.0,0.0,0.0,0.0,0.0,0.0,0.0,0.0,0.0,0.0,0.0,0.0,0.0,0.0,0.0,0.0,0.0,0.0,0.0,0.0,0.0,0.0,0.0,0.0,0.0,0.0,0.0,0.0,0.0,0.0,0.0,0.0,0.0,0.0,0.0,0.0,0.0,0.0,0.0,0.0,0.0,0.0,0.0,0.0,0.0,0.0,0.0,0.0,0.0,0.0,0.0,0.0,0.0,0.0,0.0,0.0,0.0,0.0,0.0,0.0,0.0,0.0,0.0,0.0,0.0,0.0,0.0,0.0,0.0,0.0,0.0,0.0,0.0,0.0,0.0,0.0,0.0,0.0,0.0,0.0,0.0,0.0,0.0,0.0,0.0,0.0,0.0,0.0,0.0,0.0,0.0,0.0,0.0,0.0,0.0,0.0,0.0,0.0,0.0,0.0,0.0,0.0,0.0,0.0,0.0,0.0,-1.2317,-1.2332,-1.2745,-1.3536,-1.2936,-1.2482,0.0,0.0,0.0,0.0,0.0,0.0,0.0,0.0,0.0,0.0,0.0,0.0,0.0,0.0,0.0,0.0,0.0,0.0,0.0,0.0,0.0,0.0,0.0,0.0,0.0,0.0,0.0,0.0,0.0,0.0,0.0,0.0,0.0,0.0,0.0,0.0,0.0,0.0,0.0,0.0,0.0,0.0,0.0,0.0,0.0,0.0,0.0,0.0,0.0,0.0,0.0,0.0,0.0,0.0,0.0,0.0,0.0,0.0,0.0,0.0,0.0,0.0,0.0,0.0,0.0,0.0,0.0,0.0,0.0,0.0,0.0,0.0,0.0,0.0,0.0,0.0,0.0,0.0,0.0,0.0,0.0,0.0,0.0,0.0,0.0,0.0,0.0,0.0,0.0,0.0,0.0,0.0,0.0,0.0,0.0,0.0,0.0,0.0,0.0,0.0,0.0,0.0,0.0,0.0,0.0,0.0,0.0,0.0,0.0,-1.2463,-1.2936,-1.3433,-1.3916,-1.3038,-1.2434,0.0,0.0,0.0,0.0,0.0,0.0,0.0,0.0,0.0,0.0,0.0,0.0,0.0,0.0,0.0,0.0,0.0,0.0,0.0,0.0,0.0,0.0,0.0,0.0,0.0,0.0,0.0,0.0,0.0,0.0,0.0,0.0,0.0,0.0,0.0,0.0,0.0,0.0,0.0,0.0,0.0,0.0,0.0,0.0,0.0,0.0,0.0,0.0,0.0,0.0,0.0,0.0,0.0,0.0,0.0,0.0,0.0,0.0,0.0,0.0,0.0,0.0,0.0,0.0,0.0,0.0,0.0,0.0,0.0,0.0,0.0,0.0,0.0,0.0,0.0,0.0,0.0,0.0,0.0,0.0,0.0,0.0,0.0,0.0,0.0,0.0,0.0,0.0,0.0,0.0,0.0,0.0,0.0,0.0,0.0,0.0,0.0,0.0,0.0,0.0,0.0,0.0,0.0,0.0,0.0,0.0,0.0,0.0,-1.2541,-1.3462,-1.4144,-1.3989,-1.3082,-1.3316,-1.2731,0.0,0.0,0.0,0.0,0.0,0.0,0.0,0.0,0.0,0.0,0.0,0.0,0.0,0.0,0.0,0.0,0.0,0.0,0.0,0.0,0.0,0.0,0.0,0.0,0.0,0.0,0.0,0.0,0.0,0.0,0.0,0.0,0.0,0.0,0.0,0.0,0.0,0.0,0.0,0.0,0.0,0.0,0.0,0.0,0.0,0.0,0.0,0.0,0.0,0.0,0.0,0.0,0.0,0.0,0.0,0.0,0.0,0.0,0.0,0.0,0.0,0.0,0.0,0.0,0.0,0.0,0.0,0.0,0.0,0.0,0.0,0.0,0.0,0.0,0.0,0.0,0.0,0.0,0.0,0.0,0.0,0.0,0.0,0.0,0.0,0.0,0.0,0.0,0.0,0.0,0.0,0.0,0.0,0.0,0.0,0.0,0.0,0.0,0.0,0.0,0.0,0.0,0.0,0.0,0.0,0.0,0.0,0.0,0.0,-1.3521,-1.4174,-1.4364,-1.4056,-1.3462,-1.2921,0.0,0.0,0.0,0.0,0.0,0.0,0.0,0.0,0.0,0.0,0.0,0.0,0.0,0.0,0.0,0.0,0.0,0.0,0.0,0.0,0.0,0.0,0.0,0.0,0.0,0.0,0.0,0.0,0.0,0.0,0.0,0.0,0.0,0.0,0.0,0.0,0.0,0.0,0.0,0.0,0.0,0.0,0.0,0.0,0.0,0.0,0.0,0.0,0.0,0.0,0.0,0.0,0.0,0.0,0.0,0.0,0.0,0.0,0.0,0.0,0.0,0.0,0.0,0.0,0.0,0.0,0.0,0.0,0.0,0.0,0.0,0.0,0.0,0.0,0.0,0.0,0.0,0.0,0.0,0.0,0.0,0.0,0.0,0.0,0.0,0.0,0.0,0.0,0.0,0.0,0.0,0.0,0.0,0.0,0.0,0.0,0.0,0.0,0.0,0.0,0.0,0.0,0.0,0.0,0.0,0.0,0.0,0.0,0.0,-1.4443,-1.4951,-1.5039,-1.4648,-1.3814,-1.3199,-1.2819,0.0,0.0,0.0,0.0,0.0,0.0,0.0,0.0,0.0,0.0,0.0,0.0,0.0,0.0,0.0,0.0,0.0,0.0,0.0,0.0,0.0,0.0,0.0,0.0,0.0,0.0,0.0,0.0,0.0,0.0,0.0,0.0,0.0,0.0,0.0,0.0,0.0,0.0,0.0,0.0,0.0,0.0,0.0,0.0,0.0,0.0,0.0,0.0,0.0,0.0,0.0,0.0,0.0,0.0,0.0,0.0,0.0,0.0,0.0,0.0,0.0,0.0,0.0,0.0,0.0,0.0,0.0,0.0,0.0,0.0,0.0,0.0,0.0,0.0,0.0,0.0,0.0,0.0,0.0,0.0,0.0,0.0,0.0,0.0,0.0,0.0,0.0,0.0,0.0,0.0,0.0,0.0,0.0,0.0,0.0,0.0,0.0,0.0,0.0,0.0,0.0,0.0,0.0,0.0,0.0,0.0,0.0,0.0,-1.5935,-1.6257,-1.5965,-1.5017,-1.434,-1.3565,0.0,0.0,0.0,0.0,0.0,0.0,0.0,0.0,0.0,0.0,0.0,0.0,0.0,0.0,0.0,0.0,0.0,0.0,0.0,0.0,0.0,0.0,0.0,0.0,0.0,0.0,0.0,0.0,0.0,0.0,0.0,0.0,0.0,0.0,0.0,0.0,0.0,0.0,0.0,0.0,0.0,0.0,0.0,0.0,0.0,0.0,0.0,0.0,0.0,0.0,0.0,0.0,0.0,0.0,0.0,0.0,0.0,0.0,0.0,0.0,0.0,0.0,0.0,0.0,0.0,0.0,0.0,0.0,0.0,0.0,0.0,0.0,0.0,0.0,0.0,0.0,0.0,0.0,0.0,0.0,0.0,0.0,0.0,0.0,0.0,0.0,0.0,0.0,0.0,0.0,0.0,0.0,0.0,0.0,0.0,0.0,0.0,0.0,0.0,0.0,0.0,0.0,0.0,0.0,0.0,0.0,0.0,0.0,0.0,-1.6287,-1.6784,-1.6726,-1.5994,-1.4692,-1.3975,0.0,0.0,0.0,0.0,0.0,0.0,0.0,0.0,0.0,0.0,0.0,0.0,0.0,0.0,0.0,0.0,0.0,0.0,0.0,0.0,0.0,0.0,0.0,0.0,0.0,0.0,0.0,0.0,0.0,0.0,0.0,0.0,0.0,0.0,0.0,0.0,0.0,0.0,0.0,0.0,0.0,0.0,0.0,0.0,0.0,0.0,0.0,0.0,0.0,0.0,0.0,0.0,0.0,0.0,0.0,0.0,0.0,0.0,0.0,0.0,0.0,0.0,0.0,0.0,0.0,0.0,0.0,0.0,0.0,0.0,0.0,0.0,0.0,0.0,0.0,0.0,0.0,0.0,0.0,0.0,0.0,0.0,0.0,0.0,0.0,0.0,0.0,0.0,0.0,0.0,0.0,0.0,0.0,0.0,0.0,0.0,0.0,0.0,0.0,0.0,0.0,0.0,0.0,0.0,0.0,0.0,0.0,0.0,-1.6272,-1.6769,-1.7135,-1.715,-1.6784,-1.5482,-1.4692,0.0,0.0,0.0,0.0,0.0,0.0,0.0,0.0,0.0,0.0,0.0,0.0,0.0,0.0,0.0,0.0,0.0,0.0,0.0,0.0,0.0,0.0,0.0,0.0,0.0,0.0,0.0,0.0,0.0,0.0,0.0,0.0,0.0,0.0,0.0,0.0,0.0,0.0,0.0,0.0,0.0,0.0,0.0,0.0,0.0,0.0,0.0,0.0,0.0,0.0,0.0,0.0,0.0,0.0,0.0,0.0,0.0,0.0,0.0,0.0,0.0,0.0,0.0,0.0,0.0,0.0,0.0,0.0,0.0,0.0,0.0,0.0,0.0,0.0,0.0,0.0,0.0,0.0,0.0,0.0,0.0,0.0,0.0,0.0,0.0,0.0,0.0,0.0,0.0,0.0,0.0,0.0,0.0,0.0,0.0,0.0,0.0,0.0,0.0,0.0,0.0,0.0,0.0,0.0,0.0,0.0,0.0,0.0,-1.7047,-1.7413,-1.7381,-1.7366,-1.7308,-1.6433,-1.5482,0.0,0.0,0.0,0.0,0.0,0.0,0.0,0.0,0.0,0.0,0.0,0.0,0.0,0.0,0.0,0.0,0.0,0.0,0.0,0.0,0.0,0.0,0.0,0.0,0.0,0.0,0.0,0.0,0.0,0.0,0.0,0.0,0.0,0.0,0.0,0.0,0.0,0.0,0.0,0.0,0.0,0.0,0.0,0.0,0.0,0.0,0.0,0.0,0.0,0.0,0.0,0.0,0.0,0.0,0.0,0.0,0.0,0.0,0.0,0.0,0.0,0.0,0.0,0.0,0.0,0.0,0.0,0.0,0.0,0.0,0.0,0.0,0.0,0.0,0.0,0.0,0.0,0.0,0.0,0.0,0.0,0.0,0.0,0.0,0.0,0.0,0.0,0.0,0.0,0.0,0.0,0.0,0.0,0.0,0.0,0.0,0.0,0.0,0.0,0.0,0.0,0.0,0.0,0.0,0.0,0.0,0.0,0.0,-1.7314,-1.8072,-1.8101,-1.7969,-1.7706,-1.6505,-1.557,0.0,0.0,0.0,0.0,0.0,0.0,0.0,0.0,0.0,0.0,0.0,0.0,0.0,0.0,0.0,0.0,0.0,0.0,0.0,0.0,0.0,0.0,0.0,0.0,0.0,0.0,0.0,0.0,0.0,0.0,0.0,0.0,0.0,0.0,0.0,0.0,0.0,0.0,0.0,0.0,0.0,0.0,0.0,0.0,0.0,0.0,0.0,0.0,-0.8143,0.0,0.0,0.0,0.0,0.0,0.0,0.0,0.0,0.0,0.0,0.0,0.0,0.0,0.0,0.0,0.0,0.0,0.0,0.0,0.0,0.0,0.0,0.0,0.0,0.0,0.0,0.0,0.0,0.0,0.0,0.0,0.0,0.0,0.0,0.0,0.0,0.0,0.0,0.0,0.0,0.0,0.0,0.0,0.0,0.0,0.0,0.0,0.0,0.0,0.0,0.0,0.0,0.0,0.0,0.0,0.0,0.0,0.0,0.0,-1.7633,-1.8277,-1.8306,-1.8218,-1.8028,-1.7238,-1.6287,0.0,0.0,0.0,0.0,0.0,0.0,0.0,0.0,0.0,0.0,0.0,0.0,0.0,0.0,0.0,0.0,0.0,0.0,0.0,0.0,0.0,0.0,0.0,0.0,0.0,0.0,0.0,0.0,0.0,0.0,0.0,0.0,0.0,0.0,0.0,0.0,0.0,0.0,0.0,0.0,0.0,0.0,0.0,0.0,0.0,0.0,0.0,0.0,0.0,0.0,0.0,0.0,0.0,0.0,0.0,0.0,0.0,0.0,0.0,0.0,0.0,0.0,0.0,0.0,0.0,0.0,0.0,0.0,0.0,0.0,0.0,0.0,0.0,0.0,0.0,0.0,0.0,0.0,0.0,0.0,0.0,0.0,0.0,0.0,0.0,0.0,0.0,0.0,0.0,0.0,0.0,0.0,0.0,0.0,0.0,0.0,0.0,0.0,0.0,0.0,0.0,0.0,0.0,0.0,0.0,0.0,0.0,-1.715,-1.7925,-1.8423,-1.835,-1.8321,-1.8364,-1.8057,-1.7135,-1.5528,0.0,0.0,0.0,0.0,0.0,0.0,0.0,0.0,0.0,0.0,0.0,0.0,0.0,0.0,0.0,0.0,0.0,0.0,0.0,0.0,0.0,0.0,0.0,0.0,0.0,0.0,0.0,0.0,0.0,0.0,0.0,0.0,0.0,0.0,0.0,0.0,0.0,0.0,-1.1107,-1.1609,0.0,0.0,0.0,0.0,0.0,0.0,0.0,0.0,-0.923,0.0,0.0,0.0,0.0,0.0,0.0,0.0,0.0,0.0,0.0,0.0,0.0,0.0,0.0,0.0,0.0,0.0,0.0,0.0,0.0,0.0,0.0,0.0,0.0,0.0,0.0,0.0,0.0,0.0,0.0,0.0,0.0,0.0,0.0,0.0,0.0,0.0,0.0,0.0,0.0,0.0,0.0,0.0,0.0,0.0,0.0,0.0,0.0,0.0,0.0,0.0,0.0,0.0,0.0,0.0,0.0,-1.7062,-1.7047,-1.7739,-1.9067,-1.8584,-1.8438,-1.8686,-1.8394,-1.7472,-1.5921,0.0,0.0,0.0,0.0,0.0,0.0,0.0,0.0,0.0,0.0,0.0,0.0,0.0,0.0,0.0,0.0,0.0,0.0,0.0,0.0,0.0,0.0,0.0,0.0,0.0,0.0,0.0,0.0,0.0,0.0,0.0,0.0,0.0,0.0,0.0,0.0,0.0,0.0,0.0,-1.2977,-1.3127,0.0,0.0,0.0,0.0,0.0,0.0,0.0,0.0,-1.0599,0.0,0.0,0.0,0.0,0.0,0.0,0.0,0.0,0.0,0.0,0.0,0.0,0.0,0.0,0.0,0.0,0.0,0.0,0.0,0.0,0.0,0.0,0.0,0.0,0.0,0.0,0.0,0.0,0.0,0.0,0.0,0.0,0.0,0.0,0.0,0.0,0.0,0.0,0.0,0.0,0.0,0.0,0.0,0.0,0.0,0.0,0.0,0.0,0.0,0.0,0.0,0.0,0.0,0.0,0.0,-1.6799,-1.7724,-1.8546,-1.9242,-1.8964,-1.8877,-1.9023,-1.873,-1.7794,0.0,0.0,0.0,0.0,0.0,0.0,0.0,0.0,0.0,0.0,0.0,0.0,0.0,0.0,0.0,0.0,0.0,0.0,0.0,0.0,0.0,0.0,0.0,0.0,0.0,0.0,0.0,0.0,0.0,0.0,0.0,0.0,0.0,0.0,0.0,0.0,0.0,0.0,0.0,0.0,-1.371,-1.4031,-1.4465,0.0,0.0,0.0,0.0,0.0,0.0,-1.1699,-1.1317,0.0,0.0,0.0,0.0,0.0,0.0,0.0,0.0,0.0,0.0,0.0,0.0,0.0,0.0,0.0,0.0,0.0,0.0,0.0,0.0,0.0,0.0,0.0,0.0,0.0,0.0,0.0,0.0,0.0,0.0,0.0,0.0,0.0,0.0,0.0,0.0,0.0,0.0,0.0,0.0,0.0,0.0,0.0,0.0,0.0,0.0,0.0,0.0,0.0,0.0,0.0,0.0,0.0,0.0,0.0,-1.6448,-1.7979,-1.8957,-1.9257,-1.914,-1.914,-1.9257,-1.8964,-1.8028,0.0,0.0,0.0,0.0,0.0,0.0,0.0,0.0,0.0,0.0,0.0,0.0,0.0,0.0,0.0,0.0,0.0,0.0,0.0,0.0,0.0,0.0,0.0,0.0,0.0,0.0,0.0,0.0,0.0,0.0,0.0,0.0,0.0,0.0,0.0,0.0,0.0,0.0,0.0,0.0,0.0,-1.49,-1.516,-1.5233,0.0,0.0,0.0,0.0,-1.3323,-1.288,0.0,0.0,0.0,0.0,0.0,0.0,0.0,0.0,0.0,0.0,0.0,0.0,0.0,0.0,0.0,0.0,0.0,0.0,0.0,0.0,0.0,0.0,0.0,0.0,0.0,0.0,0.0,0.0,0.0,0.0,0.0,0.0,0.0,0.0,0.0,0.0,0.0,0.0,0.0,0.0,0.0,0.0,0.0,0.0,0.0,0.0,0.0,0.0,0.0,0.0,0.0,0.0,0.0,0.0,0.0,0.0,-1.636,-1.6933,-1.7871,-1.9184,-1.8716,-1.8686,-1.9257,-1.8964,-1.8028,0.0,0.0,0.0,0.0,0.0,0.0,0.0,0.0,0.0,0.0,0.0,0.0,0.0,0.0,0.0,0.0,0.0,0.0,0.0,0.0,0.0,0.0,0.0,0.0,0.0,0.0,0.0,0.0,0.0,0.0,0.0,0.0,0.0,0.0,0.0,0.0,0.0,0.0,0.0,0.0,0.0,-1.5689,-1.5548,-1.5748,-1.5917,0.0,0.0,-1.5655,-1.5454,-1.5315,0.0,0.0,0.0,0.0,0.0,0.0,0.0,0.0,0.0,0.0,0.0,0.0,0.0,0.0,0.0,0.0,0.0,0.0,0.0,0.0,0.0,0.0,0.0,0.0,0.0,0.0,0.0,0.0,0.0,0.0,0.0,0.0,0.0,0.0,0.0,0.0,0.0,0.0,0.0,0.0,0.0,0.0,0.0,0.0,0.0,0.0,0.0,0.0,0.0,0.0,0.0,0.0,0.0,0.0,0.0,-1.5777,-1.6126,-1.7363,-1.8338,-1.8964,-1.8716,-1.8803,-1.9272,-1.914,-1.8218,0.0,0.0,0.0,0.0,0.0,0.0,0.0,0.0,0.0,0.0,0.0,0.0,0.0,0.0,0.0,0.0,0.0,0.0,0.0,0.0,0.0,0.0,0.0,0.0,0.0,0.0,0.0,0.0,0.0,0.0,0.0,0.0,0.0,0.0,0.0,0.0,0.0,0.0,0.0,0.0,0.0,0.0,-1.6562,-1.6646,0.0,0.0,0.0,-1.6515,-1.6518,0.0,0.0,0.0,0.0,0.0,0.0,0.0,0.0,0.0,0.0,0.0,0.0,0.0,0.0,0.0,0.0,0.0,0.0,0.0,0.0,0.0,0.0,0.0,0.0,0.0,0.0,0.0,0.0,0.0,0.0,0.0,0.0,0.0,0.0,0.0,0.0,0.0,0.0,0.0,0.0,0.0,0.0,0.0,0.0,0.0,0.0,0.0,0.0,0.0,0.0,0.0,0.0,0.0,0.0,0.0,0.0,0.0,-1.6096,-1.7804,-1.8738,-1.8789,-1.8789,-1.9001,-1.9257,-1.9272,0.0,0.0,0.0,0.0,0.0,0.0,0.0,0.0,0.0,0.0,0.0,0.0,0.0,0.0,0.0,0.0,0.0,0.0,0.0,0.0,0.0,0.0,0.0,0.0,0.0,0.0,0.0,-1.0199,0.0,0.0,0.0,0.0,0.0,0.0,0.0,0.0,0.0,0.0,0.0,0.0,0.0,0.0,-1.7086,-1.7369,-1.7494,-1.7712,0.0,0.0,-1.7337,-1.7337,-1.7241,-1.6829,0.0,0.0,0.0,0.0,0.0,0.0,0.0,0.0,0.0,0.0,0.0,0.0,0.0,0.0,0.0,0.0,0.0,0.0,0.0,0.0,0.0,0.0,0.0,0.0,0.0,0.0,0.0,0.0,0.0,0.0,0.0,0.0,0.0,0.0,0.0,0.0,0.0,0.0,0.0,0.0,0.0,0.0,0.0,0.0,0.0,0.0,0.0,0.0,0.0,0.0,0.0,0.0,0.0,0.0,-1.6139,-1.6389,-1.7712,-1.8535,-1.8789,-1.8789,-1.895,-1.9257,-1.9272,-1.8561,0.0,0.0,0.0,0.0,0.0,0.0,0.0,0.0,0.0,0.0,0.0,0.0,0.0,0.0,0.0,0.0,0.0,0.0,0.0,0.0,0.0,0.0,0.0,0.0,0.0,0.0,0.0,0.0,0.0,0.0,0.0,0.0,0.0,0.0,0.0,0.0,0.0,0.0,0.0,0.0,0.0,-1.7108,-1.7691,-1.8059,-1.8513,0.0,-1.8702,-1.8296,-1.8296,-1.8296,-1.7733,-1.6049,0.0,0.0,0.0,0.0,0.0,0.0,0.0,0.0,0.0,0.0,0.0,0.0,0.0,0.0,0.0,0.0,0.0,0.0,0.0,0.0,0.0,0.0,0.0,0.0,0.0,0.0,0.0,0.0,0.0,0.0,0.0,0.0,0.0,0.0,0.0,0.0,0.0,0.0,0.0,0.0,0.0,0.0,0.0,0.0,0.0,0.0,0.0,0.0,0.0,0.0,0.0,0.0,0.0,-1.6286,-1.6433,-1.7872,-1.8687,-1.8789,-1.8789,-1.8935,-1.9272,-1.9272,-1.8701,0.0,0.0,0.0,0.0,0.0,0.0,0.0,0.0,0.0,0.0,0.0,0.0,0.0,0.0,0.0,0.0,0.0,0.0,0.0,0.0,0.0,0.0,0.0,0.0,0.0,0.0,0.0,0.0,-1.2701,-1.295,-1.2623,0.0,0.0,0.0,0.0,0.0,0.0,0.0,0.0,0.0,0.0,-1.8249,-1.8399,-1.8527,0.0,0.0,-1.8957,-1.8709,-1.8912,-1.8941,-1.8586,-1.7495,-1.7278,0.0,0.0,0.0,0.0,0.0,0.0,0.0,0.0,0.0,0.0,0.0,0.0,0.0,0.0,0.0,0.0,0.0,0.0,0.0,0.0,0.0,0.0,0.0,0.0,0.0,0.0,0.0,0.0,0.0,0.0,0.0,0.0,0.0,0.0,0.0,0.0,0.0,0.0,0.0,0.0,0.0,0.0,0.0,0.0,0.0,0.0,0.0,0.0,0.0,0.0,0.0,0.0,-1.6475,-1.6652,-1.8023,-1.8782,-1.8935,-1.8847,-1.9038,-1.9535,-1.9477,-1.9052,0.0,0.0,0.0,0.0,0.0,0.0,0.0,0.0,0.0,0.0,0.0,0.0,0.0,0.0,0.0,0.0,0.0,0.0,0.0,0.0,0.0,0.0,0.0,0.0,0.0,0.0,0.0,0.0,-1.3521,-1.3653,-1.3199,0.0,0.0,0.0,0.0,0.0,0.0,0.0,0.0,0.0,0.0,-1.8979,-1.9206,-1.9228,-1.9301,-1.952,-1.936,-1.9301,-1.9535,-1.9564,-1.9374,-1.8716,0.0,0.0,0.0,0.0,0.0,0.0,0.0,0.0,0.0,0.0,0.0,0.0,0.0,0.0,0.0,0.0,0.0,0.0,0.0,0.0,0.0,0.0,0.0,0.0,0.0,0.0,0.0,-1.1744,0.0,0.0,-1.2226,0.0,0.0,0.0,0.0,0.0,0.0,0.0,0.0,0.0,0.0,0.0,0.0,0.0,0.0,0.0,0.0,0.0,0.0,0.0,0.0,0.0,0.0,-1.6728,-1.7279,-1.8073,-1.8723,-1.9257,-1.8964,-1.9257,-2.015,-1.9916,-1.9647,-1.9228,0.0,0.0,0.0,0.0,0.0,0.0,0.0,0.0,0.0,0.0,0.0,0.0,0.0,0.0,0.0,0.0,0.0,0.0,0.0,0.0,0.0,0.0,0.0,0.0,0.0,0.0,-1.2156,-1.295,-1.3536,0.0,0.0,0.0,0.0,0.0,0.0,0.0,0.0,0.0,-1.8452,-1.876,-1.914,-2.0008,-2.0154,-2.0154,-2.0154,-2.0154,-2.0208,-2.0168,-2.0154,-1.9997,0.0,0.0,0.0,0.0,0.0,0.0,0.0,0.0,0.0,0.0,0.0,0.0,0.0,0.0,0.0,0.0,0.0,0.0,0.0,0.0,0.0,0.0,0.0,0.0,0.0,0.0,0.0,-1.3847,-1.36,0.0,0.0,0.0,0.0,0.0,0.0,0.0,0.0,0.0,0.0,0.0,-1.7355,-1.7999,0.0,0.0,0.0,0.0,0.0,0.0,0.0,0.0,0.0,0.0,0.0,0.0,-1.7287,-1.7999,-1.9051,-1.9706,-1.9901,-1.9798,-1.9901,-2.0168,-2.0135,-1.9828,-1.9338,0.0,0.0,0.0,0.0,0.0,0.0,0.0,0.0,0.0,0.0,0.0,0.0,0.0,0.0,0.0,0.0,0.0,0.0,0.0,0.0,0.0,0.0,0.0,0.0,0.0,-1.3301,0.0,0.0,0.0,0.0,0.0,0.0,0.0,0.0,0.0,0.0,-1.6666,-1.7823,-1.8672,-1.952,-2.0194,-2.0516,-2.075,-2.0881,0.0,0.0,0.0,0.0,0.0,0.0,0.0,0.0,0.0,0.0,0.0,0.0,0.0,0.0,-1.8579,-1.723,-1.6697,-1.6415,-1.6257,0.0,0.0,0.0,0.0,0.0,0.0,0.0,0.0,0.0,0.0,0.0,0.0,0.0,0.0,-1.5344,-1.4979,-1.5333,0.0,0.0,0.0,0.0,0.0,0.0,0.0,0.0,-1.8262,-1.8657,-1.8686,-1.9316,-1.9447,-1.9125,-1.8382,-1.7538,0.0,0.0,0.0,0.0,0.0,0.0,0.0,0.0,-1.812,-1.8928,-1.9808,-2.0346,-2.0504,-2.03,-2.0285,-2.0559,-2.0574,-2.0325,-1.9798,-1.8745,-1.8013,0.0,0.0,0.0,0.0,0.0,0.0,0.0,0.0,0.0,0.0,0.0,0.0,0.0,0.0,0.0,0.0,0.0,0.0,0.0,0.0,0.0,0.0,0.0,-1.4472,0.0,0.0,0.0,0.0,0.0,0.0,0.0,0.0,0.0,-1.6652,-1.7882,-1.9008,-1.9564,-2.0457,-2.113,-2.135,0.0,0.0,0.0,0.0,0.0,0.0,0.0,-2.1379,-2.1379,-2.1115,-2.0781,-2.0603,-2.094,-2.1086,-2.0591,0.0,0.0,-1.8996,-1.8296,-1.7936,-1.7936,-1.7975,-1.7914,-1.7673,-1.7556,-1.7499,0.0,0.0,0.0,0.0,-1.507,0.0,0.0,0.0,-1.6127,-1.6192,0.0,-1.6411,0.0,0.0,0.0,0.0,-1.7049,-1.8203,0.0,0.0,-1.9945,-2.0212,-2.0212,-2.0227,-2.0387,-2.0635,-1.9751,-1.9488,-1.9652,-1.7622,0.0,0.0,0.0,0.0,0.0,0.0,-1.9069,-2.0168,-2.031,-2.0628,-2.1189,-2.0618,-2.0589,-2.1159,-2.1189,-2.1028,-2.072,-2.0091,-1.9316,-1.8379,-1.6813,0.0,0.0,0.0,0.0,0.0,0.0,0.0,0.0,0.0,0.0,0.0,0.0,0.0,0.0,0.0,0.0,0.0,0.0,0.0,0.0,-1.5236,0.0,0.0,0.0,0.0,0.0,0.0,0.0,0.0,0.0,-1.9301,-1.8101,-1.9038,-2.0164,-2.1086,0.0,0.0,0.0,0.0,-2.2754,-2.3076,-2.312,-2.3106,-2.312,-2.2842,-2.2623,-2.2652,0.0,0.0,-2.1364,-2.1774,-2.1964,-2.1364,-2.173,-2.1919,-2.0902,-2.0061,-1.9485,-1.9471,-1.9417,-1.9455,-1.9453,-1.9654,-1.998,-1.4616,0.0,0.0,0.0,0.0,-1.6783,-1.7228,-1.7619,-1.7808,-1.7668,-1.7309,-1.7659,0.0,0.0,0.0,0.0,0.0,0.0,-1.9784,-2.0325,-2.0735,-2.1057,-2.1276,-2.1276,-2.1335,-2.1393,-2.0652,-2.0463,-2.075,-1.9916,-1.8629,-1.6998,0.0,0.0,0.0,0.0,-2.0207,-2.0586,-2.1307,-2.1642,-2.1554,-2.1364,-2.1247,-2.1218,-2.0984,-2.0925,-2.1057,-2.0442,-1.9872,-1.936,-1.8233,0.0,0.0,0.0,0.0,0.0,0.0,0.0,0.0,0.0,0.0,0.0,0.0,0.0,0.0,0.0,0.0,0.0,0.0,0.0,-1.4545,-1.5921,-1.6799,0.0,0.0,0.0,0.0,0.0,0.0,0.0,0.0,0.0,-2.0267,-2.0764,-2.1247,0.0,0.0,-2.2769,-2.2945,-2.3164,-2.3427,-2.3749,-2.3603,0.0,-2.3764,-2.334,-2.312,-2.3588,-2.3398,-2.2974,-2.233,-2.2374,-2.2374,-2.1979,-2.2052,-2.2111,-2.1831,-2.1392,-2.1073,-2.1028,-2.0687,-2.0328,-2.0356,-2.0261,-2.0241,-1.7191,-1.7516,-1.7466,-1.7525,-1.7566,-1.7943,-1.8373,-1.8874,-1.9195,-1.9237,-1.9016,-1.9472,-1.9356,-1.8816,-1.8688,0.0,0.0,0.0,-2.0696,-2.132,-2.1628,-2.1876,-2.2052,-2.2067,-2.2198,-2.2403,-2.154,-2.1467,-2.2154,-2.1597,-2.0615,-1.9341,0.0,-1.9492,-1.9249,-2.0442,-2.122,-2.148,-2.2166,-2.2389,-2.2067,-2.195,-2.1803,-2.1598,-2.1408,-2.1393,-2.1584,-2.1101,-2.0662,-2.034,-1.9403,-1.8584,0.0,0.0,0.0,0.0,0.0,0.0,0.0,0.0,0.0,0.0,0.0,-1.2892,-1.2413,0.0,0.0,0.0,-1.557,-1.6009,-1.6565,-1.7721,0.0,0.0,0.0,0.0,0.0,0.0,0.0,-2.0446,-2.1233,-2.1745,-2.1935,-2.2359,-2.255,-2.2301,-2.2857,-2.3398,-2.3647,0.0,-2.4101,-2.4423,-2.4305,-2.4247,-2.4423,-2.4027,-2.3793,-2.4042,-2.3925,-2.3676,-2.3296,-2.3208,-2.3135,-2.2988,-2.293,-2.293,-2.293,-2.2792,-2.2479,-2.197,-2.1534,-2.1315,-2.1254,-2.119,-2.1121,-1.9985,-1.9953,-1.9021,-1.8637,-1.8624,-1.8903,-1.9164,-1.9423,-2.0329,-2.0669,-2.0715,-2.1367,-2.1197,-2.044,-2.0159,0.0,-2.135,-2.1392,-2.1754,-2.2345,-2.2562,-2.2678,-2.274,-2.271,-2.3018,-2.3559,-2.236,-2.2451,-2.3466,-2.2729,-2.2347,-2.2324,-2.1087,-2.0745,-2.1278,-2.1696,-2.2144,-2.2664,-2.297,-2.297,-2.2588,-2.2357,-2.2197,-2.2257,-2.2257,-2.2242,-2.2213,-2.192,-2.1613,-2.1276,-2.0413,-1.9652,-1.9038,0.0,0.0,0.0,0.0,0.0,0.0,0.0,0.0,0.0,0.0,0.0,0.0,0.0,0.0,0.0,-1.837,0.0,-1.9711,-2.0062,0.0,0.0,0.0,-1.9667,-2.0329,-2.065,-2.1013,-2.1393,0.0,0.0,-2.3193,-2.3706,-2.3866,-2.3296,-2.3486,-2.3896,-2.4481,-2.454,-2.4686,-2.5031,-2.5008,-2.5008,-2.5046,-2.4811,-2.4437,-2.413,-2.4101,-2.4101,-2.4042,-2.4027,-2.4057,-2.3998,-2.4071,-2.4042,-2.4071,-2.3984,-2.372,-2.2593,-2.2288,-2.22,-2.2257,-2.2391,-2.2424,-1.781,-1.8838,-1.9501,-1.9826,-1.9813,-1.9872,-1.9913,-2.0039,-2.0465,-2.0534,-2.0361,-2.0744,-2.0934,-2.097,-2.161,-2.2158,-2.2659,-2.2849,-2.3226,-2.3632,-2.3371,-2.3464,-2.372,-2.3486,-2.3442,-2.3559,-2.3043,-2.3072,-2.3574,-2.3134,-2.3321,-2.3941,-2.315,-2.2441,-2.2034,-2.2995,-2.347,-2.335,-2.3422,-2.31,-2.2546,-2.2187,-2.2219,-2.2515,-2.2515,-2.2523,-2.252,-2.2447,-2.2257,-2.1964,-2.1496,-2.1159,-2.0998,-1.9374,0.0,0.0,0.0,0.0,0.0,0.0,0.0,0.0,0.0,-1.6462,-1.5423,0.0,-1.7969,0.0,-1.9901,-2.0384,-1.9544,-2.012,0.0,0.0,-2.0662,-2.0925,-2.2257,-2.2271,-2.2491,-2.331,-2.3676,-2.3852,-2.3852,-2.3984,-2.4115,-2.4203,-2.4276,-2.4393,-2.4554,-2.4569,-2.4753,-2.5031,-2.4929,-2.4841,-2.5061,-2.5061,-2.4811,-2.4174,-2.4291,-2.4364,-2.413,-2.4086,-2.4086,-2.4086,-2.4086,-2.4086,-2.4101,-2.4086,-2.4013,-2.3691,-2.3435,-2.3221,-2.3221,-2.3091,-2.293,-1.9269,-2.003,-2.0687,-2.1015,-2.0989,-2.0601,-2.0508,-2.0628,-2.1135,-2.1271,-2.1254,-2.1568,-2.1915,-2.2209,-2.2567,-2.2929,-2.3307,-2.3479,-2.3616,-2.3826,-2.3956,-2.4094,-2.4291,-2.4115,-2.4101,-2.4232,-2.391,-2.3925,-2.4232,-2.3919,-2.4092,-2.4788,-2.4103,-2.3581,-2.3233,-2.3871,-2.3914,-2.3369,-2.3431,-2.336,-2.3243,-2.2865,-2.2787,-2.3024,-2.3218,-2.3209,-2.3062,-2.3062,-2.2915,-2.2608,-2.2286,-2.2111,-2.2081,-2.1086,-2.0457,0.0,0.0,0.0,0.0,0.0,0.0,0.0,0.0,0.0,0.0,0.0,-1.9594,-2.0106,-2.1306,-2.1759,-2.1057,-2.173,-2.2301,-2.2462,-2.233,-2.2564,-2.3457,-2.3384,-2.3486,-2.4013,-2.4218,-2.4291,-2.4305,-2.4423,-2.4583,-2.4826,-2.4788,-2.4788,-2.4788,-2.4855,-2.4914,-2.509,-2.5226,-2.5286,-2.5495,-2.5255,-2.5002,-2.4694,-2.4671,-2.4782,-2.4554,-2.4525,-2.451,-2.451,-2.451,-2.4591,-2.451,-2.451,-2.4576,-2.451,-2.4378,-2.4144,-2.3884,-2.3796,-2.3699,-2.1859,-2.1991,-2.1991,-2.1991,-2.1937,-2.1203,-2.1015,-2.1243,-2.1883,-2.2271,-2.2504,-2.2766,-2.3056,-2.3346,-2.3084,-2.3178,-2.3468,-2.3614,-2.3614,-2.3694,-2.4297,-2.4627,-2.4694,-2.4627,-2.4855,-2.5105,-2.4774,-2.4774,-2.5052,-2.4713,-2.466,-2.5042,-2.4363,-2.413,-2.4388,-2.444,-2.405,-2.3224,-2.3339,-2.3577,-2.3949,-2.3651,-2.3536,-2.3679,-2.4065,-2.4159,-2.3808,-2.3779,-2.3618,-2.3252,-2.2959,-2.2784,-2.2754,-2.271,-2.2286,0.0,-2.1028,0.0,0.0,0.0,0.0,0.0,0.0,0.0,0.0,-2.053,-2.1189,-2.1437,-2.2535,-2.3237,-2.3237,-2.3749,-2.4086,-2.4086,-2.4115,-2.4145,-2.4145,-2.4174,-2.4203,-2.4203,-2.4466,-2.4627,-2.4709,-2.4943,-2.5052,-2.5037,-2.5037,-2.5022,-2.5119,-2.5037,-2.5105,-2.5066,-2.5577,-2.5816,-2.5965,-2.5577,-2.5322,-2.5375,-2.5427,-2.5322,-2.5292,-2.5225,-2.524,-2.524,-2.5143,-2.509,-2.5187,-2.5172,-2.5037,-2.5008,-2.5008,-2.4847,-2.4423,-2.4452,-2.4546,-2.0974,-2.1991,-2.1991,-2.1991,-2.1991,-2.2058,-2.1991,-2.1896,-2.2277,-2.2449,-2.2504,-2.2254,-2.231,-2.2592,-2.2873,-2.3144,-2.3432,-2.3784,-2.4054,-2.4324,-2.4448,-2.4694,-2.4964,-2.5031,-2.5061,-2.5119,-2.5061,-2.5061,-2.5066,-2.4713,-2.4707,-2.502,-2.4537,-2.4135,-2.3735,0.0,0.0,0.0,-2.3714,-2.3395,-2.322,-2.3389,-2.3621,-2.3916,-2.4796,0.0,-2.4818,-2.4855,-2.451,-2.394,-2.3837,0.0,0.0,0.0,0.0,0.0,0.0,0.0,0.0,0.0,0.0,0.0,-2.1774,-2.1759,-2.1672,-2.2506,-2.2974,-2.2798,-2.3457,-2.3896,-2.3896,-2.4013,-2.4086,-2.4086,-2.432,-2.4481,-2.4547,-2.4701,-2.4943,-2.4943,-2.5002,-2.5031,-2.5017,-2.509,-2.5119,-2.5081,-2.5066,-2.5066,-2.5149,-2.5081,-2.5066,-2.5119,-2.5322,-2.551,-2.6032,-2.5996,-2.6145,-2.6584,-2.68,-2.6548,-2.6063,-2.5913,-2.5913,-2.5913,-2.5442,-2.5322,-2.5794,-2.5524,-2.5149,-2.5134,-2.5134,-2.509,-2.4905,-2.492,-2.4964,-2.18,-2.2418,-2.2418,-2.2418,0.0,-2.2579,-2.2552,-2.2485,-2.262,-2.2687,-2.2687,-2.2553,-2.2633,-2.2903,-2.3106,-2.327,-2.3406,-2.3952,-2.4224,-2.4292,-2.4645,-2.4781,-2.4781,-2.4999,-2.4984,-2.4781,-2.4984,-2.514,-2.5286,-2.4876,-2.4879,-2.5244,-2.4691,-2.4191,-2.3775,-2.4205,-2.4483,-2.4691,-2.4174,-2.3882,-2.3728,-2.395,-2.3882,-2.3756,-2.4724,0.0,0.0,0.0,0.0,0.0,0.0,0.0,0.0,-2.3925,0.0,-2.3384,-2.3208,-2.2974,-2.2667,-2.2784,-2.3003,-2.334,-2.3647,-2.3618,-2.3149,-2.3706,-2.4013,-2.3852,-2.4276,-2.4635,-2.4554,-2.4635,-2.4569,-2.4569,-2.4715,-2.4885,-2.4832,-2.5017,-2.5052,-2.5066,-2.5066,-2.5066,-2.5066,-2.5066,-2.5125,-2.5257,-2.5286,-2.5344,-2.5461,-2.5257,-2.5269,-2.5996,-2.5794,-2.6041,-2.7122,-2.7087,-2.7045,-2.7578,-2.7566,-2.732,-2.6952,-2.676,-2.6697,-2.6838,-2.663,-2.654,-2.6966,-2.6481,-2.5899,-2.5816,-2.544,-2.5134,-2.5066,-2.5066,-2.5066,-2.2859,-2.2859,-2.2859,-2.2859,-2.2859,-2.2859,-2.2859,-2.2859,-2.2859,0.0,0.0,-2.2859,-2.3065,-2.3338,-2.3338,-2.3338,-2.3338,-2.4088,-2.4266,-2.4036,-2.4732,-2.4897,-2.4667,-2.5023,-2.5023,-2.4804,-2.5008,-2.5291,-2.5469,-2.5054,-2.5054,-2.5331,-2.4719,-2.426,-2.398,-2.3966,-2.4215,-2.473,-2.4412,-2.4257,-2.4221,-2.4263,-2.4111,-2.3588,-2.4617,-2.4863,-2.4276,-2.4858,-2.5061,-2.4738,-2.4723,-2.4657,-2.4723,-2.4657,-2.4657,-2.4657,-2.4723,-2.4606,-2.4276,-2.4576,-2.4723,-2.4723,-2.4973,-2.4832,-2.4291,-2.451,-2.4657,-2.4723,-2.4973,-2.5052,-2.5066,-2.5052,-2.5066,-2.5066,-2.5066,-2.5052,-2.5052,-2.511,-2.5154,-2.5154,-2.5213,-2.5227,-2.5257,-2.5257,-2.5315,-2.5549,-2.5608,-2.5765,-2.6026,-2.5855,-2.6035,-2.705,-2.6931,-2.7082,-2.8302,-2.84,-2.8189,-2.8603,-2.8442,-2.8128,-2.8012,-2.7768,-2.772,-2.7944,-2.7924,-2.7968,-2.8276,-2.7651,-2.7,-2.6984,-2.6156,-2.55,-2.5635,-2.5432,-2.5281,-2.2859,-2.2859,-2.2859,-2.2859,-2.2859,-2.2859,-2.2859,-2.2859,-2.2859,-2.2859,-2.2859,-2.2859,-2.2928,-2.2996,-2.2996,-2.2996,-2.2996,-2.3747,-2.4037,-2.3928,-2.462,-2.5039,-2.5311,-2.5311,-2.5522,-2.5731,-2.5522,-2.5396,-2.5369,-2.5017,-2.4876,-2.4918,-2.4624,-2.4274,-2.4048,-2.3966,-2.4048,-2.4158,-2.3823,-2.3468,-2.3225,-2.3487,-2.3734,-2.3992,-2.4927,-2.5377,-2.5266,-2.5364,-2.5315,-2.5075,-2.4993,-2.5061,-2.5061,-2.5046,-2.5061,-2.5061,-2.5061,-2.5031,-2.4987,-2.5031,-2.5046,-2.5061,-2.5105,-2.5075,-2.5002,-2.5031,-2.4993,-2.5061,-2.5105,-2.5066,-2.5066,-2.5081,-2.5096,-2.5081,-2.5066,-2.5066,-2.5163,-2.5315,-2.5461,-2.5476,-2.571,-2.5857,-2.5827,-2.5842,-2.5842,-2.593,-2.5988,-2.6199,-2.6873,-2.6992,-2.7277,-2.7952,-2.809,-2.8381,-2.9185,-2.9253,-2.9371,-3.0003,-3.0003,-2.9663,-2.9185,-2.9034,-2.9001,-2.9116,-2.8721,-2.8615,-2.911,-2.8631,-2.817,-2.8016,-2.7385,-2.7062,-2.7461,-2.677,-2.582,-2.2859,-2.2859,-2.2859,-2.2859,-2.2941,-2.3046,-2.3113,-2.3126,-2.3287,-2.3166,-2.2873,-2.2859,-2.2953,-2.3113,-2.3113,-2.3207,-2.3423,-2.4178,-2.4317,-2.4174,-2.4806,-2.5017,-2.4876,-2.5229,-2.5299,-2.5116,-2.5299,-2.5385,-2.5328,-2.5199,-2.5199,-2.5385,-2.4961,-2.4735,-2.4748,-2.4331,-2.4191,-2.4191,-2.3926,-2.3607,-2.3269,-2.3746,-2.3952,-2.3679,-2.4727,-2.5157,-2.493,-2.5135,-2.5213,-2.5134,-2.5066,-2.5066,-2.5066,-2.5213,-2.5315,-2.5315,-2.5476,-2.5579,-2.5579,-2.5579,-2.5579,-2.5579,-2.5579,-2.5579,-2.5579,-2.5257,-2.5193,-2.5286,-2.5315,-2.5388,-2.5549,-2.5579,-2.5579,-2.5579,-2.5579,-2.5579,-2.5593,-2.5696,-2.5798,-2.5798,-2.593,-2.6018,-2.6018,-2.6018,-2.6105,-2.6252,-2.6413,-2.6974,-2.8098,-2.8326,-2.8451,-2.8814,-2.8923,-2.9297,-3.0084,-3.0272,-3.0478,-3.1011,-3.0874,-3.0634,-3.0238,-3.0137,-3.007,-3.0221,-2.991,-3.001,-3.0491,-2.9834,-2.9318,-2.9061,-2.8414,-2.8057,-2.8095,-2.7679,-2.6946,-2.2899,-2.2966,-2.2966,-2.3075,-2.3155,-2.3313,-2.342,-2.3447,-2.3661,-2.3514,-2.3169,-2.3073,-2.3207,-2.342,-2.3434,-2.3624,-2.3954,-2.4536,-2.4634,-2.449,-2.4988,-2.4959,-2.46,-2.5171,-2.5157,-2.4743,-2.5228,-2.5412,-2.5277,-2.5291,-2.5408,-2.5683,-2.5314,-2.5158,-2.5299,-2.4607,-2.4337,-2.4437,-2.4136,-2.3818,-2.3612,-2.4162,-2.423,-2.3818,-2.4587,-2.493,-2.471,-2.5052,-2.5271,-2.5271,-2.5271,-2.5271,-2.5286,-2.5505,-2.5637,-2.5666,-2.5871,-2.6018,-2.6018,-2.6018,-2.6018,-2.6018,-2.6018,-2.6018,-2.5974,-2.5564,-2.5374,-2.5593,-2.5637,-2.574,-2.593,-2.5988,-2.6018,-2.6018,-2.6018,-2.5974,-2.6018,-2.6076,-2.6135,-2.6135,-2.6179,-2.6252,-2.6237,-2.6237,-2.6383,-2.6705,-2.6998,-2.7774,-2.8956,-2.9391,-2.9536,-2.9703,-2.9788,-3.0201,-3.1027,-3.1131,-3.1251,-3.1542,-3.1319,-3.1165,-3.1027,-3.0874,-3.0806,-3.101,-3.1079,-3.1164,-3.1403,-3.0915,-3.038,-3.0206,-2.9551,-2.8798,-2.8605,-2.8745,-2.8183,-2.3033,-2.326,-2.3287,-2.3447,-2.3661,-2.3714,-2.3728,-2.3741,-2.3768,-2.3741,-2.3688,-2.3688,-2.3701,-2.3728,-2.3728,-2.3954,-2.4266,-2.4323,-2.4487,-2.4706,-2.4733,-2.4884,-2.5103,-2.5556,-2.5716,-2.5615,-2.5674,-2.5528,-2.5231,-2.5245,-2.5253,-2.5366,-2.5669,-2.5527,-2.5003,-2.4549,-2.4479,-2.4819,-2.4127,-2.3958,-2.4227,-2.4284,-2.4439,-2.4721,-2.4848,-2.5073,-2.5241,-2.572,-2.593,-2.593,-2.5915,-2.5915,-2.5915,-2.5959,-2.5974,-2.5974,-2.6018,-2.6018,-2.6032,-2.6018,-2.6047,-2.6018,-2.6047,-2.6047,-2.6047,-2.5974,-2.593,-2.5988,-2.5974,-2.6003,-2.6018,-2.6047,-2.6091,-2.6105,-2.6076,-2.6018,-2.6091,-2.6281,-2.6457,-2.6457,-2.6735,-2.6896,-2.6896,-2.6896,-2.7027,-2.7291,-2.7554,-2.8118,-2.9087,-2.9739,-3.0306,-3.0733,-3.1111,-3.1333,-3.1491,-3.1508,-3.1525,-3.1576,-3.1559,-3.1508,-3.1491,-3.1491,-3.1474,-3.1354,-3.1508,-3.1559,-3.1576,-3.1454,-3.1489,-3.1311,-3.073,-3.0026,-2.9544,-2.9725,-2.9373,-2.3474,-2.3594,-2.3594,-2.3661,-2.3781,-2.3955,-2.4022,-2.4035,-2.4209,-2.4275,-2.4275,-2.4275,-2.4195,-2.4022,-2.4022,-2.4187,-2.448,-2.4711,-2.4779,-2.4742,-2.4902,-2.5116,-2.5226,-2.5373,-2.5446,-2.5446,-2.5446,-2.5373,-2.5226,-2.5446,-2.567,-2.5923,-2.5894,-2.5693,-2.5422,-2.5277,-2.5146,-2.5074,-2.5001,-2.4929,-2.4815,-2.4501,-2.4394,-2.4536,-2.4734,-2.5017,-2.537,-2.5581,-2.5722,-2.5947,-2.6018,-2.6018,-2.6018,-2.6208,-2.631,-2.631,-2.6486,-2.6588,-2.6588,-2.6588,-2.6588,-2.6588,-2.6588,-2.6588,-2.6588,-2.6588,-2.6588,-2.6574,-2.6413,-2.6369,-2.6544,-2.6588,-2.6588,-2.6588,-2.6588,-2.6588,-2.6603,-2.6881,-2.7086,-2.71,-2.7364,-2.7554,-2.7554,-2.7554,-2.7613,-2.7744,-2.7891,-2.8416,-2.9601,-3.0092,-3.0769,-3.1666,-3.2168,-3.2022,-3.1713,-3.1559,-3.1662,-3.1833,-3.1902,-3.1902,-3.1902,-3.1902,-3.185,-3.1628,-3.1782,-3.1885,-3.1902,-3.2107,-3.2227,-3.2121,-3.2121,-3.1582,-3.1021,-3.1186,-3.065,-2.3821,-2.3901,-2.3968,-2.4008,-2.4022,-2.4235,-2.4329,-2.4342,-2.4469,-2.4636,-2.4636,-2.4636,-2.4529,-2.4342,-2.4315,-2.4509,-2.477,-2.4931,-2.4985,-2.4891,-2.5127,-2.5181,-2.5235,-2.5316,-2.5289,-2.5201,-2.5437,-2.5538,-2.5607,-2.5903,-2.62,-2.6421,-2.62,-2.6126,-2.62,-2.5982,-2.5704,-2.5631,-2.5561,-2.5359,-2.5171,-2.4802,-2.4583,-2.4712,-2.4913,-2.527,-2.5627,-2.5783,-2.5997,-2.6281,-2.6281,-2.6281,-2.6296,-2.6515,-2.6632,-2.6647,-2.6852,-2.6998,-2.6998,-2.6998,-2.6998,-2.6998,-2.6998,-2.6998,-2.6998,-2.6998,-2.6998,-2.6954,-2.6778,-2.6749,-2.6939,-2.6998,-2.7027,-2.71,-2.7115,-2.7144,-2.7261,-2.7481,-2.7598,-2.7627,-2.7759,-2.7874,-2.7949,-2.8144,-2.8445,-2.8459,-2.8761,-2.9185,-3.0316,-3.0857,-3.1423,-3.2328,-3.2679,-3.2587,-3.2004,-3.1919,-3.2022,-3.2159,-3.2278,-3.2278,-3.2278,-3.2278,-3.2278,-3.2141,-3.2227,-3.2261,-3.2278,-3.2518,-3.2689,-3.2672,-3.2672,-3.2531,-3.2113,-3.2223,-3.196,-2.3928,-2.4209,-2.4402,-2.4556,-2.4509,-2.4596,-2.4609,-2.4583,-2.4623,-2.4636,-2.4636,-2.4636,-2.4623,-2.4596,-2.4609,-2.4784,-2.5092,-2.4811,-2.5033,-2.55,-2.5289,-2.5286,-2.5527,-2.5574,-2.5439,-2.5289,-2.58,-2.6299,-2.655,-2.6578,-2.6668,-2.6654,-2.6626,-2.6881,-2.6989,-2.621,-2.6084,-2.6457,-2.5491,-2.4884,-2.5179,-2.5139,-2.5332,-2.5684,-2.5744,-2.5862,-2.6314,-2.6707,-2.6925,-2.6939,-2.6896,-2.6925,-2.6939,-2.6939,-2.6954,-2.6954,-2.6983,-2.7013,-2.7013,-2.7042,-2.7042,-2.7027,-2.7071,-2.7027,-2.7086,-2.7086,-2.7086,-2.7013,-2.7042,-2.7027,-2.7056,-2.7071,-2.7159,-2.7422,-2.7452,-2.7583,-2.7757,-2.7801,-2.7844,-2.7859,-2.7993,-2.8052,-2.8008,-2.8897,-2.9443,-2.9747,-3.0498,-3.1191,-3.1297,-3.194,-3.2264,-3.2334,-3.2757,-3.31,-3.2724,-3.245,-3.2518,-3.2655,-3.2672,-3.2655,-3.2655,-3.2655,-3.2638,-3.2621,-3.2638,-3.2655,-3.2655,-3.2707,-3.2792,-3.2826,-3.2861,-3.2775,-3.2707,-3.2672,-3.2407,-2.4382,-2.4489,-2.4522,-2.4636,-2.4636,-2.4636,-2.4636,-2.4636,-2.4636,-2.4636,-2.4636,-2.4636,-2.4636,-2.4576,-2.4836,-2.4991,-2.5141,-2.5005,-2.5152,-2.5558,-2.5434,-2.5563,-2.5873,-2.5702,-2.5661,-2.5827,-2.604,-2.6385,-2.662,-2.642,-2.6357,-2.6343,-2.6572,-2.6648,-2.6558,-2.6701,-2.6631,-2.6329,-2.578,-2.5499,-2.541,-2.5424,-2.5711,-2.6285,-2.5996,-2.6019,-2.6385,-2.6546,-2.6765,-2.6998,-2.6998,-2.6998,-2.6998,-2.6998,-2.6998,-2.7013,-2.7188,-2.7305,-2.732,-2.7495,-2.7598,-2.7613,-2.7613,-2.7583,-2.7598,-2.7613,-2.7598,-2.7598,-2.7598,-2.7613,-2.7569,-2.7437,-2.7437,-2.77,-2.7788,-2.7832,-2.7888,-2.8063,-2.8195,-2.8209,-2.8417,-2.8703,-2.915,-2.9654,-3.0192,-3.0745,-3.1162,-3.1609,-3.2069,-3.2435,-3.269,-3.3137,-3.3388,-3.358,-3.3477,-3.2929,-3.2741,-3.2963,-3.3066,-3.3066,-3.3049,-3.3049,-3.3049,-3.2861,-3.2912,-3.3049,-3.3066,-3.3369,-3.3386,-3.3306,-3.3306,-3.3226,-3.31,-3.3066,-3.2929,-2.4636,-2.4636,-2.4636,-2.4636,-2.4636,-2.4636,-2.4636,-2.4649,-2.473,-2.4783,-2.4796,-2.4877,-2.4917,-2.4957,-2.513,-2.5277,-2.5344,-2.5277,-2.5384,-2.5638,-2.5651,-2.5859,-2.608,-2.5859,-2.5895,-2.6202,-2.6419,-2.6613,-2.6787,-2.6633,-2.6647,-2.6661,-2.6864,-2.6941,-2.6864,-2.701,-2.6801,-2.6342,-2.6031,-2.5734,-2.5518,-2.5671,-2.59,-2.644,-2.6392,-2.6478,-2.6848,-2.6848,-2.6996,-2.7217,-2.7291,-2.7305,-2.7305,-2.7305,-2.7305,-2.732,-2.7495,-2.7627,-2.7642,-2.7832,-2.7859,-2.7874,-2.7859,-2.7874,-2.7874,-2.7874,-2.7874,-2.7874,-2.7874,-2.7903,-2.7976,-2.792,-2.7876,-2.799,-2.8034,-2.8154,-2.8242,-2.8447,-2.8564,-2.8608,-2.8739,-2.9168,-2.9586,-2.9897,-3.0438,-3.1302,-3.1609,-3.2069,-3.2757,-3.2985,-3.3137,-3.3685,-3.3744,-3.3802,-3.3734,-3.3374,-3.3186,-3.3374,-3.3409,-3.3409,-3.3409,-3.3426,-3.3357,-3.3186,-3.3186,-3.3374,-3.3603,-3.3908,-3.3919,-3.3895,-3.3885,-3.3845,-3.3644,-3.346,-3.3323,-2.4636,-2.4636,-2.4636,-2.4636,-2.4636,-2.4676,-2.4649,-2.4716,-2.4957,-2.5077,-2.5104,-2.5344,-2.5411,-2.5478,-2.5478,-2.5665,-2.5798,-2.5728,-2.5782,-2.5945,-2.6037,-2.6171,-2.6372,-2.6144,-2.6192,-2.658,-2.6954,-2.7106,-2.7014,-2.7236,-2.7393,-2.7605,-2.7471,-2.76,-2.8168,-2.7092,-2.6658,-2.6462,-2.5963,-2.5585,-2.5608,-2.5891,-2.6148,-2.635,-2.6889,-2.742,-2.7874,-2.7844,-2.7786,-2.7801,-2.7815,-2.7859,-2.7786,-2.7786,-2.783,-2.7801,-2.7859,-2.7874,-2.7874,-2.7993,-2.7976,-2.7976,-2.7917,-2.7976,-2.8005,-2.7976,-2.7976,-2.799,-2.7976,-2.8049,-2.8297,-2.8403,-2.8403,-2.8355,-2.8432,-2.8549,-2.8754,-2.8856,-2.8886,-2.8856,-2.8886,-2.8886,-2.9119,-2.9741,-3.0608,-3.1456,-3.2146,-3.2833,-3.3458,-3.3609,-3.3761,-3.3761,-3.3837,-3.3837,-3.3837,-3.382,-3.3802,-3.3802,-3.3751,-3.3734,-3.37,-3.3683,-3.3741,-3.3603,-3.3794,-3.4024,-3.4099,-3.4313,-3.4313,-3.4197,-3.4273,-3.4197,-3.3902,-3.3683,-3.3717,-2.4636,-2.4636,-2.4636,-2.4636,-2.4663,-2.485,-2.4943,-2.497,-2.5251,-2.5371,-2.5398,-2.5478,-2.5518,-2.5571,-2.5718,-2.5865,-2.6037,-2.6286,-2.6408,-2.6318,-2.6567,-2.6529,-2.6439,-2.6293,-2.6489,-2.6816,-2.6959,-2.7158,-2.7305,-2.7254,-2.7175,-2.7254,-2.7476,-2.7319,-2.7097,-2.6936,-2.6738,-2.6475,-2.6251,-2.6119,-2.6119,-2.6262,-2.6575,-2.712,-2.7431,-2.7819,-2.8501,-2.8183,-2.7888,-2.7888,-2.7874,-2.7874,-2.7874,-2.7874,-2.7874,-2.7903,-2.8093,-2.8209,-2.8238,-2.8461,-2.8578,-2.8593,-2.8578,-2.8593,-2.8593,-2.8578,-2.8578,-2.8578,-2.8593,-2.8651,-2.8725,-2.8754,-2.8739,-2.8739,-2.8754,-2.8769,-2.8856,-2.8886,-2.8886,-2.8886,-2.8886,-2.9119,-2.9664,-3.0376,-3.1071,-3.1993,-3.2757,-3.3458,-3.3685,-3.3837,-3.3837,-3.3837,-3.3837,-3.3837,-3.3837,-3.3837,-3.3837,-3.3837,-3.3837,-3.3837,-3.3837,-3.3837,-3.3912,-3.4139,-3.4348,-3.4499,-3.4574,-3.4724,-3.4724,-3.4499,-3.4423,-3.4215,-3.3912,-3.3837,-3.3837,-2.4703,-2.4796,-2.4796,-2.4877,-2.497,-2.517,-2.5237,-2.5291,-2.5558,-2.5678,-2.5692,-2.5798,-2.5838,-2.5879,-2.6039,-2.6276,-2.6381,-2.6792,-2.6874,-2.6702,-2.686,-2.6781,-2.6465,-2.6544,-2.6702,-2.6939,-2.7175,-2.7254,-2.7412,-2.7412,-2.7412,-2.7333,-2.749,-2.7398,-2.686,-2.6953,-2.686,-2.6623,-2.6623,-2.6558,-2.6465,-2.6544,-2.686,-2.7319,-2.7726,-2.8104,-2.8637,-2.8414,-2.83,-2.83,-2.83,-2.83,-2.83,-2.8315,-2.83,-2.8344,-2.8476,-2.8608,-2.8622,-2.8769,-2.8886,-2.8886,-2.8886,-2.8886,-2.8886,-2.8886,-2.8886,-2.8886,-2.8871,-2.8886,-2.8886,-2.8886,-2.8886,-2.8886,-2.8886,-2.8886,-2.8886,-2.8886,-2.8886,-2.8886,-2.8886,-2.9197,-2.9664,-3.0052,-3.0994,-3.1916,-3.2604,-3.3306,-3.3534,-3.3837,-3.3837,-3.3837,-3.3837,-3.3837,-3.3837,-3.3837,-3.3837,-3.3837,-3.3837,-3.3837,-3.3837,-3.3837,-3.3837,-3.4273,-3.4574,-3.4707,-3.4857,-3.5306,-3.5456,-3.5025,-3.4574,-3.4423,-3.4197,-3.3912,-3.3837,-2.4836,-2.509,-2.5104,-2.5237,-2.5464,-2.5518,-2.5531,-2.5585,-2.5852,-2.5985,-2.6039,-2.6199,-2.6333,-2.636,-2.6333,-2.6583,-2.6939,-2.6939,-2.7032,-2.6953,-2.7018,-2.686,-2.6544,-2.686,-2.7097,-2.7097,-2.7412,-2.7412,-2.7347,-2.7897,-2.804,-2.7726,-2.7726,-2.7633,-2.7476,-2.7175,-2.7032,-2.6953,-2.6953,-2.6781,-2.6479,-2.6795,-2.7097,-2.7189,-2.7883,-2.8275,-2.8417,-2.8671,-2.8827,-2.8871,-2.8812,-2.8798,-2.8856,-2.8886,-2.8827,-2.8798,-2.8871,-2.8856,-2.8871,-2.8871,-2.8886,-2.8886,-2.8886,-2.8886,-2.8886,-2.8886,-2.8886,-2.8886,-2.8886,-2.8886,-2.8886,-2.8944,-2.8959,-2.8973,-2.9003,-2.8988,-2.8959,-2.9003,-2.9061,-2.9017,-2.8959,-2.893,-2.9115,-2.9164,-2.9974,-3.1071,-3.1702,-3.2544,-3.3382,-3.3837,-3.3837,-3.3837,-3.3854,-3.3837,-3.3837,-3.3837,-3.3837,-3.3837,-3.3837,-3.3854,-3.3837,-3.3912,-3.3988,-3.4348,-3.4724,-3.4932,-3.5231,-3.5605,-3.568,-3.5231,-3.495,-3.4782,-3.4499,-3.4064,-3.3837,-2.513,-2.5384,-2.5398,-2.5438,-2.5545,-2.5745,-2.5838,-2.5879,-2.6146,-2.6253,-2.6293,-2.6346,-2.64,-2.64,-2.6386,-2.6623,-2.6953,-2.7032,-2.7032,-2.7032,-2.7333,-2.7175,-2.7018,-2.7254,-2.7398,-2.7476,-2.7555,-2.7712,-2.7976,-2.8211,-2.8197,-2.8118,-2.8133,-2.7961,-2.7633,-2.7476,-2.7254,-2.7032,-2.7032,-2.6939,-2.6874,-2.6939,-2.7333,-2.7976,-2.8197,-2.8431,-2.8666,-2.8808,-2.8886,-2.8886,-2.8886,-2.8886,-2.8886,-2.8886,-2.8886,-2.8886,-2.8886,-2.8886,-2.8886,-2.8886,-2.8886,-2.8886,-2.8886,-2.8886,-2.8886,-2.8886,-2.8886,-2.8886,-2.8886,-2.8915,-2.8944,-2.912,-2.9325,-2.9529,-2.9412,-2.9339,-2.9515,-2.9617,-2.9617,-2.9588,-2.9383,-2.9281,-2.9365,-2.9625,-3.0283,-3.1288,-3.1997,-3.261,-3.361,-3.3974,-3.4025,-3.3888,-3.3854,-3.3854,-3.3837,-3.3837,-3.3837,-3.3837,-3.3854,-3.3871,-3.393,-3.4064,-3.4215,-3.4441,-3.4799,-3.5082,-3.5456,-3.5829,-3.5605,-3.5306,-3.5082,-3.4799,-3.4423,-3.4064,-3.3912,-2.5438,-2.5705,-2.5692,-2.5772,-2.5892,-2.6066,-2.6132,-2.6172,-2.6306,-2.64,-2.64,-2.64,-2.64,-2.64,-2.6386,-2.6702,-2.7175,-2.686,-2.6939,-2.7333,-2.7476,-2.7555,-2.7569,-2.7633,-2.7712,-2.7883,-2.7883,-2.804,-2.8289,-2.8431,-2.8431,-2.8289,-2.8289,-2.8118,-2.7961,-2.7869,-2.7805,-2.7583,-2.7504,-2.749,-2.7254,-2.7412,-2.774,-2.8289,-2.8431,-2.8666,-2.8886,-2.8886,-2.8886,-2.8886,-2.8886,-2.8886,-2.8886,-2.8886,-2.8886,-2.8886,-2.8886,-2.8886,-2.8886,-2.8886,-2.8886,-2.8886,-2.8886,-2.8886,-2.8886,-2.89,-2.8915,-2.909,-2.909,-2.9164,-2.931,-2.9486,-2.972,-3.0049,-2.9895,-2.9807,-2.9961,-2.9917,-2.9932,-2.9822,-2.9785,-2.9813,-3.0052,-3.0427,-3.1136,-3.2058,-3.2822,-3.352,-3.4137,-3.4222,-3.4265,-3.4213,-3.4231,-3.4299,-3.4248,-3.4213,-3.4265,-3.4213,-3.4094,-3.4076,-3.4032,-3.415,-3.4215,-3.4365,-3.4799,-3.5157,-3.5456,-3.5605,-3.553,-3.5231,-3.5007,-3.4724,-3.4441,-3.4064,-3.3912,-2.5732,-2.5999,-2.5999,-2.6146,-2.6346,-2.6386,-2.636,-2.6386,-2.6386,-2.64,-2.64,-2.64,-2.64,-2.6386,-2.6479,-2.686,-2.7476,-2.686,-2.7097,-2.7412,-2.7726,-2.7883,-2.8197,-2.7883,-2.804,-2.8275,-2.8289,-2.8353,-2.8431,-2.8744,-2.8666,-2.851,-2.8446,-2.8368,-2.8353,-2.8353,-2.8353,-2.8211,-2.8133,-2.7961,-2.7805,-2.7976,-2.8211,-2.8431,-2.8666,-2.8822,-2.8886,-2.8886,-2.8886,-2.8886,-2.8886,-2.8886,-2.8886,-2.8886,-2.8886,-2.8915,-2.8944,-2.8959,-2.893,-2.8988,-2.9003,-2.9003,-2.9017,-2.8988,-2.9076,-2.9105,-2.9193,-2.9412,-2.9427,-2.9573,-2.9807,-2.991,-3.0071,-3.032,-3.046,-3.0246,-3.0042,-2.9954,-2.9968,-3.0035,-3.0035,-3.0474,-3.0926,-3.1392,-3.1903,-3.2833,-3.343,-3.382,-3.4382,-3.4676,-3.471,-3.4744,-3.4796,-3.4881,-3.4779,-3.4659,-3.471,-3.471,-3.4539,-3.4419,-3.4196,-3.417,-3.4132,-3.429,-3.4574,-3.4875,-3.5174,-3.5231,-3.5231,-3.5157,-3.4875,-3.4649,-3.4365,-3.4064,-3.3837,-2.6039,-2.6293,-2.6293,-2.6333,-2.6386,-2.64,-2.64,-2.64,-2.64,-2.64,-2.64,-2.64,-2.64,-2.6465,-2.6716,-2.6939,-2.7175,-2.6939,-2.7175,-2.7647,-2.804,-2.8353,-2.8588,-2.8353,-2.8431,-2.8588,-2.8431,-2.8431,-2.8744,-2.8808,-2.89,-2.8837,-2.8759,-2.8744,-2.8759,-2.8759,-2.8588,-2.8368,-2.8289,-2.8289,-2.8197,-2.8289,-2.8431,-2.873,-2.8808,-2.8886,-2.8886,-2.8886,-2.8886,-2.8886,-2.8915,-2.8973,-2.8944,-2.8915,-2.8944,-2.9017,-2.9164,-2.9164,-2.9032,-2.9325,-2.9529,-2.931,-2.9456,-2.9727,-2.9647,-2.9617,-2.9661,-2.9764,-2.9764,-2.991,-3.0188,-3.0246,-3.0393,-3.0598,-3.0685,-3.0671,-3.0627,-3.0598,-3.0554,-3.0607,-3.0937,-3.1371,-3.1584,-3.2027,-3.2603,-3.3474,-3.3947,-3.4183,-3.4548,-3.507,-3.5138,-3.5224,-3.5207,-3.5258,-3.5207,-3.507,-3.5035,-3.5035,-3.4881,-3.4744,-3.4522,-3.4316,-3.4238,-3.4219,-3.4215,-3.4534,-3.4998,-3.495,-3.4932,-3.4875,-3.4724,-3.4516,-3.4215,-3.3912,-3.3837,-2.6253,-2.6386,-2.64,-2.64,-2.64,-2.64,-2.64,-2.64,-2.64,-2.64,-2.64,-2.64,-2.64,-2.6479,-2.6795,-2.7032,-2.7032,-2.7175,-2.7412,-2.7726,-2.804,-2.851,-2.8808,-2.8744,-2.8744,-2.8822,-2.8666,-2.8744,-2.8808,-2.893,-2.8973,-2.9076,-2.8988,-2.9003,-2.9061,-2.8973,-2.8822,-2.8666,-2.8588,-2.8588,-2.8588,-2.8588,-2.8666,-2.8808,-2.8886,-2.8886,-2.8886,-2.9061,-2.9105,-2.9149,-2.9251,-2.9266,-2.9149,-2.912,-2.9193,-2.9369,-2.9471,-2.9544,-2.9515,-2.9632,-2.9778,-2.9617,-2.9778,-2.9903,-2.9947,-2.9947,-2.9954,-3.0137,-3.0196,-3.0299,-3.0525,-3.0568,-3.0685,-3.0759,-3.0817,-3.0817,-3.0817,-3.0817,-3.0817,-3.0886,-3.0987,-3.1407,-3.1859,-3.2566,-3.3323,-3.4175,-3.5008,-3.5248,-3.5282,-3.5652,-3.5618,-3.5635,-3.5583,-3.5583,-3.5583,-3.5481,-3.5326,-3.5258,-3.5138,-3.5001,-3.4847,-3.4642,-3.4436,-3.447,-3.4443,-3.4492,-3.4831,-3.4749,-3.4609,-3.4591,-3.4441,-3.4215,-3.4064,-3.3912,-3.3837,-2.64,-2.64,-2.64,-2.64,-2.64,-2.64,-2.64,-2.64,-2.64,-2.64,-2.6386,-2.6465,-2.6544,-2.6623,-2.711,-2.7189,-2.7268,-2.7412,-2.7633,-2.7805,-2.8275,-2.8588,-2.8808,-2.8886,-2.8944,-2.8944,-2.9003,-2.9003,-2.909,-2.9061,-2.9266,-2.9383,-2.9208,-2.9193,-2.9281,-2.912,-2.8959,-2.8822,-2.8808,-2.8822,-2.8808,-2.8822,-2.8915,-2.9003,-2.8915,-2.9017,-2.909,-2.9208,-2.931,-2.9442,-2.9676,-2.9676,-2.9603,-2.9471,-2.9544,-2.9837,-2.9881,-2.9947,-2.9822,-2.9939,-3.0042,-2.9968,-3.0012,-3.0027,-3.0056,-3.01,-3.0217,-3.0334,-3.0437,-3.051,-3.0788,-3.0788,-3.0788,-3.0817,-3.0817,-3.0817,-3.0817,-3.0817,-3.0817,-3.09,-3.1505,-3.2119,-3.271,-3.3367,-3.4132,-3.4865,-3.5612,-3.6097,-3.6097,-3.608,-3.596,-3.5909,-3.5857,-3.5823,-3.5823,-3.5806,-3.5652,-3.5583,-3.5446,-3.5361,-3.5258,-3.5224,-3.5087,-3.4813,-3.4753,-3.4788,-3.4692,-3.4536,-3.4457,-3.4318,-3.4156,-3.3988,-3.3912,-3.3837,-3.3854,-2.64,-2.64,-2.64,-2.64,-2.64,-2.64,-2.64,-2.64,-2.64,-2.64,-2.6465,-2.6716,-2.6874,-2.711,-2.774,-2.8054,-2.7897,-2.779,-2.7805,-2.8118,-2.851,-2.8808,-2.8886,-2.89,-2.9032,-2.9237,-2.931,-2.9412,-2.9588,-2.9705,-2.9661,-2.9749,-2.969,-2.9617,-2.9456,-2.9295,-2.9164,-2.8988,-2.8944,-2.8944,-2.89,-2.8944,-2.9076,-2.9237,-2.9105,-2.9222,-2.9442,-2.9251,-2.9222,-2.969,-2.9559,-2.9764,-2.9998,-2.9939,-2.9881,-2.9968,-3.0159,-3.0188,-3.0056,-3.0364,-3.0451,-3.0407,-3.0451,-3.0598,-3.0627,-3.0627,-3.0598,-3.0656,-3.0715,-3.0759,-3.0803,-3.0817,-3.0817,-3.0817,-3.0817,-3.0817,-3.0817,-3.0817,-3.0817,-3.0817,-3.1896,-3.2705,-3.287,-3.3444,-3.436,-3.4946,-3.5612,-3.6016,-3.6097,-3.6097,-3.6063,-3.6046,-3.6063,-3.6046,-3.6046,-3.6029,-3.596,-3.5926,-3.584,-3.584,-3.5806,-3.5909,-3.5772,-3.5378,-3.5087,-3.4994,-3.4805,-3.4599,-3.4479,-3.4546,-3.417,-3.3888,-3.3922,-3.3991,-3.3888,-2.64,-2.64,-2.64,-2.64,-2.64,-2.64,-2.64,-2.64,-2.64,-2.64,-2.6558,-2.6795,-2.7032,-2.7268,-2.7897,-2.8289,-2.8197,-2.779,-2.7883,-2.8275,-2.8666,-2.8886,-2.8886,-2.8886,-2.9208,-2.95,-2.9647,-2.969,-2.9851,-2.9917,-3.0049,-3.0123,-3.0049,-2.9851,-2.9917,-2.972,-2.9456,-2.9222,-2.9134,-2.9061,-2.8944,-2.9047,-2.931,-2.9486,-2.95,-2.9588,-2.972,-2.9837,-2.9793,-3.0056,-3.0129,-3.0305,-3.0437,-3.0466,-3.0349,-3.0364,-3.0495,-3.0539,-3.0393,-3.0685,-3.0715,-3.0642,-3.0744,-3.0817,-3.0817,-3.0803,-3.0817,-3.0817,-3.0817,-3.0817,-3.0817,-3.0817,-3.0817,-3.0817,-3.0817,-3.0817,-3.0817,-3.0817,-3.0817,-3.09,-3.1399,-3.1896,-3.2061,-3.2968,-3.4278,-3.5109,-3.5612,-3.5855,-3.6097,-3.6097,-3.6097,-3.6097,-3.6097,-3.6097,-3.6097,-3.6097,-3.6097,-3.6097,-3.6097,-3.6097,-3.6097,-3.608,-3.5994,-3.5755,-3.5515,-3.5275,-3.5121,-3.495,-3.4813,-3.4693,-3.4556,-3.4402,-3.4213,-3.4111,-3.4059,-2.64,-2.64,-2.64,-2.64,-2.64,-2.64,-2.64,-2.64,-2.64,-2.64,-2.6465,-2.686,-2.7175,-2.7333,-2.7883,-2.8275,-2.8353,-2.7961,-2.804,-2.8431,-2.8744,-2.8886,-2.8886,-2.8973,-2.9208,-2.9734,-2.9822,-3.002,-3.0129,-3.0129,-3.0232,-3.0334,-3.0173,-3.0115,-3.0299,-3.0137,-2.9778,-2.9573,-2.9471,-2.9325,-2.9222,-2.9339,-2.9632,-2.9976,-2.991,-2.9895,-3.0129,-3.0152,-3.0232,-3.0407,-3.0554,-3.0715,-3.0803,-3.0817,-3.0817,-3.0817,-3.0817,-3.0817,-3.0817,-3.0803,-3.0803,-3.0773,-3.0803,-3.0817,-3.0817,-3.0817,-3.0817,-3.0817,-3.0817,-3.0817,-3.0817,-3.0817,-3.0817,-3.0817,-3.0817,-3.0817,-3.09,-3.0984,-3.1233,-3.1233,-3.1233,-3.1482,-3.1978,-3.305,-3.4539,-3.4702,-3.5271,-3.5774,-3.5935,-3.6097,-3.6097,-3.6097,-3.6097,-3.6097,-3.6097,-3.6097,-3.6097,-3.6097,-3.6097,-3.6097,-3.6097,-3.6097,-3.6011,-3.5943,-3.584,-3.5618,-3.5498,-3.5361,-3.5172,-3.5052,-3.5018,-3.4864,-3.4607,-3.447,-3.4402,-2.64,-2.64,-2.64,-2.64,-2.64,-2.64,-2.64,-2.64,-2.64,-2.64,-2.6465,-2.7175,-2.749,-2.7754,-2.8054,-2.851,-2.8602,-2.8353,-2.8353,-2.873,-2.8886,-2.8886,-2.8886,-2.8886,-2.9266,-2.9844,-2.9947,-3.0217,-3.0481,-3.0612,-3.0671,-3.07,-3.0642,-3.0612,-3.0475,-3.0334,-3.0211,-2.9866,-2.9793,-2.9764,-2.9749,-2.9778,-3.0064,-3.0225,-3.0115,-3.0144,-3.0466,-3.0334,-3.0261,-3.0671,-3.0525,-3.0583,-3.0759,-3.0817,-3.0817,-3.0817,-3.0817,-3.0817,-3.0817,-3.0817,-3.0817,-3.0817,-3.0817,-3.0817,-3.0817,-3.0817,-3.0817,-3.0817,-3.0817,-3.0817,-3.0817,-3.0817,-3.0817,-3.0817,-3.0817,-3.0817,-3.09,-3.1067,-3.1316,-3.2046,-3.2211,-3.2128,-3.2376,-3.3624,-3.4702,-3.4702,-3.4865,-3.545,-3.5855,-3.6016,-3.6097,-3.6097,-3.6097,-3.6097,-3.6097,-3.6097,-3.6097,-3.6097,-3.6097,-3.6097,-3.6097,-3.6097,-3.6097,-3.6029,-3.596,-3.5943,-3.5823,-3.5669,-3.5498,-3.5412,-3.5361,-3.5189,-3.495,-3.4847,-3.4761,-2.64,-2.64,-2.64,-2.64,-2.64,-2.64,-2.64,-2.64,-2.64,-2.64,-2.6465,-2.7018,-2.7574,-2.8174,-2.8389,-2.8625,-2.8933,-2.8611,-2.851,-2.8808,-2.8886,-2.8886,-2.8886,-2.893,-2.9237,-2.9705,-3.0005,-3.0217,-3.0627,-3.0817,-3.0817,-3.0817,-3.0817,-3.0759,-3.0598,-3.0612,-3.0422,-3.0173,-2.9998,-2.9968,-3.0167,-3.024,-3.029,-3.0583,-3.0451,-3.0568,-3.0642,-3.0627,-3.051,-3.0803,-3.0656,-3.0671,-3.0788,-3.0817,-3.0817,-3.0817,-3.0817,-3.0817,-3.0817,-3.0817,-3.0817,-3.0817,-3.0817,-3.0817,-3.0817,-3.0817,-3.0817,-3.0817,-3.0817,-3.0817,-3.0817,-3.0817,-3.0817,-3.0817,-3.0817,-3.115,-3.1233,-3.115,-3.1482,-3.2376,-3.3198,-3.3116,-3.3198,-3.4115,-3.4865,-3.4783,-3.5109,-3.5612,-3.5935,-3.6016,-3.6097,-3.6097,-3.6097,-3.6097,-3.6097,-3.6097,-3.6097,-3.6097,-3.6097,-3.6097,-3.6097,-3.6097,-3.6097,-3.6097,-3.6046,-3.6046,-3.608,-3.5977,-3.5789,-3.5737,-3.572,-3.5515,-3.5344,-3.5241,-3.5138,-2.6333,-2.6386,-2.64,-2.64,-2.64,-2.64,-2.64,-2.64,-2.64,-2.64,-2.6571,-2.7035,-2.7941,-2.8776,-2.8741,-2.8885,-2.9339,-2.8726,-2.866,-2.8773,-2.8886,-2.8886,-2.893,-2.8988,-2.9325,-2.9947,-3.0079,-3.032,-3.0656,-3.0817,-3.0817,-3.0817,-3.0817,-3.0803,-3.0817,-3.0788,-3.0656,-3.0481,-3.0276,-3.029,-3.0422,-3.0466,-3.0598,-3.0744,-3.0817,-3.0817,-3.0817,-3.0803,-3.0803,-3.0817,-3.0803,-3.0788,-3.0817,-3.0817,-3.0817,-3.0817,-3.0817,-3.0817,-3.0817,-3.0817,-3.0817,-3.0817,-3.0817,-3.0817,-3.0817,-3.0817,-3.0817,-3.0817,-3.0817,-3.0817,-3.0817,-3.0817,-3.0817,-3.0817,-3.0817,-3.1233,-3.1565,-3.1482,-3.1813,-3.287,-3.3608,-3.4197,-3.436,-3.4783,-3.5027,-3.4946,-3.5288,-3.5855,-3.6016,-3.6097,-3.6097,-3.6097,-3.6097,-3.6097,-3.6097,-3.6097,-3.6097,-3.6097,-3.6097,-3.6097,-3.6097,-3.6097,-3.6097,-3.6097,-3.6097,-3.6097,-3.608,-3.6097,-3.6097,-3.5977,-3.5892,-3.5857,-3.5755,-3.5635,-3.5481,-2.6146,-2.64,-2.64,-2.64,-2.64,-2.64,-2.64,-2.64,-2.64,-2.64,-2.6625,-2.753,-2.8608,-2.9413,-2.9332,-2.9174,-2.9398,-2.8878,-2.8834,-2.8895,-2.89,-2.8915,-2.9003,-2.9208,-2.95,-2.9895,-3.0196,-3.0451,-3.0744,-3.0817,-3.0817,-3.0817,-3.0817,-3.0817,-3.0817,-3.0817,-3.0803,-3.0715,-3.0627,-3.0642,-3.0715,-3.0744,-3.0773,-3.0788,-3.0817,-3.0817,-3.0817,-3.0817,-3.0817,-3.0817,-3.0817,-3.0817,-3.0817,-3.0817,-3.0817,-3.0817,-3.0817,-3.0817,-3.0817,-3.0817,-3.0817,-3.0817,-3.0817,-3.0817,-3.0817,-3.0817,-3.0817,-3.0861,-3.092,-3.092,-3.089,-3.0832,-3.0905,-3.0905,-3.089,-3.1067,-3.1482,-3.1647,-3.2128,-3.3281,-3.3952,-3.436,-3.5109,-3.5433,-3.5433,-3.5288,-3.5288,-3.5774,-3.6016,-3.6097,-3.6097,-3.6097,-3.6097,-3.6097,-3.6097,-3.6097,-3.6097,-3.6097,-3.6097,-3.6097,-3.6097,-3.6097,-3.6097,-3.6097,-3.6097,-3.6097,-3.6097,-3.6097,-3.6097,-3.6097,-3.6063,-3.5994,-3.5926,-3.5789,-3.5669,-2.6132,-2.6386,-2.64,-2.64,-2.64,-2.64,-2.64,-2.64,-2.64,-2.6665,-2.7146,-2.7842,-2.8617,-2.9267,-2.9601,-2.9485,-2.9326,-2.9203,-2.9035,-2.891,-2.89,-2.9003,-2.9164,-2.9354,-2.9632,-3.0056,-3.0387,-3.051,-3.0788,-3.0817,-3.0817,-3.0817,-3.0817,-3.0817,-3.0817,-3.0817,-3.0817,-3.0817,-3.0817,-3.0817,-3.0817,-3.0817,-3.0817,-3.0817,-3.0817,-3.0817,-3.0817,-3.0817,-3.0817,-3.0817,-3.0817,-3.0817,-3.0817,-3.0817,-3.0817,-3.0817,-3.0817,-3.0817,-3.0817,-3.0817,-3.0817,-3.0817,-3.0817,-3.0832,-3.0846,-3.0832,-3.0949,-3.1037,-3.1124,-3.1154,-3.1388,-3.1256,-3.1139,-3.1081,-3.1076,-3.114,-3.1345,-3.1594,-3.2376,-3.3542,-3.4033,-3.436,-3.519,-3.6016,-3.5855,-3.5693,-3.5693,-3.5693,-3.5935,-3.6097,-3.6097,-3.6097,-3.6097,-3.6097,-3.6097,-3.6097,-3.6097,-3.6097,-3.6097,-3.6097,-3.6097,-3.6097,-3.6097,-3.6097,-3.6097,-3.6097,-3.6097,-3.6097,-3.6097,-3.6097,-3.6097,-3.608,-3.6011,-3.5926,-3.5857,-2.5999,-2.6266,-2.636,-2.64,-2.64,-2.64,-2.64,-2.64,-2.64,-2.6878,-2.7723,-2.8127,-2.861,-2.9275,-2.977,-2.9673,-2.9367,-2.9217,-2.9108,-2.9032,-2.893,-2.9032,-2.9222,-2.9471,-2.9764,-3.0188,-3.0466,-3.0656,-3.0817,-3.0817,-3.0817,-3.0817,-3.0817,-3.0817,-3.0817,-3.0817,-3.0817,-3.0817,-3.0817,-3.0817,-3.0817,-3.0817,-3.0817,-3.0817,-3.0817,-3.0817,-3.0817,-3.0817,-3.0817,-3.0817,-3.0817,-3.0817,-3.0817,-3.0817,-3.0817,-3.0817,-3.0817,-3.0817,-3.0832,-3.0817,-3.0817,-3.0817,-3.0817,-3.0876,-3.0934,-3.0978,-3.1139,-3.1402,-3.1461,-3.1549,-3.1798,-3.1563,-3.1446,-3.1417,-3.1168,-3.1219,-3.1381,-3.1699,-3.2685,-3.3788,-3.4115,-3.4604,-3.5271,-3.6097,-3.6016,-3.5935,-3.5935,-3.5855,-3.6016,-3.6097,-3.6097,-3.6097,-3.6097,-3.6097,-3.6097,-3.6097,-3.6097,-3.6097,-3.6097,-3.6097,-3.6097,-3.6097,-3.6097,-3.6097,-3.6097,-3.6097,-3.6097,-3.6097,-3.6097,-3.6097,-3.6097,-3.6097,-3.608,-3.6011,-3.6046,-2.5705,-2.5985,-2.6266,-2.64,-2.64,-2.64,-2.64,-2.64,-2.64,-2.7037,-2.7964,-2.8375,-2.8942,-2.9528,-2.9961,-2.9803,-2.9334,-2.9272,-2.9196,-2.8997,-2.8988,-2.8959,-2.9178,-2.9529,-2.9925,-3.0027,-3.0407,-3.0744,-3.0817,-3.0817,-3.0817,-3.0817,-3.0817,-3.0817,-3.0817,-3.0817,-3.0817,-3.0817,-3.0817,-3.0817,-3.0817,-3.0817,-3.0817,-3.0817,-3.0817,-3.0817,-3.0817,-3.0817,-3.0817,-3.0817,-3.0817,-3.0817,-3.0817,-3.0817,-3.0817,-3.0817,-3.0817,-3.0832,-3.0846,-3.0832,-3.0846,-3.0861,-3.0876,-3.0993,-3.1212,-3.1315,-3.1446,-3.1739,-3.1739,-3.1783,-3.1812,-3.1754,-3.1695,-3.1607,-3.1359,-3.1095,-3.1342,-3.145,-3.2339,-3.3281,-3.4197,-3.5027,-3.5595,-3.6097,-3.6097,-3.6097,-3.6097,-3.6097,-3.6097,-3.6097,-3.6097,-3.6097,-3.6097,-3.6097,-3.6097,-3.6097,-3.6097,-3.6097,-3.6097,-3.6097,-3.6097,-3.6097,-3.6097,-3.6097,-3.6097,-3.6097,-3.6097,-3.6097,-3.6097,-3.6097,-3.6097,-3.6097,-3.6097,-3.6097,-3.6097,-2.5692,-2.6063,-2.6266,-2.64,-2.64,-2.64,-2.64,-2.64,-2.6492,-2.7023,-2.795,-2.8431,-2.8821,-2.9377,-3.013,-3.017,-2.9303,-2.9572,-2.9573,-2.9345,-2.935,-2.9208,-2.9477,-3.0019,-3.0225,-3.029,-3.0627,-3.0817,-3.0817,-3.0817,-3.0817,-3.0817,-3.0817,-3.0817,-3.0817,-3.0817,-3.0817,-3.0817,-3.0817,-3.0817,-3.0817,-3.0817,-3.0817,-3.0817,-3.0817,-3.0817,-3.0817,-3.0817,-3.0817,-3.0817,-3.0817,-3.0817,-3.0817,-3.0817,-3.0817,-3.0832,-3.0832,-3.0934,-3.1066,-3.1139,-3.1037,-3.0993,-3.1051,-3.1198,-3.1315,-3.1534,-3.1783,-3.1973,-3.1959,-3.2061,-3.2324,-3.1754,-3.1563,-3.1607,-3.1388,-3.1037,-3.1042,-3.1028,-3.1565,-3.2458,-3.3363,-3.48,-3.5727,-3.6016,-3.6097,-3.6097,-3.6097,-3.6097,-3.6097,-3.6097,-3.6097,-3.6097,-3.6097,-3.6097,-3.6097,-3.6097,-3.6097,-3.6097,-3.6097,-3.6097,-3.6097,-3.6097,-3.6097,-3.6097,-3.6097,-3.6097,-3.6097,-3.6097,-3.6097,-3.6097,-3.6097,-3.6097,-3.6097,-3.6097,-3.6097,-2.5625,-2.5838,-2.6226,-2.64,-2.64,-2.64,-2.64,-2.64,-2.64,-2.7023,-2.7964,-2.8351,-2.9066,-2.9939,-3.086,-3.0957,-2.9977,-3.0549,-3.0771,-3.0469,-3.0333,-3.0536,-3.0699,-3.0836,-3.0899,-3.0765,-3.0642,-3.0817,-3.0817,-3.0817,-3.0817,-3.0817,-3.0817,-3.0817,-3.0817,-3.0817,-3.0817,-3.0817,-3.0817,-3.0817,-3.0817,-3.0817,-3.0817,-3.0817,-3.0817,-3.0817,-3.0817,-3.0817,-3.0817,-3.0817,-3.0817,-3.0817,-3.09,-3.0817,-3.0817,-3.0832,-3.0964,-3.1139,-3.1388,-3.1476,-3.1373,-3.1271,-3.1388,-3.152,-3.1637,-3.1871,-3.2134,-3.2266,-3.2178,-3.2354,-3.25,-3.1856,-3.1812,-3.1885,-3.1695,-3.1359,-3.1326,-3.1425,-3.1583,-3.2388,-3.3486,-3.4801,-3.5811,-3.597,-3.6097,-3.6097,-3.6097,-3.6131,-3.6131,-3.6097,-3.6097,-3.6097,-3.6097,-3.6097,-3.6097,-3.6097,-3.6097,-3.6097,-3.6097,-3.6097,-3.6097,-3.6097,-3.6097,-3.6097,-3.6097,-3.6097,-3.6097,-3.6097,-3.6097,-3.6097,-3.6097,-3.6097,-3.6097,-3.6097,-3.6097,-2.5518,-2.5611,-2.6146,-2.64,-2.64,-2.64,-2.64,-2.64,-2.64,-2.7023,-2.8109,-2.8027,-2.9147,-3.1314,-3.2273,-3.2094,-3.1543,-3.2011,-3.2094,-3.2126,-3.1685,-3.1921,-3.211,-3.2408,-3.164,-3.0877,-3.071,-3.0984,-3.09,-3.1798,-3.1715,-3.1301,-3.1467,-3.1384,-3.1316,-3.0984,-3.09,-3.0817,-3.0817,-3.0817,-3.0817,-3.0817,-3.0817,-3.0817,-3.0817,-3.0817,-3.0817,-3.0817,-3.0984,-3.1067,-3.1067,-3.1067,-3.1067,-3.0915,-3.0915,-3.1116,-3.145,-3.2124,-3.2152,-3.2312,-3.1957,-3.1898,-3.1841,-3.2032,-3.2134,-3.2222,-3.2427,-3.2544,-3.2515,-3.2617,-3.2632,-3.2529,-3.2441,-3.2354,-3.2222,-3.2133,-3.2116,-3.2226,-3.2414,-3.3053,-3.4132,-3.5229,-3.6099,-3.6388,-3.6371,-3.6303,-3.6354,-3.644,-3.6405,-3.6131,-3.6114,-3.6097,-3.6097,-3.6097,-3.6097,-3.6114,-3.6097,-3.6097,-3.6097,-3.6097,-3.6097,-3.6097,-3.6097,-3.6097,-3.6097,-3.6097,-3.6097,-3.6097,-3.6097,-3.6097,-3.6097,-3.6097,-3.6097,-3.6097,-3.6097,-2.5638,-2.5865,-2.6239,-2.64,-2.64,-2.64,-2.64,-2.64,-2.64,-2.7023,-2.8123,-2.7946,-2.954,-3.1559,-3.234,-3.232,-3.2348,-3.2263,-3.2316,-3.2491,-3.29,-3.2394,-3.2539,-3.2986,-3.2057,-3.125,-3.0957,-3.1798,-3.2772,-3.3576,-3.4294,-3.4457,-3.3183,-3.2772,-3.2211,-3.1482,-3.1233,-3.0984,-3.1067,-3.0817,-3.0817,-3.0817,-3.0817,-3.0817,-3.0817,-3.0817,-3.0984,-3.0984,-3.1399,-3.2458,-3.2623,-3.3019,-3.4474,-3.3651,-3.3125,-3.3573,-3.447,-3.5287,-3.4337,-3.4088,-3.3822,-3.3051,-3.2762,-3.2339,-3.2412,-3.2646,-3.2823,-3.269,-3.2646,-3.2646,-3.2632,-3.2588,-3.2544,-3.2471,-3.2339,-3.2309,-3.2206,-3.2261,-3.2468,-3.3206,-3.4298,-3.5475,-3.6338,-3.6833,-3.6782,-3.6662,-3.6628,-3.6731,-3.6696,-3.644,-3.632,-3.6303,-3.6268,-3.632,-3.6183,-3.6166,-3.6131,-3.6097,-3.6131,-3.6131,-3.6097,-3.6097,-3.6097,-3.6097,-3.6097,-3.6097,-3.6097,-3.6097,-3.6097,-3.6097,-3.6097,-3.6097,-3.6097,-3.6097,-3.6097,-2.5692,-2.6063,-2.6266,-2.64,-2.64,-2.64,-2.64,-2.6544,-2.7227,-2.8339,-2.9606,-2.9209,-3.0483,-3.3162,-3.3629,-3.3855,-3.4375,-3.4705,-3.4862,-3.5185,-3.4374,-3.4817,-3.4767,-3.4769,-3.4406,-3.3238,-3.278,-3.374,-3.4555,-3.5187,-3.5914,-3.5672,-3.4717,-3.4555,-3.4148,-3.3658,-3.3167,-3.2525,-3.1798,-3.1067,-3.09,-3.0984,-3.0817,-3.0984,-3.0984,-3.1233,-3.1798,-3.1798,-3.2788,-3.4197,-3.4474,-3.4997,-3.6204,-3.5526,-3.5392,-3.5906,-3.6409,-3.6795,-3.6382,-3.6293,-3.5751,-3.5186,-3.4828,-3.4965,-3.415,-3.3934,-3.3322,-3.2749,-3.2632,-3.2529,-3.25,-3.2485,-3.2485,-3.2471,-3.2354,-3.2237,-3.2149,-3.209,-3.2636,-3.3294,-3.4344,-3.5534,-3.6325,-3.6911,-3.7176,-3.7005,-3.6936,-3.7005,-3.7005,-3.6868,-3.6765,-3.6748,-3.6662,-3.6594,-3.644,-3.6303,-3.632,-3.632,-3.632,-3.6303,-3.6183,-3.6114,-3.6114,-3.6114,-3.6097,-3.6097,-3.6097,-3.6097,-3.6097,-3.6097,-3.6097,-3.6097,-3.6097,-3.6097,-3.6097,-2.5732,-2.609,-2.6279,-2.6544,-2.6623,-2.6544,-2.6623,-2.7004,-2.892,-3.05,-3.1543,-3.0877,-3.2412,-3.497,-3.516,-3.5668,-3.6268,-3.6742,-3.6905,-3.8377,-3.7156,-3.6988,-3.7463,-3.8292,-3.6505,-3.6138,-3.5833,-3.5349,-3.6075,-3.6877,-3.7295,-3.6396,-3.6236,-3.6236,-3.6075,-3.5511,-3.5025,-3.462,-3.3249,-3.2031,-3.1798,-3.1482,-3.1233,-3.1467,-3.1715,-3.2128,-3.3183,-3.3935,-3.4441,-3.5761,-3.6598,-3.6903,-3.721,-3.7877,-3.8097,-3.8258,-3.8715,-3.8621,-3.8576,-3.8305,-3.8084,-3.7878,-3.8152,-3.7518,-3.6399,-3.4766,-3.3865,-3.3455,-3.335,-3.2823,-3.2632,-3.2632,-3.2632,-3.2617,-3.2559,-3.25,-3.2471,-3.2572,-3.2862,-3.3527,-3.4204,-3.5414,-3.6542,-3.7031,-3.7283,-3.718,-3.7381,-3.7433,-3.7381,-3.733,-3.7176,-3.7142,-3.6987,-3.685,-3.6696,-3.6594,-3.6611,-3.6594,-3.6577,-3.6577,-3.6542,-3.6371,-3.6131,-3.6114,-3.6097,-3.6097,-3.6097,-3.6097,-3.6097,-3.6097,-3.6097,-3.6097,-3.6097,-3.6097,-3.6097,-2.6026,-2.6293,-2.636,-2.7083,-2.8011,-2.6939,-2.7933,-3.0145,-3.1284,-3.1336,-3.0886,-3.1716,-3.3545,-3.6184,-3.628,-3.679,-3.7672,-3.8131,-3.8039,-3.8246,-3.8084,-3.8353,-3.8319,-3.879,-3.7737,-3.6557,-3.6155,-3.7037,-3.7932,-3.898,-3.9786,-3.9629,-3.8822,-3.8011,-3.7914,-3.7197,-3.6477,-3.6557,-3.5753,-3.4782,-3.4782,-3.4782,-3.4782,-3.462,-3.4701,-3.4653,-3.5369,-3.5781,-3.6841,-3.8132,-3.878,-3.9186,-3.9411,-4.0857,-4.1016,-4.0665,-4.1222,-4.1026,-4.0577,-4.021,-3.9872,-3.8835,-3.8494,-3.8323,-3.7466,-3.5842,-3.4813,-3.4391,-3.388,-3.3367,-3.2763,-3.2763,-3.2763,-3.2763,-3.2763,-3.2763,-3.2763,-3.3058,-3.3247,-3.3759,-3.4283,-3.5303,-3.6448,-3.6995,-3.725,-3.7573,-3.7947,-3.8083,-3.8015,-3.7929,-3.7587,-3.7467,-3.7261,-3.709,-3.6953,-3.6953,-3.7022,-3.6953,-3.6902,-3.6902,-3.6902,-3.6696,-3.6474,-3.62,-3.6097,-3.62,-3.6234,-3.6097,-3.6097,-3.6148,-3.6097,-3.6097,-3.6097,-3.6097,-3.6097,-2.6588,-2.7541,-2.831,-2.87,-2.8778,-2.8622,-2.9759,-3.159,-3.2961,-3.3002,-3.2284,-3.3459,-3.5184,-3.7054,-3.7095,-3.788,-3.879,-3.9177,-3.9448,-3.9448,-3.912,-3.9391,-3.9386,-3.9497,-3.9415,-3.8426,-3.8426,-3.9059,-3.9707,-4.0353,-4.0919,-4.1094,-4.0021,-3.9629,-3.9531,-3.8645,-3.817,-3.8426,-3.817,-3.8091,-3.7773,-3.7117,-3.6155,-3.5994,-3.6092,-3.6466,-3.7337,-3.7791,-3.8904,-4.0148,-4.109,-4.1487,-4.1853,-4.2582,-4.2779,-4.2602,-4.2844,-4.3278,-4.2428,-4.1909,-4.1574,-4.0632,-4.053,-4.0969,-4.08,-3.9175,-3.6707,-3.6188,-3.4987,-3.4303,-3.3102,-3.2763,-3.2763,-3.2763,-3.2763,-3.2763,-3.2763,-3.2911,-3.3322,-3.4025,-3.455,-3.5114,-3.6129,-3.6903,-3.7246,-3.7862,-3.8289,-3.8306,-3.8323,-3.8323,-3.8032,-3.7827,-3.7621,-3.7484,-3.7398,-3.7433,-3.7501,-3.7398,-3.721,-3.7193,-3.7159,-3.7005,-3.6816,-3.6611,-3.6474,-3.6491,-3.6474,-3.6354,-3.6303,-3.6371,-3.6234,-3.6097,-3.6097,-3.6114,-3.6114,-2.7537,-2.9293,-3.0685,-3.0685,-2.9774,-3.07,-3.1606,-3.2505,-3.4111,-3.4689,-3.4505,-3.5669,-3.7031,-3.759,-3.7951,-3.9187,-4.0004,-4.0202,-4.0686,-4.0783,-4.055,-4.0473,-4.0666,-4.0997,-4.0685,-4.0607,-4.0607,-4.0607,-4.0919,-4.1172,-4.1172,-4.1172,-4.1172,-4.1172,-4.1172,-4.1094,-4.0685,-4.0529,-4.0431,-4.0841,-3.9786,-3.8426,-3.7534,-3.6877,-3.6832,-3.7748,-3.8963,-3.9882,-4.0792,-4.1675,-4.2667,-4.2915,-4.3147,-4.3429,-4.3531,-4.3443,-4.3443,-4.3609,-4.3443,-4.3278,-4.3361,-4.3361,-4.3691,-4.3526,-4.3029,-4.1742,-3.9278,-3.774,-3.6605,-3.5233,-3.4055,-3.3205,-3.3205,-3.2763,-3.2763,-3.2763,-3.2763,-3.2763,-3.3382,-3.3998,-3.4422,-3.4931,-3.5803,-3.6584,-3.7275,-3.7894,-3.8323,-3.8323,-3.8323,-3.8323,-3.8186,-3.8118,-3.8032,-3.7929,-3.7758,-3.7827,-3.7878,-3.7707,-3.7518,-3.7484,-3.7416,-3.733,-3.721,-3.7073,-3.6987,-3.6885,-3.6799,-3.6696,-3.6662,-3.6611,-3.6611,-3.6474,-3.6148,-3.6148,-3.6148,-2.9326,-3.0839,-3.1223,-3.1835,-3.2522,-3.1835,-3.2293,-3.3885,-3.4579,-3.4888,-3.5544,-3.7118,-3.8347,-3.8614,-3.9203,-4.0067,-4.0724,-4.0996,-4.1055,-4.1094,-4.1016,-4.1094,-4.1152,-4.1172,-4.1172,-4.1172,-4.1172,-4.1172,-4.1172,-4.1172,-4.1172,-4.1172,-4.1172,-4.1172,-4.1172,-4.1172,-4.1172,-4.1172,-4.1172,-4.1172,-4.1191,-4.0372,-4.0451,-4.0197,-4.0197,-4.0719,-4.1264,-4.1631,-4.2198,-4.2848,-4.3301,-4.3555,-4.3652,-4.3691,-4.3691,-4.3691,-4.3691,-4.3691,-4.3691,-4.3691,-4.3691,-4.3691,-4.3691,-4.3691,-4.3443,-4.3361,-4.1407,-4.0126,-3.8835,-3.7036,-3.5858,-3.4916,-3.4581,-3.3367,-3.2763,-3.2763,-3.2763,-3.2763,-3.3029,-3.3293,-3.347,-3.4406,-3.5526,-3.6221,-3.6929,-3.7533,-3.8323,-3.8323,-3.8323,-3.8323,-3.8323,-3.8323,-3.8323,-3.8101,-3.7827,-3.8066,-3.8118,-3.7964,-3.7844,-3.7827,-3.7775,-3.769,-3.7587,-3.7484,-3.7313,-3.7176,-3.709,-3.709,-3.6919,-3.6885,-3.7022,-3.6919,-3.6491,-3.6268,-3.6354]},{"header":{"parameterUnit":"m.s-1","parameterCategory":1,"la1":31.0,"la2":29.5877,"lo1":-88.7671,"lo2":-86.6584,"dx":0.0162,"dy":0.0185,"nx":115,"ny":88,"refTime":"2022-11-21T18:00:00:Z","depth":0,"parameterNumber":3,"parameterNumberName":"V-component_of_WINDS"},"data":[0.0,0.0,0.0,0.0,0.0,0.0,0.0,0.0,0.0,0.0,0.0,0.0,0.0,0.0,0.0,0.0,0.0,0.0,0.0,0.0,0.0,0.0,0.0,0.0,0.0,0.0,0.0,0.0,0.0,0.0,0.0,0.0,0.0,0.0,0.0,0.0,0.0,0.0,0.0,0.0,0.0,0.0,0.0,0.0,0.0,0.0,0.0,0.0,0.0,0.0,0.0,0.0,0.0,0.0,0.0,0.0,0.0,0.0,0.0,0.0,0.0,0.0,0.0,0.0,0.0,0.0,0.0,0.0,0.0,0.0,0.0,0.0,0.0,0.0,0.0,0.0,0.0,0.0,0.0,0.0,0.0,0.0,0.0,0.0,0.0,0.0,0.0,0.0,0.0,0.0,0.0,0.0,0.0,0.0,0.0,0.0,0.0,0.0,0.0,0.0,0.0,0.0,0.0,0.0,0.0,0.0,0.0,0.0,0.0,0.0,0.0,0.0,0.0,0.0,0.0,0.0,0.0,0.0,0.0,0.0,0.0,0.0,0.0,0.0,0.0,0.0,0.0,0.0,0.0,0.0,0.0,0.0,0.0,0.0,0.0,0.0,0.0,0.0,0.0,0.0,0.0,0.0,0.0,0.0,0.0,0.0,0.0,0.0,0.0,0.0,0.0,0.0,0.0,0.0,0.0,0.0,0.0,0.0,0.0,0.0,0.0,0.0,0.0,0.0,0.0,0.0,0.0,0.0,0.0,0.0,0.0,0.0,0.0,0.0,0.0,0.0,0.0,0.0,0.0,0.0,0.0,0.0,0.0,0.0,0.0,0.0,0.0,0.0,0.0,0.0,0.0,0.0,0.0,0.0,0.0,0.0,0.0,0.0,0.0,0.0,0.0,0.0,0.0,0.0,0.0,0.0,0.0,0.0,0.0,0.0,0.0,0.0,0.0,0.0,0.0,0.0,0.0,0.0,0.0,0.0,0.0,0.0,0.0,0.0,0.0,0.0,0.0,0.0,0.0,0.0,0.0,0.0,0.0,0.0,0.0,0.0,0.0,0.0,0.0,0.0,0.0,0.0,0.0,0.0,0.0,0.0,0.0,0.0,0.0,0.0,0.0,0.0,0.0,0.0,0.0,0.0,0.0,0.0,0.0,0.0,0.0,0.0,0.0,0.0,0.0,0.0,0.0,0.0,0.0,0.0,0.0,0.0,0.0,0.0,0.0,0.0,0.0,0.0,0.0,0.0,0.0,0.0,0.0,0.0,0.0,0.0,0.0,0.0,0.0,0.0,0.0,0.0,0.0,0.0,0.0,0.0,0.0,0.0,0.0,0.0,0.0,0.0,0.0,0.0,0.0,0.0,0.0,0.0,0.0,0.0,0.0,0.0,0.0,0.0,0.0,0.0,0.0,0.0,0.0,0.0,0.0,0.0,0.0,0.0,0.0,0.0,0.0,0.0,0.0,0.0,0.0,0.0,0.0,0.0,0.0,0.0,0.0,0.0,0.0,0.0,0.0,0.0,0.0,0.0,0.0,0.0,0.0,0.0,0.0,0.0,0.0,0.0,0.0,0.0,0.0,0.0,0.0,0.0,0.0,0.0,0.0,0.0,0.0,0.0,0.0,0.0,0.0,0.0,0.0,0.0,0.0,0.0,0.0,0.0,0.0,0.0,0.0,0.0,0.0,0.0,0.0,0.0,0.0,0.0,0.0,0.0,0.0,0.0,0.0,0.0,0.0,0.0,0.0,0.0,0.0,0.0,0.0,0.0,0.0,0.0,0.0,0.0,0.0,0.0,0.0,0.0,0.0,0.0,0.0,0.0,0.0,0.0,0.0,0.0,0.0,0.0,0.0,0.0,0.0,0.0,0.0,0.0,0.0,0.0,0.0,0.0,0.0,0.0,0.0,0.0,0.0,0.0,0.0,0.0,0.0,0.0,0.0,0.0,0.0,0.0,0.0,0.0,0.0,0.0,0.0,0.0,0.0,0.0,0.0,0.0,0.0,0.0,0.0,0.0,0.0,0.0,0.0,0.0,0.0,0.0,0.0,0.0,0.0,0.0,0.0,0.0,0.0,0.0,0.0,0.0,0.0,0.0,0.0,0.0,0.0,0.0,0.0,0.0,0.0,0.0,0.0,0.0,0.0,0.0,0.0,0.0,0.0,0.0,0.0,0.0,0.0,0.0,0.0,0.0,0.0,0.0,0.0,0.0,0.0,0.0,0.0,0.0,0.0,0.0,0.0,0.0,0.0,0.0,0.0,0.0,0.0,0.0,0.0,0.0,0.0,0.0,0.0,0.0,0.0,0.0,0.0,0.0,0.0,0.0,0.0,0.0,0.0,0.0,0.0,0.0,0.0,0.0,0.0,0.0,0.0,0.0,0.0,0.0,0.0,0.0,0.0,0.0,0.0,0.0,0.0,0.0,0.0,0.0,0.0,0.0,0.0,0.0,0.0,0.0,0.0,0.0,0.0,0.0,0.0,0.0,0.0,0.0,0.0,0.0,0.0,0.0,0.0,0.0,0.0,0.0,0.0,0.0,0.0,0.0,0.0,0.0,0.0,0.0,0.0,0.0,0.0,0.0,0.0,0.0,0.0,0.0,0.0,0.0,0.0,0.0,0.0,0.0,0.0,0.0,0.0,0.0,0.0,0.0,0.0,0.0,0.0,0.0,0.0,0.0,0.0,0.0,0.0,0.0,0.0,0.0,0.0,0.0,0.0,0.0,0.0,0.0,0.0,0.0,0.0,0.0,0.0,0.0,0.0,0.0,0.0,0.0,0.0,0.0,0.0,0.0,0.0,0.0,0.0,0.0,0.0,0.0,0.0,0.0,0.0,0.0,0.0,0.0,0.0,0.0,0.0,0.0,0.0,0.0,0.0,0.0,0.0,0.0,0.0,0.0,0.0,0.0,0.0,0.0,0.0,0.0,0.0,0.0,0.0,0.0,0.0,0.0,0.0,0.0,0.0,0.0,0.0,0.0,0.0,0.0,0.0,0.0,0.0,0.0,0.0,0.0,0.0,0.0,0.0,0.0,0.0,0.0,0.0,0.0,0.0,0.0,0.0,0.0,0.0,0.0,0.0,0.0,0.0,0.0,0.0,0.0,0.0,0.0,0.0,0.0,0.0,0.0,0.0,0.0,0.0,0.0,0.0,0.0,0.0,0.0,0.0,0.0,0.0,0.0,0.0,0.0,0.0,0.0,0.0,0.0,0.0,0.0,0.0,0.0,0.0,0.0,0.0,0.0,0.0,0.0,0.0,0.0,0.0,0.0,0.0,0.0,0.0,0.0,0.0,0.0,0.0,0.0,0.0,0.0,0.0,0.0,0.0,0.0,0.0,0.0,0.0,0.0,0.0,0.0,0.0,0.0,0.0,0.0,0.0,0.0,0.0,0.0,0.0,0.0,0.0,0.0,0.0,0.0,0.0,0.0,0.0,0.0,0.0,0.0,0.0,0.0,0.0,0.0,0.0,0.0,0.0,0.0,0.0,0.0,0.0,0.0,0.0,0.0,0.0,0.0,0.0,0.0,0.0,0.0,0.0,0.0,0.0,0.0,0.0,0.0,0.0,0.0,0.0,0.0,0.0,0.0,0.0,0.0,0.0,0.0,0.0,0.0,0.0,0.0,0.0,0.0,0.0,0.0,0.0,0.0,0.0,0.0,0.0,0.0,0.0,0.0,0.0,0.0,0.0,0.0,0.0,0.0,0.0,0.0,0.0,0.0,0.0,0.0,0.0,0.0,0.0,0.0,0.0,0.0,0.0,0.0,0.0,0.0,0.0,0.0,0.0,0.0,0.0,0.0,0.0,0.0,0.0,0.0,0.0,0.0,0.0,0.0,0.0,0.0,0.0,0.0,0.0,0.0,0.0,0.0,0.0,0.0,0.0,0.0,0.0,0.0,0.0,0.0,0.0,0.0,0.0,0.0,0.0,0.0,0.0,0.0,0.0,0.0,0.0,0.0,0.0,0.0,0.0,0.0,0.0,0.0,0.0,0.0,0.0,0.0,0.0,0.0,0.0,0.0,0.0,0.0,0.0,0.0,0.0,0.0,0.0,0.0,0.0,0.0,0.0,0.0,0.0,0.0,0.0,0.0,0.0,0.0,0.0,0.0,0.0,0.0,0.0,0.0,0.0,0.0,0.0,0.0,0.0,0.0,0.0,0.0,0.0,0.0,0.0,0.0,0.0,0.0,0.0,0.0,0.0,0.0,0.0,0.0,0.0,0.0,0.0,0.0,0.0,0.0,0.0,0.0,0.0,0.0,2.86,0.0,0.0,0.0,2.86,0.0,0.0,0.0,0.0,0.0,0.0,0.0,0.0,0.0,0.0,0.0,0.0,0.0,0.0,0.0,0.0,0.0,0.0,0.0,0.0,0.0,0.0,0.0,0.0,0.0,0.0,0.0,0.0,0.0,0.0,0.0,0.0,0.0,0.0,0.0,0.0,0.0,0.0,0.0,0.0,0.0,0.0,0.0,0.0,0.0,0.0,0.0,0.0,0.0,0.0,0.0,0.0,0.0,0.0,0.0,0.0,0.0,0.0,0.0,0.0,0.0,0.0,0.0,0.0,0.0,0.0,0.0,0.0,0.0,0.0,0.0,0.0,0.0,0.0,0.0,0.0,0.0,0.0,0.0,0.0,0.0,0.0,0.0,0.0,0.0,0.0,0.0,0.0,0.0,0.0,0.0,0.0,0.0,0.0,0.0,0.0,0.0,0.0,0.0,0.0,0.0,0.0,0.0,0.0,0.0,0.0,0.0,0.0,0.0,0.0,2.86,2.86,2.86,2.86,2.86,0.0,0.0,0.0,0.0,0.0,0.0,0.0,0.0,0.0,0.0,0.0,0.0,0.0,0.0,0.0,0.0,0.0,0.0,0.0,0.0,0.0,0.0,0.0,0.0,0.0,0.0,0.0,0.0,0.0,0.0,0.0,0.0,0.0,0.0,0.0,0.0,0.0,0.0,0.0,0.0,0.0,0.0,0.0,0.0,0.0,0.0,0.0,0.0,0.0,0.0,0.0,0.0,0.0,0.0,0.0,0.0,0.0,0.0,0.0,0.0,0.0,0.0,0.0,0.0,0.0,0.0,0.0,0.0,0.0,0.0,0.0,0.0,0.0,0.0,0.0,0.0,0.0,0.0,0.0,0.0,0.0,0.0,0.0,0.0,0.0,0.0,0.0,0.0,0.0,0.0,0.0,0.0,0.0,0.0,0.0,0.0,0.0,0.0,0.0,0.0,0.0,0.0,0.0,0.0,0.0,0.0,0.0,0.0,0.0,0.0,0.0,0.0,2.8672,2.86,2.86,0.0,0.0,0.0,0.0,0.0,0.0,0.0,0.0,0.0,0.0,0.0,0.0,0.0,0.0,0.0,0.0,0.0,0.0,0.0,0.0,0.0,0.0,0.0,0.0,0.0,0.0,0.0,0.0,0.0,0.0,0.0,0.0,0.0,0.0,0.0,0.0,0.0,0.0,0.0,0.0,0.0,0.0,0.0,0.0,0.0,0.0,0.0,0.0,0.0,0.0,0.0,0.0,0.0,0.0,0.0,0.0,0.0,0.0,0.0,0.0,0.0,0.0,0.0,0.0,0.0,0.0,0.0,0.0,0.0,0.0,0.0,0.0,0.0,0.0,0.0,0.0,0.0,0.0,0.0,0.0,0.0,0.0,0.0,0.0,0.0,0.0,0.0,0.0,0.0,0.0,0.0,0.0,0.0,0.0,0.0,0.0,0.0,0.0,0.0,0.0,0.0,0.0,0.0,0.0,0.0,0.0,0.0,0.0,0.0,0.0,2.8962,2.9676,2.8974,0.0,2.8672,0.0,0.0,0.0,0.0,0.0,0.0,0.0,0.0,0.0,0.0,0.0,0.0,0.0,0.0,0.0,0.0,0.0,0.0,0.0,0.0,0.0,0.0,0.0,0.0,0.0,0.0,0.0,0.0,0.0,0.0,0.0,0.0,0.0,0.0,0.0,0.0,0.0,0.0,0.0,0.0,0.0,0.0,0.0,0.0,0.0,0.0,0.0,0.0,0.0,0.0,0.0,0.0,0.0,0.0,0.0,0.0,0.0,0.0,0.0,0.0,0.0,0.0,0.0,0.0,0.0,0.0,0.0,0.0,0.0,0.0,0.0,0.0,0.0,0.0,0.0,0.0,0.0,0.0,0.0,0.0,0.0,0.0,0.0,0.0,0.0,0.0,0.0,0.0,0.0,0.0,0.0,0.0,0.0,0.0,0.0,0.0,0.0,0.0,0.0,0.0,0.0,0.0,0.0,0.0,0.0,0.0,0.0,0.0,0.0,0.0,2.9735,2.9119,2.8744,2.907,0.0,0.0,0.0,0.0,0.0,0.0,0.0,0.0,0.0,0.0,0.0,0.0,0.0,0.0,0.0,0.0,0.0,0.0,0.0,0.0,0.0,0.0,0.0,0.0,0.0,0.0,0.0,0.0,0.0,0.0,0.0,0.0,0.0,0.0,0.0,0.0,0.0,0.0,0.0,0.0,0.0,0.0,0.0,0.0,0.0,0.0,0.0,0.0,0.0,0.0,0.0,0.0,0.0,0.0,0.0,0.0,0.0,0.0,0.0,0.0,0.0,0.0,0.0,0.0,0.0,0.0,0.0,0.0,0.0,0.0,0.0,0.0,0.0,0.0,0.0,0.0,0.0,0.0,0.0,0.0,0.0,0.0,0.0,0.0,0.0,0.0,0.0,0.0,0.0,0.0,0.0,0.0,0.0,0.0,0.0,0.0,0.0,0.0,0.0,0.0,0.0,0.0,0.0,0.0,0.0,0.0,0.0,0.0,0.0,0.0,3.0314,3.0097,2.9047,2.9577,2.9952,3.0025,0.0,0.0,0.0,0.0,0.0,0.0,0.0,0.0,0.0,0.0,0.0,0.0,0.0,0.0,0.0,0.0,0.0,0.0,0.0,0.0,0.0,0.0,0.0,0.0,0.0,0.0,0.0,0.0,0.0,0.0,0.0,0.0,0.0,0.0,0.0,0.0,0.0,0.0,0.0,0.0,0.0,0.0,0.0,0.0,0.0,0.0,0.0,0.0,0.0,0.0,0.0,0.0,0.0,0.0,0.0,0.0,0.0,0.0,0.0,0.0,0.0,0.0,0.0,0.0,0.0,0.0,0.0,0.0,0.0,0.0,0.0,0.0,0.0,0.0,0.0,0.0,0.0,0.0,0.0,0.0,0.0,0.0,0.0,0.0,0.0,0.0,0.0,0.0,0.0,0.0,0.0,0.0,0.0,0.0,0.0,0.0,0.0,0.0,0.0,0.0,0.0,0.0,0.0,0.0,0.0,0.0,0.0,0.0,3.1836,3.0618,2.9857,2.9893,3.1944,3.1437,0.0,0.0,0.0,0.0,0.0,0.0,0.0,0.0,0.0,0.0,0.0,0.0,0.0,0.0,0.0,0.0,0.0,0.0,0.0,0.0,0.0,0.0,0.0,0.0,0.0,0.0,0.0,0.0,0.0,0.0,0.0,0.0,0.0,0.0,0.0,0.0,0.0,0.0,0.0,0.0,0.0,0.0,0.0,0.0,0.0,0.0,0.0,0.0,0.0,0.0,0.0,0.0,0.0,0.0,0.0,0.0,0.0,0.0,0.0,0.0,0.0,0.0,0.0,0.0,0.0,0.0,0.0,0.0,0.0,0.0,0.0,0.0,0.0,0.0,0.0,0.0,0.0,0.0,0.0,0.0,0.0,0.0,0.0,0.0,0.0,0.0,0.0,0.0,0.0,0.0,0.0,0.0,0.0,0.0,0.0,0.0,0.0,0.0,0.0,0.0,0.0,0.0,0.0,0.0,0.0,0.0,0.0,0.0,0.0,3.0581,3.0618,3.1546,3.3502,3.2017,3.0894,0.0,0.0,0.0,0.0,0.0,0.0,0.0,0.0,0.0,0.0,0.0,0.0,0.0,0.0,0.0,0.0,0.0,0.0,0.0,0.0,0.0,0.0,0.0,0.0,0.0,0.0,0.0,0.0,0.0,0.0,0.0,0.0,0.0,0.0,0.0,0.0,0.0,0.0,0.0,0.0,0.0,0.0,0.0,0.0,0.0,0.0,0.0,0.0,0.0,0.0,0.0,0.0,0.0,0.0,0.0,0.0,0.0,0.0,0.0,0.0,0.0,0.0,0.0,0.0,0.0,0.0,0.0,0.0,0.0,0.0,0.0,0.0,0.0,0.0,0.0,0.0,0.0,0.0,0.0,0.0,0.0,0.0,0.0,0.0,0.0,0.0,0.0,0.0,0.0,0.0,0.0,0.0,0.0,0.0,0.0,0.0,0.0,0.0,0.0,0.0,0.0,0.0,0.0,0.0,0.0,0.0,0.0,0.0,0.0,3.0944,3.2017,3.3248,3.4443,3.227,3.0871,0.0,0.0,0.0,0.0,0.0,0.0,0.0,0.0,0.0,0.0,0.0,0.0,0.0,0.0,0.0,0.0,0.0,0.0,0.0,0.0,0.0,0.0,0.0,0.0,0.0,0.0,0.0,0.0,0.0,0.0,0.0,0.0,0.0,0.0,0.0,0.0,0.0,0.0,0.0,0.0,0.0,0.0,0.0,0.0,0.0,0.0,0.0,0.0,0.0,0.0,0.0,0.0,0.0,0.0,0.0,0.0,0.0,0.0,0.0,0.0,0.0,0.0,0.0,0.0,0.0,0.0,0.0,0.0,0.0,0.0,0.0,0.0,0.0,0.0,0.0,0.0,0.0,0.0,0.0,0.0,0.0,0.0,0.0,0.0,0.0,0.0,0.0,0.0,0.0,0.0,0.0,0.0,0.0,0.0,0.0,0.0,0.0,0.0,0.0,0.0,0.0,0.0,0.0,0.0,0.0,0.0,0.0,0.0,3.1039,3.3321,3.4899,3.4624,3.2379,3.2958,3.151,0.0,0.0,0.0,0.0,0.0,0.0,0.0,0.0,0.0,0.0,0.0,0.0,0.0,0.0,0.0,0.0,0.0,0.0,0.0,0.0,0.0,0.0,0.0,0.0,0.0,0.0,0.0,0.0,0.0,0.0,0.0,0.0,0.0,0.0,0.0,0.0,0.0,0.0,0.0,0.0,0.0,0.0,0.0,0.0,0.0,0.0,0.0,0.0,0.0,0.0,0.0,0.0,0.0,0.0,0.0,0.0,0.0,0.0,0.0,0.0,0.0,0.0,0.0,0.0,0.0,0.0,0.0,0.0,0.0,0.0,0.0,0.0,0.0,0.0,0.0,0.0,0.0,0.0,0.0,0.0,0.0,0.0,0.0,0.0,0.0,0.0,0.0,0.0,0.0,0.0,0.0,0.0,0.0,0.0,0.0,0.0,0.0,0.0,0.0,0.0,0.0,0.0,0.0,0.0,0.0,0.0,0.0,0.0,0.0,3.3465,3.4971,3.5442,3.4682,3.3321,3.1981,0.0,0.0,0.0,0.0,0.0,0.0,0.0,0.0,0.0,0.0,0.0,0.0,0.0,0.0,0.0,0.0,0.0,0.0,0.0,0.0,0.0,0.0,0.0,0.0,0.0,0.0,0.0,0.0,0.0,0.0,0.0,0.0,0.0,0.0,0.0,0.0,0.0,0.0,0.0,0.0,0.0,0.0,0.0,0.0,0.0,0.0,0.0,0.0,0.0,0.0,0.0,0.0,0.0,0.0,0.0,0.0,0.0,0.0,0.0,0.0,0.0,0.0,0.0,0.0,0.0,0.0,0.0,0.0,0.0,0.0,0.0,0.0,0.0,0.0,0.0,0.0,0.0,0.0,0.0,0.0,0.0,0.0,0.0,0.0,0.0,0.0,0.0,0.0,0.0,0.0,0.0,0.0,0.0,0.0,0.0,0.0,0.0,0.0,0.0,0.0,0.0,0.0,0.0,0.0,0.0,0.0,0.0,0.0,0.0,3.5747,3.689,3.7107,3.6254,3.419,3.2669,3.1727,0.0,0.0,0.0,0.0,0.0,0.0,0.0,0.0,0.0,0.0,0.0,0.0,0.0,0.0,0.0,0.0,0.0,0.0,0.0,0.0,0.0,0.0,0.0,0.0,0.0,0.0,0.0,0.0,0.0,0.0,0.0,0.0,0.0,0.0,0.0,0.0,0.0,0.0,0.0,0.0,0.0,0.0,0.0,0.0,0.0,0.0,0.0,0.0,0.0,0.0,0.0,0.0,0.0,0.0,0.0,0.0,0.0,0.0,0.0,0.0,0.0,0.0,0.0,0.0,0.0,0.0,0.0,0.0,0.0,0.0,0.0,0.0,0.0,0.0,0.0,0.0,0.0,0.0,0.0,0.0,0.0,0.0,0.0,0.0,0.0,0.0,0.0,0.0,0.0,0.0,0.0,0.0,0.0,0.0,0.0,0.0,0.0,0.0,0.0,0.0,0.0,0.0,0.0,0.0,0.0,0.0,0.0,0.0,3.9441,4.0238,3.9514,3.7285,3.5494,3.3574,0.0,0.0,0.0,0.0,0.0,0.0,0.0,0.0,0.0,0.0,0.0,0.0,0.0,0.0,0.0,0.0,0.0,0.0,0.0,0.0,0.0,0.0,0.0,0.0,0.0,0.0,0.0,0.0,0.0,0.0,0.0,0.0,0.0,0.0,0.0,0.0,0.0,0.0,0.0,0.0,0.0,0.0,0.0,0.0,0.0,0.0,0.0,0.0,0.0,0.0,0.0,0.0,0.0,0.0,0.0,0.0,0.0,0.0,0.0,0.0,0.0,0.0,0.0,0.0,0.0,0.0,0.0,0.0,0.0,0.0,0.0,0.0,0.0,0.0,0.0,0.0,0.0,0.0,0.0,0.0,0.0,0.0,0.0,0.0,0.0,0.0,0.0,0.0,0.0,0.0,0.0,0.0,0.0,0.0,0.0,0.0,0.0,0.0,0.0,0.0,0.0,0.0,0.0,0.0,0.0,0.0,0.0,0.0,0.0,4.0184,4.1542,4.1397,3.9586,3.6363,3.4588,0.0,0.0,0.0,0.0,0.0,0.0,0.0,0.0,0.0,0.0,0.0,0.0,0.0,0.0,0.0,0.0,0.0,0.0,0.0,0.0,0.0,0.0,0.0,0.0,0.0,0.0,0.0,0.0,0.0,0.0,0.0,0.0,0.0,0.0,0.0,0.0,0.0,0.0,0.0,0.0,0.0,0.0,0.0,0.0,0.0,0.0,0.0,0.0,0.0,0.0,0.0,0.0,0.0,0.0,0.0,0.0,0.0,0.0,0.0,0.0,0.0,0.0,0.0,0.0,0.0,0.0,0.0,0.0,0.0,0.0,0.0,0.0,0.0,0.0,0.0,0.0,0.0,0.0,0.0,0.0,0.0,0.0,0.0,0.0,0.0,0.0,0.0,0.0,0.0,0.0,0.0,0.0,0.0,0.0,0.0,0.0,0.0,0.0,0.0,0.0,0.0,0.0,0.0,0.0,0.0,0.0,0.0,0.0,4.0274,4.1506,4.2411,4.2448,4.1542,3.8319,3.6363,0.0,0.0,0.0,0.0,0.0,0.0,0.0,0.0,0.0,0.0,0.0,0.0,0.0,0.0,0.0,0.0,0.0,0.0,0.0,0.0,0.0,0.0,0.0,0.0,0.0,0.0,0.0,0.0,0.0,0.0,0.0,0.0,0.0,0.0,0.0,0.0,0.0,0.0,0.0,0.0,0.0,0.0,0.0,0.0,0.0,0.0,0.0,0.0,0.0,0.0,0.0,0.0,0.0,0.0,0.0,0.0,0.0,0.0,0.0,0.0,0.0,0.0,0.0,0.0,0.0,0.0,0.0,0.0,0.0,0.0,0.0,0.0,0.0,0.0,0.0,0.0,0.0,0.0,0.0,0.0,0.0,0.0,0.0,0.0,0.0,0.0,0.0,0.0,0.0,0.0,0.0,0.0,0.0,0.0,0.0,0.0,0.0,0.0,0.0,0.0,0.0,0.0,0.0,0.0,0.0,0.0,0.0,0.0,4.2194,4.3099,4.3155,4.3118,4.2973,4.0673,3.8319,0.0,0.0,0.0,0.0,0.0,0.0,0.0,0.0,0.0,0.0,0.0,0.0,0.0,0.0,0.0,0.0,0.0,0.0,0.0,0.0,0.0,0.0,0.0,0.0,0.0,0.0,0.0,0.0,0.0,0.0,0.0,0.0,0.0,0.0,0.0,0.0,0.0,0.0,0.0,0.0,0.0,0.0,0.0,0.0,0.0,0.0,0.0,0.0,0.0,0.0,0.0,0.0,0.0,0.0,0.0,0.0,0.0,0.0,0.0,0.0,0.0,0.0,0.0,0.0,0.0,0.0,0.0,0.0,0.0,0.0,0.0,0.0,0.0,0.0,0.0,0.0,0.0,0.0,0.0,0.0,0.0,0.0,0.0,0.0,0.0,0.0,0.0,0.0,0.0,0.0,0.0,0.0,0.0,0.0,0.0,0.0,0.0,0.0,0.0,0.0,0.0,0.0,0.0,0.0,0.0,0.0,0.0,0.0,4.2718,4.4729,4.4802,4.4476,4.3824,4.0981,3.8536,0.0,0.0,0.0,0.0,0.0,0.0,0.0,0.0,0.0,0.0,0.0,0.0,0.0,0.0,0.0,0.0,0.0,0.0,0.0,0.0,0.0,0.0,0.0,0.0,0.0,0.0,0.0,0.0,0.0,0.0,0.0,0.0,0.0,0.0,0.0,0.0,0.0,0.0,0.0,0.0,0.0,0.0,0.0,0.0,0.0,0.0,0.0,0.0,2.8874,0.0,0.0,0.0,0.0,0.0,0.0,0.0,0.0,0.0,0.0,0.0,0.0,0.0,0.0,0.0,0.0,0.0,0.0,0.0,0.0,0.0,0.0,0.0,0.0,0.0,0.0,0.0,0.0,0.0,0.0,0.0,0.0,0.0,0.0,0.0,0.0,0.0,0.0,0.0,0.0,0.0,0.0,0.0,0.0,0.0,0.0,0.0,0.0,0.0,0.0,0.0,0.0,0.0,0.0,0.0,0.0,0.0,0.0,0.0,4.3643,4.5236,4.5309,4.5091,4.4621,4.2665,4.0311,0.0,0.0,0.0,0.0,0.0,0.0,0.0,0.0,0.0,0.0,0.0,0.0,0.0,0.0,0.0,0.0,0.0,0.0,0.0,0.0,0.0,0.0,0.0,0.0,0.0,0.0,0.0,0.0,0.0,0.0,0.0,0.0,0.0,0.0,0.0,0.0,0.0,0.0,0.0,0.0,0.0,0.0,0.0,0.0,0.0,0.0,0.0,0.0,0.0,0.0,0.0,0.0,0.0,0.0,0.0,0.0,0.0,0.0,0.0,0.0,0.0,0.0,0.0,0.0,0.0,0.0,0.0,0.0,0.0,0.0,0.0,0.0,0.0,0.0,0.0,0.0,0.0,0.0,0.0,0.0,0.0,0.0,0.0,0.0,0.0,0.0,0.0,0.0,0.0,0.0,0.0,0.0,0.0,0.0,0.0,0.0,0.0,0.0,0.0,0.0,0.0,0.0,0.0,0.0,0.0,0.0,0.0,4.2448,4.4367,4.5599,4.5417,4.5345,4.5454,4.4693,4.2411,3.8553,0.0,0.0,0.0,0.0,0.0,0.0,0.0,0.0,0.0,0.0,0.0,0.0,0.0,0.0,0.0,0.0,0.0,0.0,0.0,0.0,0.0,0.0,0.0,0.0,0.0,0.0,0.0,0.0,0.0,0.0,0.0,0.0,0.0,0.0,0.0,0.0,0.0,0.0,2.7405,2.9098,0.0,0.0,0.0,0.0,0.0,0.0,0.0,0.0,3.1284,0.0,0.0,0.0,0.0,0.0,0.0,0.0,0.0,0.0,0.0,0.0,0.0,0.0,0.0,0.0,0.0,0.0,0.0,0.0,0.0,0.0,0.0,0.0,0.0,0.0,0.0,0.0,0.0,0.0,0.0,0.0,0.0,0.0,0.0,0.0,0.0,0.0,0.0,0.0,0.0,0.0,0.0,0.0,0.0,0.0,0.0,0.0,0.0,0.0,0.0,0.0,0.0,0.0,0.0,0.0,0.0,4.223,4.2194,4.3768,4.7192,4.5997,4.5635,4.625,4.5526,4.3244,3.9405,0.0,0.0,0.0,0.0,0.0,0.0,0.0,0.0,0.0,0.0,0.0,0.0,0.0,0.0,0.0,0.0,0.0,0.0,0.0,0.0,0.0,0.0,0.0,0.0,0.0,0.0,0.0,0.0,0.0,0.0,0.0,0.0,0.0,0.0,0.0,0.0,0.0,0.0,0.0,3.2631,3.3538,0.0,0.0,0.0,0.0,0.0,0.0,0.0,0.0,3.2864,0.0,0.0,0.0,0.0,0.0,0.0,0.0,0.0,0.0,0.0,0.0,0.0,0.0,0.0,0.0,0.0,0.0,0.0,0.0,0.0,0.0,0.0,0.0,0.0,0.0,0.0,0.0,0.0,0.0,0.0,0.0,0.0,0.0,0.0,0.0,0.0,0.0,0.0,0.0,0.0,0.0,0.0,0.0,0.0,0.0,0.0,0.0,0.0,0.0,0.0,0.0,0.0,0.0,0.0,0.0,4.1578,4.3732,4.5759,4.7627,4.6939,4.6721,4.7083,4.6359,4.4041,0.0,0.0,0.0,0.0,0.0,0.0,0.0,0.0,0.0,0.0,0.0,0.0,0.0,0.0,0.0,0.0,0.0,0.0,0.0,0.0,0.0,0.0,0.0,0.0,0.0,0.0,0.0,0.0,0.0,0.0,0.0,0.0,0.0,0.0,0.0,0.0,0.0,0.0,0.0,0.0,3.4147,3.5281,3.6958,0.0,0.0,0.0,0.0,0.0,0.0,3.5093,3.3944,0.0,0.0,0.0,0.0,0.0,0.0,0.0,0.0,0.0,0.0,0.0,0.0,0.0,0.0,0.0,0.0,0.0,0.0,0.0,0.0,0.0,0.0,0.0,0.0,0.0,0.0,0.0,0.0,0.0,0.0,0.0,0.0,0.0,0.0,0.0,0.0,0.0,0.0,0.0,0.0,0.0,0.0,0.0,0.0,0.0,0.0,0.0,0.0,0.0,0.0,0.0,0.0,0.0,0.0,0.0,4.0583,4.464,4.7068,4.7663,4.7373,4.7373,4.7663,4.6939,4.4621,0.0,0.0,0.0,0.0,0.0,0.0,0.0,0.0,0.0,0.0,0.0,0.0,0.0,0.0,0.0,0.0,0.0,0.0,0.0,0.0,0.0,0.0,0.0,0.0,0.0,0.0,0.0,0.0,0.0,0.0,0.0,0.0,0.0,0.0,0.0,0.0,0.0,0.0,0.0,0.0,0.0,3.6995,3.8363,3.867,0.0,0.0,0.0,0.0,3.842,3.6754,0.0,0.0,0.0,0.0,0.0,0.0,0.0,0.0,0.0,0.0,0.0,0.0,0.0,0.0,0.0,0.0,0.0,0.0,0.0,0.0,0.0,0.0,0.0,0.0,0.0,0.0,0.0,0.0,0.0,0.0,0.0,0.0,0.0,0.0,0.0,0.0,0.0,0.0,0.0,0.0,0.0,0.0,0.0,0.0,0.0,0.0,0.0,0.0,0.0,0.0,0.0,0.0,0.0,0.0,0.0,0.0,4.0492,4.2577,4.4936,4.7482,4.6323,4.625,4.7663,4.6939,4.4621,0.0,0.0,0.0,0.0,0.0,0.0,0.0,0.0,0.0,0.0,0.0,0.0,0.0,0.0,0.0,0.0,0.0,0.0,0.0,0.0,0.0,0.0,0.0,0.0,0.0,0.0,0.0,0.0,0.0,0.0,0.0,0.0,0.0,0.0,0.0,0.0,0.0,0.0,0.0,0.0,0.0,3.9077,3.9344,3.9979,4.0668,0.0,0.0,4.0518,4.1472,4.069,0.0,0.0,0.0,0.0,0.0,0.0,0.0,0.0,0.0,0.0,0.0,0.0,0.0,0.0,0.0,0.0,0.0,0.0,0.0,0.0,0.0,0.0,0.0,0.0,0.0,0.0,0.0,0.0,0.0,0.0,0.0,0.0,0.0,0.0,0.0,0.0,0.0,0.0,0.0,0.0,0.0,0.0,0.0,0.0,0.0,0.0,0.0,0.0,0.0,0.0,0.0,0.0,0.0,0.0,0.0,3.9295,3.9912,4.3246,4.5675,4.6939,4.6323,4.654,4.7699,4.7373,4.5091,0.0,0.0,0.0,0.0,0.0,0.0,0.0,0.0,0.0,0.0,0.0,0.0,0.0,0.0,0.0,0.0,0.0,0.0,0.0,0.0,0.0,0.0,0.0,0.0,0.0,0.0,0.0,0.0,0.0,0.0,0.0,0.0,0.0,0.0,0.0,0.0,0.0,0.0,0.0,0.0,0.0,0.0,4.1252,4.1724,0.0,0.0,0.0,4.2196,4.2614,0.0,0.0,0.0,0.0,0.0,0.0,0.0,0.0,0.0,0.0,0.0,0.0,0.0,0.0,0.0,0.0,0.0,0.0,0.0,0.0,0.0,0.0,0.0,0.0,0.0,0.0,0.0,0.0,0.0,0.0,0.0,0.0,0.0,0.0,0.0,0.0,0.0,0.0,0.0,0.0,0.0,0.0,0.0,0.0,0.0,0.0,0.0,0.0,0.0,0.0,0.0,0.0,0.0,0.0,0.0,0.0,0.0,3.9714,4.4205,4.6524,4.6504,4.6504,4.6882,4.7663,4.7699,0.0,0.0,0.0,0.0,0.0,0.0,0.0,0.0,0.0,0.0,0.0,0.0,0.0,0.0,0.0,0.0,0.0,0.0,0.0,0.0,0.0,0.0,0.0,0.0,0.0,0.0,0.0,2.5244,0.0,0.0,0.0,0.0,0.0,0.0,0.0,0.0,0.0,0.0,0.0,0.0,0.0,0.0,4.125,4.2991,4.3572,4.4116,0.0,0.0,4.4013,4.4013,4.4051,4.3415,0.0,0.0,0.0,0.0,0.0,0.0,0.0,0.0,0.0,0.0,0.0,0.0,0.0,0.0,0.0,0.0,0.0,0.0,0.0,0.0,0.0,0.0,0.0,0.0,0.0,0.0,0.0,0.0,0.0,0.0,0.0,0.0,0.0,0.0,0.0,0.0,0.0,0.0,0.0,0.0,0.0,0.0,0.0,0.0,0.0,0.0,0.0,0.0,0.0,0.0,0.0,0.0,0.0,0.0,4.058,4.0564,4.4537,4.6606,4.6504,4.6504,4.6902,4.7663,4.7699,4.5796,0.0,0.0,0.0,0.0,0.0,0.0,0.0,0.0,0.0,0.0,0.0,0.0,0.0,0.0,0.0,0.0,0.0,0.0,0.0,0.0,0.0,0.0,0.0,0.0,0.0,0.0,0.0,0.0,0.0,0.0,0.0,0.0,0.0,0.0,0.0,0.0,0.0,0.0,0.0,0.0,0.0,4.2212,4.3788,4.5408,4.6699,0.0,4.6876,4.6448,4.6448,4.6448,4.5452,4.25,0.0,0.0,0.0,0.0,0.0,0.0,0.0,0.0,0.0,0.0,0.0,0.0,0.0,0.0,0.0,0.0,0.0,0.0,0.0,0.0,0.0,0.0,0.0,0.0,0.0,0.0,0.0,0.0,0.0,0.0,0.0,0.0,0.0,0.0,0.0,0.0,0.0,0.0,0.0,0.0,0.0,0.0,0.0,0.0,0.0,0.0,0.0,0.0,0.0,0.0,0.0,0.0,0.0,4.0564,4.0546,4.4515,4.6545,4.6504,4.6504,4.6866,4.7699,4.7699,4.6287,0.0,0.0,0.0,0.0,0.0,0.0,0.0,0.0,0.0,0.0,0.0,0.0,0.0,0.0,0.0,0.0,0.0,0.0,0.0,0.0,0.0,0.0,0.0,0.0,0.0,0.0,0.0,0.0,3.1437,3.2053,3.1342,0.0,0.0,0.0,0.0,0.0,0.0,0.0,0.0,0.0,0.0,4.4193,4.5397,4.6146,0.0,0.0,4.7068,4.6747,4.7254,4.7327,4.6585,4.4413,4.4288,0.0,0.0,0.0,0.0,0.0,0.0,0.0,0.0,0.0,0.0,0.0,0.0,0.0,0.0,0.0,0.0,0.0,0.0,0.0,0.0,0.0,0.0,0.0,0.0,0.0,0.0,0.0,0.0,0.0,0.0,0.0,0.0,0.0,0.0,0.0,0.0,0.0,0.0,0.0,0.0,0.0,0.0,0.0,0.0,0.0,0.0,0.0,0.0,0.0,0.0,0.0,0.0,4.1035,4.1216,4.4749,4.6633,4.6866,4.6649,4.712,4.8351,4.8206,4.7156,0.0,0.0,0.0,0.0,0.0,0.0,0.0,0.0,0.0,0.0,0.0,0.0,0.0,0.0,0.0,0.0,0.0,0.0,0.0,0.0,0.0,0.0,0.0,0.0,0.0,0.0,0.0,0.0,3.3465,3.3791,3.2669,0.0,0.0,0.0,0.0,0.0,0.0,0.0,0.0,0.0,0.0,4.5962,4.7388,4.7591,4.7772,4.8315,4.7916,4.7772,4.8351,4.8424,4.7953,4.6617,0.0,0.0,0.0,0.0,0.0,0.0,0.0,0.0,0.0,0.0,0.0,0.0,0.0,0.0,0.0,0.0,0.0,0.0,0.0,0.0,0.0,0.0,0.0,0.0,0.0,0.0,0.0,3.1307,0.0,0.0,3.1038,0.0,0.0,0.0,0.0,0.0,0.0,0.0,0.0,0.0,0.0,0.0,0.0,0.0,0.0,0.0,0.0,0.0,0.0,0.0,0.0,0.0,0.0,4.2196,4.2901,4.5444,4.7078,4.7663,4.6939,4.7663,4.9872,4.9293,4.8475,4.7591,0.0,0.0,0.0,0.0,0.0,0.0,0.0,0.0,0.0,0.0,0.0,0.0,0.0,0.0,0.0,0.0,0.0,0.0,0.0,0.0,0.0,0.0,0.0,0.0,0.0,0.0,3.0183,3.2053,3.3502,0.0,0.0,0.0,0.0,0.0,0.0,0.0,0.0,0.0,4.5671,4.6432,4.7373,4.9677,5.0039,5.0039,5.0039,5.0039,5.0017,5.0075,5.0039,4.9807,0.0,0.0,0.0,0.0,0.0,0.0,0.0,0.0,0.0,0.0,0.0,0.0,0.0,0.0,0.0,0.0,0.0,0.0,0.0,0.0,0.0,0.0,0.0,0.0,0.0,0.0,0.0,3.6191,3.5198,0.0,0.0,0.0,0.0,0.0,0.0,0.0,0.0,0.0,0.0,0.0,4.2955,4.4548,0.0,0.0,0.0,0.0,0.0,0.0,0.0,0.0,0.0,0.0,0.0,0.0,4.3192,4.4548,4.7451,4.9082,4.9257,4.9003,4.9257,5.0075,4.9836,4.9075,4.7714,0.0,0.0,0.0,0.0,0.0,0.0,0.0,0.0,0.0,0.0,0.0,0.0,0.0,0.0,0.0,0.0,0.0,0.0,0.0,0.0,0.0,0.0,0.0,0.0,0.0,3.2922,0.0,0.0,0.0,0.0,0.0,0.0,0.0,0.0,0.0,0.0,4.1379,4.4114,4.6214,4.8315,4.9981,5.0778,5.1357,5.1683,0.0,0.0,0.0,0.0,0.0,0.0,0.0,0.0,0.0,0.0,0.0,0.0,0.0,0.0,4.8559,4.5478,4.451,4.4198,4.4215,0.0,0.0,0.0,0.0,0.0,0.0,0.0,0.0,0.0,0.0,0.0,0.0,0.0,0.0,3.9843,3.8895,3.9051,0.0,0.0,0.0,0.0,0.0,0.0,0.0,0.0,4.52,4.6178,4.625,4.7808,4.8134,4.7337,4.5784,4.3681,0.0,0.0,0.0,0.0,0.0,0.0,0.0,0.0,4.5131,4.6995,4.9336,5.0677,5.0909,5.0401,5.0365,5.0886,5.0923,5.0307,4.9003,4.6395,4.4584,0.0,0.0,0.0,0.0,0.0,0.0,0.0,0.0,0.0,0.0,0.0,0.0,0.0,0.0,0.0,0.0,0.0,0.0,0.0,0.0,0.0,0.0,0.0,3.582,0.0,0.0,0.0,0.0,0.0,0.0,0.0,0.0,0.0,4.1216,4.4258,4.7047,4.8424,5.0633,5.2299,5.2842,0.0,0.0,0.0,0.0,0.0,0.0,0.0,5.2915,5.2915,5.2263,5.1597,5.0995,5.1828,5.219,5.1126,0.0,0.0,4.8691,4.7664,4.7341,4.7341,4.8078,4.8559,4.8065,4.8731,4.9415,0.0,0.0,0.0,0.0,4.1405,0.0,0.0,0.0,4.2011,4.232,0.0,4.3032,0.0,0.0,0.0,0.0,4.2067,4.5055,0.0,0.0,4.9365,5.0184,5.0184,5.022,5.0619,5.1235,4.9821,4.9001,4.8641,4.3479,0.0,0.0,0.0,0.0,0.0,0.0,4.7949,5.0075,5.107,5.1869,5.2444,5.1031,5.0959,5.2371,5.2444,5.2045,5.1285,4.9727,4.7808,4.549,4.1615,0.0,0.0,0.0,0.0,0.0,0.0,0.0,0.0,0.0,0.0,0.0,0.0,0.0,0.0,0.0,0.0,0.0,0.0,0.0,0.0,3.7828,0.0,0.0,0.0,0.0,0.0,0.0,0.0,0.0,0.0,4.7772,4.4802,4.712,4.9908,5.219,0.0,0.0,0.0,0.0,5.6319,5.7116,5.7224,5.7188,5.7224,5.6536,5.5993,5.6066,0.0,0.0,5.2878,5.3892,5.4363,5.2878,5.3784,5.4423,5.2895,5.142,5.0596,5.056,5.125,5.1862,5.2029,5.3454,5.5082,4.8183,0.0,0.0,0.0,0.0,4.6269,4.6855,4.7918,4.7473,4.6941,4.645,4.6611,0.0,0.0,0.0,0.0,0.0,0.0,4.8967,5.0307,5.1321,5.2118,5.2661,5.2661,5.2806,5.2951,5.1439,5.0967,5.1357,4.9293,4.64,4.3013,0.0,0.0,0.0,0.0,5.0649,5.1928,5.3238,5.3735,5.3349,5.2878,5.2589,5.2516,5.1937,5.1792,5.2118,5.0597,4.9184,4.7916,4.5128,0.0,0.0,0.0,0.0,0.0,0.0,0.0,0.0,0.0,0.0,0.0,0.0,0.0,0.0,0.0,0.0,0.0,0.0,0.0,3.6001,3.9405,4.1578,0.0,0.0,0.0,0.0,0.0,0.0,0.0,0.0,0.0,5.0162,5.1393,5.2589,0.0,0.0,5.6355,5.679,5.7333,5.7985,5.8782,5.842,0.0,5.8818,5.7768,5.7224,5.8383,5.7913,5.6862,5.5269,5.5377,5.5377,5.4399,5.4581,5.4725,5.4375,5.3961,5.3667,5.3727,5.4068,5.4371,5.4444,5.5104,5.5611,5.2326,5.0692,4.9841,4.9489,4.9433,4.9297,4.9971,5.1161,5.0832,5.0608,5.0524,5.0727,4.9934,4.8384,4.8057,0.0,0.0,0.0,5.1547,5.277,5.353,5.4146,5.4581,5.4617,5.4943,5.545,5.365,5.3469,5.4834,5.4132,5.2168,4.9101,0.0,4.9168,4.918,5.1565,5.3189,5.401,5.5209,5.5414,5.4617,5.4327,5.3965,5.3458,5.2987,5.2951,5.3422,5.2226,5.114,5.0343,4.8025,4.5997,0.0,0.0,0.0,0.0,0.0,0.0,0.0,0.0,0.0,0.0,0.0,3.1908,3.0627,0.0,0.0,0.0,3.8536,3.9623,4.0872,4.386,0.0,0.0,0.0,0.0,0.0,0.0,0.0,5.0764,5.2552,5.382,5.4291,5.5341,5.5812,5.5196,5.6573,5.7913,5.8528,0.0,5.9651,6.0448,6.0158,6.0013,6.0448,5.947,5.8891,5.9506,5.9216,5.8601,5.7659,5.7442,5.7261,5.6899,5.6754,5.6754,5.6754,5.6767,5.6345,5.5245,5.5374,5.571,5.5733,5.63,5.6868,5.5662,5.5383,5.2438,5.1206,5.1169,5.1067,5.1428,5.2123,5.2615,5.3322,5.4141,5.4768,5.4332,5.3075,5.2346,0.0,5.301,5.3961,5.47,5.5305,5.6018,5.6308,5.6283,5.621,5.6971,5.8311,5.6225,5.6273,5.8264,5.7885,5.7279,5.6491,5.3704,5.2495,5.2997,5.4555,5.568,5.6271,5.7032,5.7032,5.626,5.551,5.5112,5.5088,5.5088,5.5051,5.4979,5.4255,5.3494,5.2661,5.0524,4.8641,4.712,0.0,0.0,0.0,0.0,0.0,0.0,0.0,0.0,0.0,0.0,0.0,0.0,0.0,0.0,0.0,4.5325,0.0,4.8786,4.9655,0.0,0.0,0.0,4.8677,5.0474,5.1271,5.2009,5.2951,0.0,0.0,5.7406,5.8673,5.9072,5.7659,5.813,5.9144,6.0593,6.0738,6.11,6.1761,6.1897,6.1897,6.1797,6.1218,6.0484,5.9724,5.9651,5.9651,5.9506,5.947,5.9542,5.9398,5.9579,5.9506,5.9579,5.9361,5.8709,5.5921,5.6043,5.654,5.6685,5.7765,5.8799,5.6272,5.5895,5.488,5.4473,5.4436,5.4414,5.4524,5.4686,5.4737,5.492,5.5192,5.5299,5.5437,5.5716,5.5931,5.6431,5.7157,5.8006,5.8402,5.8492,5.8765,5.8812,5.8709,5.813,5.8021,5.8311,5.7213,5.7286,5.8347,5.8355,5.8827,5.9631,5.9147,5.8081,5.6479,5.7822,5.8642,5.89,5.9081,5.883,5.8166,5.7425,5.6952,5.6794,5.6794,5.6454,5.574,5.5558,5.5088,5.4363,5.3204,5.2371,5.1973,4.7953,0.0,0.0,0.0,0.0,0.0,0.0,0.0,0.0,0.0,4.0745,3.8174,0.0,4.4476,0.0,4.9257,5.0452,4.8221,4.98,0.0,0.0,5.114,5.1792,5.5088,5.5124,5.5667,5.7695,5.8601,5.9035,5.9035,5.9361,5.9687,5.9905,6.0086,6.0375,6.0774,6.081,6.1073,6.1761,6.1507,6.129,6.1833,6.1833,6.1218,5.9832,6.0122,6.0303,5.9724,5.9615,5.9615,5.9615,5.9615,5.9615,5.9651,5.9615,5.9434,5.8637,5.874,5.8951,5.8951,5.9379,5.9734,5.8222,5.7965,5.7817,5.774,5.7666,5.6602,5.6345,5.6675,5.6905,5.7271,5.7611,5.7494,5.7655,5.8045,5.8409,5.8771,5.9169,5.9605,5.9761,5.9719,6.0046,6.0201,6.0122,5.9687,5.9651,5.9977,5.918,5.9216,5.9977,6.0145,6.058,6.1353,6.1584,6.1032,5.9743,6.0794,6.0903,5.99,6.0253,6.0071,5.9194,5.8796,5.8408,5.7894,5.8196,5.7989,5.708,5.708,5.6717,5.5957,5.516,5.4725,5.4653,5.219,5.0633,0.0,0.0,0.0,0.0,0.0,0.0,0.0,0.0,0.0,0.0,0.0,4.8496,4.9764,5.2733,5.3856,5.2118,5.3784,5.5196,5.5595,5.5269,5.5848,5.8058,5.7876,5.813,5.9434,5.9941,6.0122,6.0158,6.0448,6.0846,6.1254,6.1353,6.1353,6.1353,6.1326,6.1471,6.1906,6.147,6.1234,6.174,6.1923,6.1688,6.0928,6.1064,6.1145,6.0774,6.0701,6.0665,6.0665,6.0665,6.0675,6.0665,6.0665,6.0638,6.0665,6.0719,6.0518,5.9865,6.0025,6.0358,6.0467,6.0419,6.0419,6.0419,6.0272,5.8253,5.774,5.8364,5.8919,5.9566,6.0188,6.009,6.0063,6.0034,6.0136,6.0183,6.0154,6.0139,6.0139,6.015,6.0709,6.0955,6.0928,6.0955,6.1326,6.1942,6.1317,6.1317,6.2005,6.2141,6.2204,6.2177,6.2447,6.2453,6.2311,6.3255,6.2652,6.05,6.1,6.0825,5.9838,6.0041,5.975,5.8979,5.975,5.9796,5.8927,5.8854,5.8456,5.755,5.6826,5.6391,5.6319,5.621,5.516,0.0,5.2045,0.0,0.0,0.0,0.0,0.0,0.0,0.0,0.0,5.0814,5.2444,5.3059,5.5776,5.7514,5.7514,5.8782,5.9615,5.9615,5.9687,5.976,5.976,5.9832,5.9905,5.9905,6.0557,6.0955,6.0964,6.1543,6.2005,6.1969,6.1969,6.1933,6.1978,6.1969,6.1942,6.2041,6.1748,6.1564,6.1544,6.1748,6.1895,6.1832,6.1768,6.1895,6.1823,6.1851,6.1887,6.1887,6.1842,6.1906,6.195,6.1914,6.1969,6.1897,6.1897,6.1498,6.0448,6.052,6.0946,6.0697,6.0419,6.0419,6.0419,6.0419,6.0603,6.0419,5.9955,5.9981,6.0042,6.0188,6.0323,6.0677,6.1239,6.1176,6.1492,6.2051,6.1959,6.1855,6.1749,6.1868,6.1896,6.1788,6.1761,6.1833,6.1978,6.1833,6.1833,6.2041,6.2141,6.2522,6.3112,6.3301,6.3079,6.2647,0.0,0.0,0.0,6.1777,6.1146,6.1087,6.1733,6.1938,6.1699,6.2948,0.0,6.1426,6.1326,6.0665,5.9253,5.8999,0.0,0.0,0.0,0.0,0.0,0.0,0.0,0.0,0.0,0.0,0.0,5.3892,5.3856,5.3639,5.5703,5.6862,5.6428,5.8058,5.9144,5.9144,5.9434,5.9615,5.9615,6.0194,6.0593,6.0566,6.1136,6.1543,6.1543,6.1688,6.1761,6.1725,6.1906,6.1978,6.2078,6.2041,6.2041,6.205,6.2078,6.2041,6.1978,6.1895,6.1776,6.1515,6.1615,6.1595,6.1321,6.127,6.1422,6.1587,6.1608,6.1608,6.1608,6.1804,6.1895,6.17,6.1812,6.205,6.2014,6.2014,6.1906,6.1643,6.1679,6.1788,6.1774,6.1594,6.1594,6.1594,0.0,6.2034,6.1961,6.1569,6.152,6.1495,6.1495,6.1545,6.1765,6.2082,6.2006,6.2237,6.2603,6.2397,6.2291,6.2265,6.2168,6.2114,6.2114,6.2069,6.2033,6.2114,6.2033,6.2223,6.2585,6.2749,6.2958,6.3275,6.3493,6.3225,6.2548,6.3262,6.3573,6.3493,6.2771,6.2214,6.1813,6.2188,6.2214,6.1886,6.2767,0.0,0.0,0.0,0.0,0.0,0.0,0.0,0.0,5.9216,0.0,5.7876,5.7442,5.6862,5.6102,5.6391,5.6935,5.7768,5.8528,5.8456,5.7297,5.8673,5.9434,5.9035,6.0086,6.0783,6.0774,6.0783,6.081,6.081,6.1172,6.1399,6.1462,6.1725,6.2005,6.2041,6.2041,6.2041,6.2041,6.2041,6.2186,6.2512,6.2585,6.273,6.3019,6.2512,6.1959,6.1615,6.17,6.1723,6.164,6.1741,6.2015,6.2123,6.1914,6.1724,6.18,6.1543,6.14,6.1722,6.1982,6.2148,6.239,6.2386,6.2334,6.2326,6.2185,6.2014,6.2041,6.2041,6.2041,6.2805,6.2805,6.2805,6.2805,6.2805,6.2805,6.2805,6.2805,6.2805,0.0,0.0,6.2805,6.273,6.2629,6.2629,6.2629,6.2629,6.2344,6.2401,6.2615,6.2386,6.2404,6.2621,6.2522,6.2522,6.2567,6.2486,6.2793,6.3437,6.3603,6.3603,6.3493,6.3566,6.3199,6.247,6.2433,6.2672,6.3184,6.3182,6.2781,6.2083,6.2192,6.2,6.1448,6.2095,6.2123,6.1432,6.1915,6.1833,6.1037,6.1,6.1027,6.1,6.1027,6.1027,6.1027,6.1,6.0711,6.0086,6.0638,6.1,6.1,6.1616,6.1462,6.0122,6.0665,6.1027,6.1,6.1616,6.2005,6.2041,6.2005,6.2041,6.2041,6.2041,6.2005,6.2005,6.215,6.2259,6.2259,6.2404,6.244,6.2512,6.2512,6.2657,6.3237,6.3382,6.3571,6.4013,6.3197,6.2277,6.1843,6.1937,6.1914,6.1925,6.2138,6.2577,6.2946,6.2591,6.2261,6.2185,6.1823,6.1717,6.2215,6.2353,6.2633,6.3137,6.3029,6.2844,6.2808,6.2565,6.2329,6.2273,6.2357,6.2376,6.2805,6.2805,6.2805,6.2805,6.2805,6.2805,6.2805,6.2805,6.2805,6.2805,6.2805,6.2805,6.278,6.2755,6.2755,6.2755,6.2755,6.2475,6.2824,6.3576,6.3311,6.3566,6.4257,6.4257,6.4174,6.409,6.4174,6.4265,6.4402,6.454,6.4594,6.4494,6.3938,6.3235,6.2443,6.2433,6.2443,6.2526,6.186,6.1536,6.1503,6.2197,6.2438,6.2298,6.3484,6.3811,6.293,6.2975,6.2657,6.1869,6.186,6.1833,6.1833,6.1797,6.1833,6.1833,6.1833,6.1761,6.1652,6.1761,6.1797,6.1833,6.1942,6.1869,6.1688,6.1761,6.186,6.1833,6.1942,6.2041,6.2041,6.2078,6.2114,6.2078,6.2041,6.2041,6.2087,6.2657,6.3019,6.3056,6.3635,6.3997,6.3925,6.3961,6.3961,6.4178,6.4323,6.4238,6.4086,6.3781,6.349,6.3153,6.3092,6.3004,6.2765,6.2733,6.2808,6.2551,6.2551,6.2541,6.2765,6.262,6.2549,6.2797,6.3022,6.3155,6.3144,6.3191,6.327,6.3296,6.3358,6.337,6.3155,6.3451,6.3506,6.2805,6.2805,6.2805,6.2805,6.2817,6.3319,6.3503,6.3539,6.398,6.3649,6.2842,6.2805,6.3062,6.3503,6.3503,6.3759,6.4138,6.3816,6.3972,6.4443,6.4202,6.433,6.4803,6.4667,6.4639,6.4795,6.4639,6.4858,6.5341,6.5432,6.5432,6.5277,6.4603,6.402,6.3639,6.3799,6.3852,6.3852,6.2532,6.1901,6.2029,6.2266,6.2397,6.25,6.2975,6.3057,6.2685,6.2604,6.2404,6.2014,6.2041,6.2041,6.2041,6.2404,6.2657,6.2657,6.3056,6.3309,6.3309,6.3309,6.3309,6.3309,6.3309,6.3309,6.3309,6.2512,6.2159,6.2585,6.2657,6.2838,6.3237,6.3309,6.3309,6.3309,6.3309,6.3309,6.3345,6.3599,6.3852,6.3852,6.4178,6.4396,6.4396,6.4396,6.4613,6.4975,6.5374,6.5524,6.5008,6.4951,6.447,6.3409,6.3101,6.3187,6.3249,6.3289,6.3363,6.3583,6.3302,6.3158,6.3218,6.3007,6.2866,6.3183,6.3418,6.363,6.3747,6.3798,6.3779,6.3768,6.3632,6.3576,6.3474,6.3657,6.3674,6.2915,6.3099,6.3099,6.3184,6.3404,6.4053,6.4347,6.442,6.5007,6.4604,6.3441,6.3392,6.3759,6.4347,6.4383,6.4688,6.515,6.4975,6.5021,6.5284,6.5095,6.5232,6.5577,6.536,6.5323,6.5523,6.5296,6.5559,6.6281,6.6318,6.6189,6.5831,6.5304,6.4904,6.4639,6.4948,6.5091,6.4928,6.3706,6.3074,6.3152,6.2944,6.2917,6.3074,6.282,6.2685,6.273,6.2595,6.2549,6.2549,6.2549,6.2549,6.2585,6.3128,6.3454,6.3526,6.4033,6.4396,6.4396,6.4396,6.4396,6.4396,6.4396,6.4396,6.4287,6.3273,6.2802,6.3345,6.3454,6.3708,6.4178,6.4323,6.4396,6.4396,6.4396,6.4287,6.4396,6.4541,6.4685,6.4685,6.4794,6.4975,6.4939,6.4939,6.5301,6.6098,6.6822,6.7053,6.6594,6.6403,6.5568,6.4247,6.3518,6.3496,6.3792,6.3828,6.4074,6.4671,6.4214,6.3898,6.3792,6.3302,6.3161,6.3757,6.3897,6.4073,6.4565,6.4453,6.4233,6.4228,6.4102,6.393,6.406,6.3997,6.3862,6.3282,6.3906,6.398,6.442,6.5007,6.5154,6.5191,6.5228,6.5301,6.5228,6.5081,6.5081,6.5118,6.5191,6.5191,6.515,6.5118,6.5055,6.5494,6.6079,6.6152,6.6555,6.714,6.7011,6.6992,6.6947,6.6882,6.6938,6.7259,6.7296,6.6875,6.608,6.5795,6.5431,6.4922,6.5011,6.5038,6.4867,6.4961,6.494,6.4799,6.4735,6.4719,6.4612,6.4521,6.4476,6.4284,6.4263,6.4178,6.4178,6.4142,6.4142,6.4142,6.4251,6.4287,6.4287,6.4396,6.4396,6.4432,6.4396,6.4468,6.4396,6.4468,6.4468,6.4468,6.4287,6.4178,6.4323,6.4287,6.4359,6.4396,6.4468,6.4577,6.4613,6.4541,6.4396,6.4577,6.5048,6.5482,6.5482,6.617,6.6569,6.6569,6.6569,6.6895,6.7547,6.8199,6.8517,6.8111,6.7787,6.7278,6.6095,6.5226,6.4599,6.4566,6.4601,6.4636,6.4741,6.4706,6.4601,6.4566,6.4566,6.453,6.4285,6.4601,6.4706,6.4741,6.467,6.474,6.4913,6.4974,6.5131,6.5394,6.5226,6.4828,6.4494,6.4824,6.4824,6.5007,6.5338,6.5815,6.5999,6.6035,6.6512,6.6696,6.6696,6.6696,6.6476,6.5999,6.5999,6.6229,6.658,6.6536,6.6719,6.7066,6.7048,6.7177,6.747,6.7414,6.7387,6.7387,6.7387,6.7414,6.747,6.7387,6.7093,6.666,6.6587,6.6498,6.6226,6.6281,6.6373,6.64,6.6427,6.6454,6.6372,6.553,6.5028,6.4975,6.4858,6.4749,6.4612,6.4528,6.4472,6.4424,6.4396,6.4396,6.4396,6.4867,6.512,6.512,6.5555,6.5808,6.5808,6.5808,6.5808,6.5808,6.5808,6.5808,6.5808,6.5808,6.5808,6.5772,6.5374,6.5265,6.57,6.5808,6.5808,6.5808,6.5808,6.5808,6.5844,6.6533,6.704,6.7076,6.7728,6.8199,6.8199,6.8199,6.8343,6.8669,6.9032,6.9028,6.8486,6.8186,6.7712,6.6952,6.6321,6.5654,6.5022,6.4706,6.4917,6.5268,6.5408,6.5408,6.5408,6.5408,6.5303,6.4846,6.5162,6.5373,6.5408,6.5829,6.6075,6.604,6.604,6.6213,6.596,6.5752,6.5357,6.5448,6.5668,6.5852,6.5962,6.5999,6.6586,6.6843,6.688,6.7457,6.7687,6.7687,6.7687,6.7393,6.688,6.6806,6.711,6.7596,6.7579,6.7726,6.7927,6.7881,6.8028,6.8174,6.7936,6.7863,6.7854,6.7808,6.7853,6.8036,6.7923,6.781,6.7724,6.781,6.7838,6.781,6.7684,6.7623,6.7651,6.7468,6.7378,6.7323,6.6335,6.575,6.5659,6.5542,6.5405,6.5266,6.5246,6.5162,6.5048,6.5048,6.5048,6.5084,6.5627,6.5917,6.5953,6.646,6.6822,6.6822,6.6822,6.6822,6.6822,6.6822,6.6822,6.6822,6.6822,6.6822,6.6714,6.6279,6.6207,6.6677,6.6822,6.6895,6.7076,6.7112,6.7184,6.7474,6.8017,6.8307,6.838,6.8706,6.9207,6.9176,6.9224,6.9312,6.9348,6.9435,6.9385,6.8898,6.8701,6.8358,6.7588,6.7376,6.6813,6.5619,6.5443,6.5654,6.5935,6.6181,6.6181,6.6181,6.6181,6.6181,6.59,6.6075,6.6145,6.6181,6.6672,6.7023,6.6988,6.6988,6.6883,6.6391,6.6251,6.6075,6.5742,6.6512,6.7273,6.7467,6.7567,6.7577,6.7614,6.754,6.765,6.7687,6.7687,6.7687,6.765,6.7577,6.7614,6.7633,6.7561,6.7707,6.8083,6.866,6.8779,6.9238,6.9898,6.909,6.8724,6.8779,6.8548,6.8734,6.9391,6.9464,6.9471,6.9435,6.9362,6.9347,6.9179,6.8726,6.8398,6.8255,6.7954,6.7679,6.757,6.746,6.7305,6.7129,6.7064,6.6935,6.6801,6.6729,6.6641,6.6677,6.6569,6.6641,6.6677,6.6677,6.6714,6.6714,6.6786,6.6858,6.6858,6.6931,6.6931,6.6895,6.7003,6.6895,6.704,6.704,6.704,6.6858,6.6931,6.6895,6.6967,6.7003,6.7221,6.7873,6.7945,6.8271,6.8917,6.9026,6.9134,6.9171,6.9285,6.943,6.9321,6.9548,6.9785,6.9868,7.0141,7.0263,7.0087,6.9883,6.9389,6.8753,6.8292,6.7866,6.7093,6.6532,6.6672,6.6953,6.6988,6.6953,6.6953,6.6953,6.6918,6.6883,6.6918,6.6953,6.6953,6.7058,6.7234,6.7304,6.7374,6.7199,6.7058,6.6988,6.6813,6.699,6.7283,6.7604,6.7687,6.7687,6.7687,6.7687,6.7687,6.7687,6.7687,6.7687,6.7687,6.7687,6.7751,6.8238,6.8431,6.8376,6.8467,6.8871,6.9513,6.9642,6.976,6.9896,6.9668,6.9558,6.9538,6.9417,6.9412,6.9573,6.9733,6.9798,6.9762,6.9675,6.9646,6.9639,6.9333,6.9151,6.9266,6.9181,6.9118,6.9109,6.9146,6.8998,6.8698,6.7721,6.7126,6.6983,6.6961,6.6874,6.6822,6.6822,6.6822,6.6822,6.6822,6.6822,6.6858,6.7293,6.7583,6.7619,6.8054,6.8307,6.8343,6.8343,6.8271,6.8307,6.8343,6.8307,6.8307,6.8307,6.8343,6.8235,6.7909,6.7909,6.8561,6.8778,6.8887,6.9243,6.9678,7.0004,7.004,7.0335,7.0599,7.0373,7.0501,7.0485,7.0289,7.0404,7.0375,7.0167,6.9956,6.9707,6.9279,6.9029,6.8849,6.8638,6.7515,6.7129,6.7585,6.7796,6.7796,6.776,6.776,6.776,6.7374,6.748,6.776,6.7796,6.8039,6.8074,6.8287,6.8287,6.7935,6.7866,6.7796,6.7515,6.7687,6.7687,6.7687,6.7687,6.7687,6.7687,6.7687,6.7724,6.7944,6.8091,6.8128,6.8348,6.8458,6.8568,6.9045,6.9449,6.9633,6.9449,6.9743,7.044,7.0477,7.0567,7.0694,7.0567,7.0429,7.0315,7.0193,7.0245,7.0471,7.0529,7.0566,7.0602,7.0442,7.0412,7.0442,7.0135,7.0048,7.0222,7.0088,6.9989,7.011,7.0054,6.9969,6.9558,6.8531,6.7869,6.7724,6.7724,6.7665,6.7576,6.7547,6.7583,6.7583,6.7583,6.7583,6.7619,6.8054,6.838,6.8416,6.8887,6.9171,6.9207,6.9171,6.9207,6.9207,6.9207,6.9207,6.9207,6.9207,6.9279,6.9461,6.9104,6.8995,6.9497,6.9605,6.9684,6.9901,7.0408,7.0698,7.0806,7.1132,7.1295,7.1207,7.1078,7.0847,7.0513,7.0375,7.0167,6.9849,6.9741,6.9669,6.9449,6.9377,6.9305,6.9165,6.8428,6.8041,6.8428,6.8498,6.8498,6.8498,6.8533,6.8392,6.8041,6.8041,6.8428,6.8707,6.8949,6.9161,6.9303,6.9091,6.8632,6.86,6.8603,6.8322,6.7687,6.7687,6.7687,6.7687,6.7687,6.7797,6.7724,6.7907,6.8568,6.8898,6.8972,6.9633,6.9816,7.0,7.0,7.0513,7.0881,7.0449,7.0596,7.1284,7.1293,7.166,7.221,7.1586,7.1236,7.1092,7.0909,7.1311,7.2014,7.1888,7.1829,7.1915,7.1799,7.1666,7.1738,7.1274,7.1063,7.1011,7.0612,7.0293,7.0119,7.0181,7.0169,7.001,6.9595,6.9388,6.9207,6.9134,6.8989,6.9026,6.9062,6.9171,6.8989,6.8989,6.9098,6.9026,6.9171,6.9207,6.9207,6.9285,6.9461,6.9461,6.9316,6.9461,6.9533,6.9461,6.9461,6.9497,6.9461,6.9642,7.0258,7.0299,7.0299,7.0403,7.0372,7.0661,7.1168,7.1422,7.1494,7.1422,7.1494,7.1494,7.1399,7.1143,7.0817,7.0444,7.0132,6.9813,6.9559,6.9486,6.9412,6.9412,6.9376,6.9376,6.9376,6.934,6.9305,6.9305,6.92,6.9165,6.9095,6.906,6.8988,6.8707,6.8527,6.8805,6.8768,6.901,6.901,6.9155,6.9118,6.9155,6.9126,6.906,6.913,6.7687,6.7687,6.7687,6.7687,6.776,6.8274,6.8531,6.8605,6.9376,6.9706,6.9779,7.0,7.011,7.0257,7.066,7.1064,7.1293,7.1492,7.1822,7.2063,7.2013,7.2152,7.2393,7.2239,7.2042,7.1963,7.1867,7.1918,7.2071,7.2174,7.2204,7.2174,7.2048,7.2108,7.2233,7.2043,7.1992,7.2006,7.188,7.1762,7.1762,7.1668,7.1552,7.1347,7.1228,7.1078,7.0765,6.9756,6.9243,6.9243,6.9207,6.9207,6.9207,6.9207,6.9207,6.9279,6.975,7.004,7.0113,7.0444,7.0734,7.077,7.0734,7.077,7.077,7.0734,7.0734,7.0734,7.077,7.0915,7.1096,7.1168,7.1132,7.1132,7.1168,7.1205,7.1422,7.1494,7.1494,7.1494,7.1494,7.1399,7.1175,7.0916,7.0615,7.0202,6.9849,6.9559,6.9449,6.9376,6.9376,6.9376,6.9376,6.9376,6.9376,6.9376,6.9376,6.9376,6.9376,6.9376,6.9376,6.9376,6.9339,6.9227,6.908,6.9005,6.8967,6.8892,6.8892,6.9005,6.9043,6.919,6.9339,6.9376,6.9376,6.7871,6.8128,6.8128,6.8348,6.8605,6.9155,6.9339,6.9486,7.022,7.055,7.0587,7.0881,7.0991,7.1101,7.1541,7.1704,7.1749,7.2138,7.2358,7.238,7.2321,7.2351,7.2467,7.2438,7.238,7.2292,7.2204,7.2174,7.2114,7.2114,7.2114,7.2144,7.2084,7.2078,7.2321,7.2329,7.2321,7.2409,7.2409,7.2475,7.2467,7.2438,7.2321,7.2108,7.1994,7.1805,7.1552,7.0548,7.0046,7.0046,7.0046,7.0046,7.0046,7.0082,7.0046,7.0154,7.048,7.0806,7.0842,7.1205,7.1494,7.1494,7.1494,7.1494,7.1494,7.1494,7.1494,7.1494,7.1458,7.1494,7.1494,7.1494,7.1494,7.1494,7.1494,7.1494,7.1494,7.1494,7.1494,7.1494,7.1494,7.1368,7.1175,7.1012,7.0649,7.0237,6.992,6.9632,6.9522,6.9376,6.9376,6.9376,6.9376,6.9376,6.9376,6.9376,6.9376,6.9376,6.9376,6.9376,6.9376,6.9376,6.9376,6.9118,6.8967,6.8857,6.8781,6.8551,6.8474,6.874,6.8967,6.9043,6.9155,6.9339,6.9376,6.8238,6.8935,6.8972,6.9339,6.9963,7.011,7.0146,7.0293,7.1027,7.1394,7.1541,7.1982,7.2349,7.2422,7.2349,7.2299,7.2292,7.2292,7.2299,7.2329,7.2263,7.2321,7.2438,7.2321,7.2233,7.2233,7.2114,7.2114,7.2181,7.197,7.1872,7.1994,7.1994,7.1988,7.2048,7.2204,7.2299,7.2329,7.2329,7.2351,7.2504,7.2387,7.2233,7.224,7.1933,7.178,7.1682,7.1412,7.135,7.1458,7.1313,7.1277,7.1422,7.1494,7.135,7.1277,7.1458,7.1422,7.1458,7.1458,7.1494,7.1494,7.1494,7.1494,7.1494,7.1494,7.1494,7.1494,7.1494,7.1494,7.1494,7.1639,7.1675,7.1712,7.1784,7.1748,7.1675,7.1784,7.1929,7.182,7.1675,7.1603,7.1612,7.1508,7.1045,7.0615,7.0376,6.9991,6.9595,6.9376,6.9376,6.9376,6.9411,6.9376,6.9376,6.9376,6.9376,6.9376,6.9376,6.9411,6.9376,6.9339,6.9302,6.908,6.8892,6.8743,6.859,6.8397,6.8358,6.859,6.8778,6.8819,6.9005,6.9264,6.9376,6.9045,6.9743,6.9779,6.9889,7.0183,7.0734,7.0991,7.1101,7.1835,7.2129,7.2239,7.2386,7.2532,7.2532,7.2496,7.2409,7.2329,7.2299,7.2299,7.2299,7.2144,7.2204,7.2263,7.2174,7.2078,7.2048,7.2018,7.1957,7.1939,7.1847,7.1811,7.1842,7.1878,7.1903,7.1988,7.2048,7.2174,7.2299,7.2299,7.2292,7.2358,7.2292,7.2144,7.1939,7.1811,7.1718,7.1625,7.1526,7.1494,7.1494,7.1494,7.1494,7.1494,7.1494,7.1494,7.1494,7.1494,7.1494,7.1494,7.1494,7.1494,7.1494,7.1494,7.1494,7.1494,7.1494,7.1494,7.1494,7.1494,7.1567,7.1639,7.2074,7.2581,7.3088,7.2798,7.2617,7.3052,7.3305,7.3305,7.3233,7.2726,7.2472,7.2227,7.1741,7.1126,7.069,7.0415,7.0133,6.9876,6.9656,6.9762,6.9481,6.9411,6.9411,6.9376,6.9376,6.9376,6.9376,6.9411,6.9446,6.9374,6.9264,6.919,6.9078,6.8854,6.8667,6.8474,6.828,6.8397,6.8551,6.8667,6.8854,6.9043,6.9264,6.9339,6.9889,7.0624,7.0587,7.0807,7.1138,7.1615,7.1798,7.1908,7.2275,7.2532,7.2532,7.2532,7.2532,7.2532,7.2496,7.238,7.2204,7.2321,7.2292,7.2144,7.2048,7.2018,7.2054,7.1988,7.1957,7.1933,7.1933,7.1872,7.1816,7.1718,7.1718,7.1816,7.1816,7.1842,7.1903,7.1897,7.1964,7.2091,7.2121,7.2084,7.2174,7.2114,7.203,7.1816,7.1718,7.1625,7.1494,7.1494,7.1494,7.1494,7.1494,7.1494,7.1494,7.1494,7.1494,7.1494,7.1494,7.1494,7.1494,7.1494,7.1494,7.1494,7.1494,7.1494,7.1494,7.1531,7.1567,7.2001,7.2001,7.2183,7.2545,7.2979,7.3559,7.4142,7.3993,7.3776,7.3925,7.3816,7.3852,7.3812,7.349,7.3099,7.3002,7.2338,7.1822,7.1373,7.1197,7.0871,7.0576,7.0361,7.0253,7.0148,7.0183,7.0323,7.0218,7.0148,7.0253,7.0148,6.9902,6.9867,6.9584,6.944,6.919,6.9115,6.8854,6.8628,6.8474,6.8397,6.8435,6.859,6.8705,6.8892,6.9078,6.9264,6.9339,7.0697,7.1431,7.1431,7.1835,7.2386,7.2496,7.2422,7.2496,7.2496,7.2532,7.2532,7.2532,7.2532,7.2496,7.2504,7.2321,7.2048,7.2321,7.2233,7.2114,7.1994,7.1933,7.1811,7.1933,7.1872,7.178,7.1816,7.1749,7.1718,7.1593,7.1625,7.1687,7.1755,7.1786,7.1749,7.1749,7.1749,7.1847,7.1878,7.1903,7.1964,7.1939,7.1847,7.1718,7.1625,7.1562,7.1494,7.1494,7.1494,7.1494,7.1494,7.1494,7.1494,7.1494,7.1494,7.1567,7.1639,7.1675,7.1603,7.1748,7.1784,7.1784,7.182,7.1748,7.1965,7.2038,7.2255,7.2798,7.2834,7.3197,7.3776,7.403,7.4428,7.5044,7.5155,7.4863,7.4356,7.4138,7.4175,7.4106,7.4106,7.3799,7.3526,7.3286,7.2937,7.1837,7.169,7.1507,7.1282,7.1096,7.1166,7.1236,7.1342,7.1517,7.1307,7.1061,7.1166,7.1166,7.0815,7.0569,7.0113,6.9865,6.9405,6.9153,6.8967,6.8816,6.8663,6.859,6.859,6.8628,6.8816,6.893,6.9115,6.9264,6.9376,7.1541,7.2239,7.2239,7.2349,7.2496,7.2532,7.2532,7.2532,7.2532,7.2532,7.2532,7.2532,7.2532,7.2467,7.2416,7.2292,7.2204,7.2292,7.2204,7.2024,7.1872,7.1749,7.1656,7.1749,7.1718,7.1656,7.1718,7.1718,7.1593,7.1526,7.1531,7.1598,7.163,7.1593,7.163,7.163,7.1656,7.1786,7.1816,7.1816,7.1811,7.1816,7.1718,7.1557,7.1526,7.1494,7.1494,7.1494,7.1494,7.1494,7.1567,7.1712,7.1639,7.1567,7.1639,7.182,7.2183,7.2183,7.1857,7.2581,7.3088,7.2545,7.2907,7.3345,7.3378,7.3305,7.3414,7.3667,7.3667,7.403,7.4718,7.4863,7.5225,7.5732,7.5949,7.5913,7.5804,7.5732,7.5623,7.5517,7.4918,7.4356,7.4181,7.3437,7.3012,7.2402,7.2181,7.207,7.2026,7.1903,7.2044,7.2219,7.2184,7.229,7.2184,7.1903,7.1833,7.1833,7.1517,7.1236,7.078,7.0359,7.0005,6.958,6.919,6.9075,6.906,6.8778,6.8743,6.8816,6.8892,6.904,6.919,6.9339,6.9376,7.2129,7.2496,7.2532,7.2532,7.2532,7.2532,7.2532,7.2532,7.2532,7.2532,7.2532,7.2532,7.2532,7.2504,7.2387,7.2299,7.2299,7.2204,7.2114,7.1994,7.1872,7.1687,7.1526,7.1593,7.1593,7.1562,7.1625,7.1593,7.1526,7.1603,7.1712,7.1965,7.1748,7.1784,7.1929,7.1712,7.1562,7.1625,7.1656,7.1656,7.1656,7.1656,7.1625,7.1526,7.1494,7.1494,7.1494,7.1929,7.2038,7.2146,7.24,7.2436,7.2146,7.2074,7.2255,7.269,7.2943,7.3124,7.3052,7.3342,7.3704,7.3305,7.3704,7.378,7.3888,7.3888,7.4138,7.4359,7.4504,7.4757,7.5551,7.5659,7.5949,7.613,7.6275,7.6275,7.6275,7.6275,7.6275,7.6205,7.5742,7.5358,7.4828,7.4011,7.3759,7.3498,7.3191,7.3076,7.3146,7.3097,7.3027,7.3062,7.2957,7.2957,7.2957,7.2746,7.243,7.229,7.2044,7.1763,7.1447,7.1026,7.0604,7.0284,7.0036,6.975,6.9669,6.9317,6.9037,6.9002,6.9078,6.919,6.9264,6.9339,6.9376,7.2532,7.2532,7.2532,7.2532,7.2532,7.2532,7.2532,7.2532,7.2532,7.2532,7.2496,7.2467,7.2438,7.2409,7.227,7.224,7.221,7.2114,7.1988,7.1964,7.178,7.1656,7.1526,7.1494,7.1639,7.1639,7.1784,7.1784,7.2001,7.1929,7.2436,7.2726,7.2291,7.2255,7.2472,7.2074,7.1675,7.1562,7.1526,7.1562,7.1526,7.1562,7.1567,7.1784,7.1567,7.182,7.2001,7.2291,7.2545,7.2871,7.345,7.345,7.3269,7.2943,7.3124,7.3849,7.3957,7.3888,7.3812,7.4102,7.4356,7.4175,7.4283,7.4319,7.4392,7.45,7.479,7.508,7.5334,7.5515,7.6203,7.6203,7.6203,7.6275,7.6275,7.6275,7.6275,7.6275,7.6275,7.6242,7.5825,7.5439,7.5227,7.4724,7.4679,7.4555,7.4245,7.401,7.401,7.3975,7.3729,7.3624,7.3518,7.3448,7.3448,7.3413,7.3097,7.2957,7.2676,7.25,7.229,7.2219,7.1938,7.1377,7.1058,7.0737,7.0348,7.0033,6.968,6.94,6.9262,6.9302,6.9339,6.9376,6.9411,7.2532,7.2532,7.2532,7.2532,7.2532,7.2532,7.2532,7.2532,7.2532,7.2532,7.2467,7.2416,7.2358,7.227,7.203,7.1909,7.197,7.1927,7.1964,7.1842,7.1687,7.1526,7.1494,7.1531,7.1857,7.2364,7.2545,7.2798,7.3233,7.3523,7.3414,7.3631,7.3486,7.3305,7.2907,7.2509,7.2183,7.1748,7.1639,7.1639,7.1531,7.1639,7.1965,7.2364,7.2038,7.2327,7.2871,7.24,7.2327,7.3486,7.316,7.3667,7.4247,7.4102,7.3957,7.4175,7.4645,7.4718,7.4392,7.5152,7.537,7.5261,7.537,7.5732,7.5804,7.5804,7.5732,7.5877,7.6022,7.613,7.6239,7.6275,7.6275,7.6275,7.6275,7.6275,7.6275,7.6275,7.6275,7.6275,7.5831,7.5442,7.5371,7.5118,7.4746,7.4517,7.4245,7.4049,7.401,7.401,7.394,7.3905,7.394,7.3905,7.3905,7.3869,7.3729,7.3659,7.3483,7.3483,7.3413,7.3624,7.3343,7.2535,7.1938,7.1549,7.1163,7.0742,7.0497,7.0246,6.9865,6.9481,6.9551,6.9691,6.9481,7.2532,7.2532,7.2532,7.2532,7.2532,7.2532,7.2532,7.2532,7.2532,7.2532,7.2475,7.2387,7.2299,7.221,7.197,7.1816,7.1811,7.1927,7.1933,7.178,7.1625,7.1494,7.1494,7.1494,7.2291,7.3016,7.3378,7.3486,7.3885,7.3816,7.4142,7.4323,7.4142,7.3885,7.3816,7.3559,7.2907,7.2327,7.211,7.1929,7.1639,7.1893,7.2545,7.2979,7.3016,7.3233,7.3559,7.3849,7.374,7.4392,7.4573,7.5008,7.5334,7.5406,7.5116,7.5152,7.5478,7.5587,7.5225,7.5949,7.6022,7.5841,7.6094,7.6275,7.6275,7.6239,7.6275,7.6275,7.6275,7.6275,7.6275,7.6275,7.6275,7.6275,7.6275,7.6275,7.6275,7.6275,7.6275,7.6242,7.6038,7.5831,7.5761,7.5371,7.4784,7.4441,7.4245,7.4128,7.401,7.401,7.401,7.401,7.401,7.401,7.401,7.401,7.401,7.401,7.401,7.401,7.401,7.3975,7.3799,7.3308,7.2816,7.2325,7.2009,7.1658,7.1377,7.1131,7.085,7.0534,7.0148,6.9937,6.9832,7.2532,7.2532,7.2532,7.2532,7.2532,7.2532,7.2532,7.2532,7.2532,7.2532,7.2467,7.2321,7.2204,7.2144,7.1933,7.178,7.1749,7.1903,7.1872,7.1718,7.1593,7.1494,7.1494,7.1712,7.2291,7.3595,7.3812,7.4069,7.4573,7.4573,7.4826,7.508,7.4682,7.4537,7.4757,7.4359,7.3704,7.3197,7.2943,7.2581,7.2327,7.2617,7.3342,7.3961,7.403,7.3993,7.4573,7.4395,7.4826,7.5261,7.5623,7.6022,7.6239,7.6275,7.6275,7.6275,7.6275,7.6275,7.6275,7.6239,7.6239,7.6167,7.6239,7.6275,7.6275,7.6275,7.6275,7.6275,7.6275,7.6275,7.6275,7.6275,7.6275,7.6275,7.6275,7.6275,7.6242,7.6208,7.6106,7.6106,7.6106,7.6003,7.5796,7.5335,7.4707,7.4631,7.4364,7.4167,7.4088,7.401,7.401,7.401,7.401,7.401,7.401,7.401,7.401,7.401,7.401,7.401,7.401,7.401,7.3834,7.3694,7.3483,7.3027,7.2781,7.25,7.2114,7.1868,7.1798,7.1482,7.0955,7.0675,7.0534,7.2532,7.2532,7.2532,7.2532,7.2532,7.2532,7.2532,7.2532,7.2532,7.2532,7.2467,7.2204,7.2084,7.2067,7.1909,7.1687,7.1692,7.1749,7.1749,7.1557,7.1494,7.1494,7.1494,7.1494,7.2436,7.3635,7.3888,7.479,7.5442,7.5768,7.5913,7.5985,7.5841,7.5768,7.5192,7.508,7.454,7.3921,7.374,7.3667,7.3631,7.3704,7.4178,7.4576,7.4537,7.4609,7.5406,7.508,7.4899,7.5913,7.5551,7.5696,7.613,7.6275,7.6275,7.6275,7.6275,7.6275,7.6275,7.6275,7.6275,7.6275,7.6275,7.6275,7.6275,7.6275,7.6275,7.6275,7.6275,7.6275,7.6275,7.6275,7.6275,7.6275,7.6275,7.6275,7.6242,7.6174,7.6072,7.5725,7.5655,7.569,7.5584,7.508,7.4631,7.4631,7.4555,7.4322,7.4128,7.4049,7.401,7.401,7.401,7.401,7.401,7.401,7.401,7.401,7.401,7.401,7.401,7.401,7.401,7.3869,7.3729,7.3694,7.3448,7.3132,7.2781,7.2606,7.25,7.2149,7.1658,7.1447,7.1271,7.2532,7.2532,7.2532,7.2532,7.2532,7.2532,7.2532,7.2532,7.2532,7.2532,7.2467,7.2263,7.2303,7.2449,7.2071,7.1978,7.2065,7.1941,7.1687,7.1526,7.1494,7.1494,7.1494,7.1603,7.2364,7.3523,7.4033,7.479,7.5804,7.6275,7.6275,7.6275,7.6275,7.613,7.5732,7.5768,7.5297,7.4682,7.4247,7.4175,7.4431,7.4612,7.4971,7.5696,7.537,7.5659,7.5841,7.5804,7.5515,7.6239,7.5877,7.5913,7.6203,7.6275,7.6275,7.6275,7.6275,7.6275,7.6275,7.6275,7.6275,7.6275,7.6275,7.6275,7.6275,7.6275,7.6275,7.6275,7.6275,7.6275,7.6275,7.6275,7.6275,7.6275,7.6275,7.614,7.6106,7.614,7.6003,7.5584,7.5227,7.5263,7.5227,7.4858,7.4555,7.4593,7.4441,7.4245,7.4088,7.4049,7.401,7.401,7.401,7.401,7.401,7.401,7.401,7.401,7.401,7.401,7.401,7.401,7.401,7.401,7.3905,7.3905,7.3975,7.3764,7.3378,7.3273,7.3238,7.2816,7.2465,7.2254,7.2044,7.2349,7.2496,7.2532,7.2532,7.2532,7.2532,7.2532,7.2532,7.2532,7.2532,7.2511,7.2548,7.279,7.3052,7.273,7.2631,7.2617,7.2232,7.1837,7.1666,7.1494,7.1494,7.1603,7.1748,7.2581,7.3888,7.4214,7.5044,7.5877,7.6275,7.6275,7.6275,7.6275,7.6239,7.6275,7.6203,7.5877,7.5442,7.4935,7.4971,7.5297,7.5406,7.5732,7.6094,7.6275,7.6275,7.6275,7.6239,7.6239,7.6275,7.6239,7.6203,7.6275,7.6275,7.6275,7.6275,7.6275,7.6275,7.6275,7.6275,7.6275,7.6275,7.6275,7.6275,7.6275,7.6275,7.6275,7.6275,7.6275,7.6275,7.6275,7.6275,7.6275,7.6275,7.6275,7.6106,7.5969,7.6003,7.5865,7.5371,7.5044,7.4821,7.4746,7.4593,7.4479,7.4517,7.4399,7.4128,7.4049,7.401,7.401,7.401,7.401,7.401,7.401,7.401,7.401,7.401,7.401,7.401,7.401,7.401,7.401,7.401,7.401,7.401,7.3975,7.401,7.401,7.3764,7.3589,7.3518,7.3308,7.3062,7.2746,7.1835,7.2532,7.2532,7.2532,7.2532,7.2532,7.2532,7.2532,7.2532,7.2532,7.2658,7.2905,7.3328,7.3724,7.3756,7.3357,7.2762,7.2844,7.2273,7.1743,7.1531,7.1567,7.1784,7.2291,7.3016,7.3993,7.4504,7.537,7.6094,7.6275,7.6275,7.6275,7.6275,7.6275,7.6275,7.6275,7.6239,7.6022,7.5804,7.5841,7.6022,7.6094,7.6167,7.6203,7.6275,7.6275,7.6275,7.6275,7.6275,7.6275,7.6275,7.6275,7.6275,7.6275,7.6275,7.6275,7.6275,7.6275,7.6275,7.6275,7.6275,7.6275,7.6275,7.6275,7.6275,7.6275,7.6275,7.6384,7.6529,7.6529,7.6456,7.6311,7.6492,7.6492,7.6456,7.6174,7.6003,7.5934,7.569,7.519,7.4933,7.4746,7.4441,7.4287,7.4287,7.4399,7.4399,7.4167,7.4049,7.401,7.401,7.401,7.401,7.401,7.401,7.401,7.401,7.401,7.401,7.401,7.401,7.401,7.401,7.401,7.401,7.401,7.401,7.401,7.401,7.401,7.394,7.3799,7.3659,7.3378,7.3132,7.1798,7.2496,7.2532,7.2532,7.2532,7.2532,7.2532,7.2532,7.2532,7.2768,7.309,7.3246,7.3827,7.4538,7.4196,7.3905,7.3506,7.2967,7.2318,7.178,7.1531,7.1784,7.2183,7.2653,7.3342,7.4392,7.4974,7.5515,7.6203,7.6275,7.6275,7.6275,7.6275,7.6275,7.6275,7.6275,7.6275,7.6275,7.6275,7.6275,7.6275,7.6275,7.6275,7.6275,7.6275,7.6275,7.6275,7.6275,7.6275,7.6275,7.6275,7.6275,7.6275,7.6275,7.6275,7.6275,7.6275,7.6275,7.6275,7.6275,7.6275,7.6275,7.6275,7.6311,7.6348,7.6311,7.6601,7.6818,7.7036,7.7108,7.7688,7.7362,7.7072,7.6927,7.6676,7.6355,7.6144,7.6041,7.5584,7.5117,7.4896,7.4746,7.4402,7.4049,7.4128,7.4206,7.4206,7.4206,7.4088,7.401,7.401,7.401,7.401,7.401,7.401,7.401,7.401,7.401,7.401,7.401,7.401,7.401,7.401,7.401,7.401,7.401,7.401,7.401,7.401,7.401,7.401,7.3975,7.3834,7.3659,7.3518,7.1431,7.2165,7.2422,7.2532,7.2532,7.2532,7.2532,7.2532,7.2532,7.2856,7.3416,7.3514,7.429,7.5038,7.5095,7.4377,7.4079,7.3466,7.25,7.1857,7.1603,7.1857,7.2327,7.2943,7.3667,7.4718,7.5406,7.5877,7.6275,7.6275,7.6275,7.6275,7.6275,7.6275,7.6275,7.6275,7.6275,7.6275,7.6275,7.6275,7.6275,7.6275,7.6275,7.6275,7.6275,7.6275,7.6275,7.6275,7.6275,7.6275,7.6275,7.6275,7.6275,7.6275,7.6275,7.6275,7.6275,7.6275,7.6311,7.6275,7.6275,7.6275,7.6275,7.642,7.6565,7.6674,7.7072,7.7724,7.7869,7.8086,7.8702,7.8122,7.7833,7.776,7.7144,7.6787,7.6467,7.6294,7.5621,7.5006,7.4858,7.4633,7.4364,7.401,7.4049,7.4088,7.4088,7.4128,7.4049,7.401,7.401,7.401,7.401,7.401,7.401,7.401,7.401,7.401,7.401,7.401,7.401,7.401,7.401,7.401,7.401,7.401,7.401,7.401,7.401,7.401,7.401,7.401,7.3975,7.3834,7.3905,7.0624,7.1394,7.2165,7.2532,7.2532,7.2532,7.2532,7.2532,7.2532,7.2797,7.3325,7.392,7.4665,7.5443,7.5818,7.5418,7.447,7.4074,7.318,7.1997,7.1748,7.1675,7.2219,7.3088,7.4066,7.4319,7.5261,7.6094,7.6275,7.6275,7.6275,7.6275,7.6275,7.6275,7.6275,7.6275,7.6275,7.6275,7.6275,7.6275,7.6275,7.6275,7.6275,7.6275,7.6275,7.6275,7.6275,7.6275,7.6275,7.6275,7.6275,7.6275,7.6275,7.6275,7.6275,7.6275,7.6275,7.6311,7.6348,7.6311,7.6348,7.6384,7.642,7.671,7.7253,7.7507,7.7833,7.8557,7.8557,7.8666,7.8738,7.8593,7.8448,7.8231,7.7615,7.6963,7.661,7.6397,7.5727,7.519,7.4821,7.4479,7.4209,7.401,7.401,7.401,7.401,7.401,7.401,7.401,7.401,7.401,7.401,7.401,7.401,7.401,7.401,7.401,7.401,7.401,7.401,7.401,7.401,7.401,7.401,7.401,7.401,7.401,7.401,7.401,7.401,7.401,7.401,7.401,7.401,7.0587,7.1366,7.2165,7.2532,7.2532,7.2532,7.2532,7.2532,7.254,7.2761,7.3289,7.4066,7.4837,7.5543,7.6003,7.5861,7.5111,7.4123,7.3197,7.2404,7.2191,7.2291,7.273,7.3606,7.4576,7.4971,7.5804,7.6275,7.6275,7.6275,7.6275,7.6275,7.6275,7.6275,7.6275,7.6275,7.6275,7.6275,7.6275,7.6275,7.6275,7.6275,7.6275,7.6275,7.6275,7.6275,7.6275,7.6275,7.6275,7.6275,7.6275,7.6275,7.6275,7.6275,7.6275,7.6311,7.6311,7.6565,7.6891,7.7072,7.6818,7.671,7.6855,7.7217,7.7507,7.805,7.8666,7.9136,7.91,7.9354,8.0006,7.8593,7.8122,7.8231,7.7688,7.6818,7.6353,7.6316,7.5969,7.5549,7.5154,7.4629,7.4276,7.4049,7.401,7.401,7.401,7.401,7.401,7.401,7.401,7.401,7.401,7.401,7.401,7.401,7.401,7.401,7.401,7.401,7.401,7.401,7.401,7.401,7.401,7.401,7.401,7.401,7.401,7.401,7.401,7.401,7.401,7.401,7.401,7.0403,7.0991,7.2055,7.2532,7.2532,7.2532,7.2532,7.2532,7.2532,7.2761,7.3325,7.4097,7.4742,7.5281,7.5668,7.567,7.5139,7.398,7.338,7.2659,7.2335,7.2377,7.2986,7.3987,7.4596,7.52,7.5841,7.6275,7.6275,7.6275,7.6275,7.6275,7.6275,7.6275,7.6275,7.6275,7.6275,7.6275,7.6275,7.6275,7.6275,7.6275,7.6275,7.6275,7.6275,7.6275,7.6275,7.6275,7.6275,7.6275,7.6275,7.6275,7.6242,7.6275,7.6275,7.6311,7.6637,7.7072,7.7688,7.7905,7.7651,7.7398,7.7688,7.8014,7.8303,7.8883,7.9535,7.9861,7.9643,8.0078,8.044,7.8847,7.8738,7.8919,7.8448,7.7615,7.7291,7.7293,7.6722,7.6301,7.5655,7.5059,7.4452,7.4159,7.401,7.401,7.401,7.408,7.408,7.401,7.401,7.401,7.401,7.401,7.401,7.401,7.401,7.401,7.401,7.401,7.401,7.401,7.401,7.401,7.401,7.401,7.401,7.401,7.401,7.401,7.401,7.401,7.401,7.401,7.401,7.011,7.0367,7.1835,7.2532,7.2532,7.2532,7.2532,7.2532,7.2532,7.2761,7.3228,7.422,7.4711,7.4676,7.5118,7.5152,7.4538,7.3401,7.2939,7.2583,7.2222,7.2332,7.2761,7.3654,7.4539,7.5239,7.5771,7.6208,7.6242,7.5829,7.5864,7.6036,7.5967,7.6002,7.6072,7.6208,7.6242,7.6275,7.6275,7.6275,7.6275,7.6275,7.6275,7.6275,7.6275,7.6275,7.6275,7.6275,7.6208,7.6174,7.6174,7.6174,7.6174,7.6278,7.6278,7.6533,7.7114,7.7555,7.8347,7.8492,7.8848,7.8703,7.881,7.9281,7.9535,7.9752,8.0259,8.0549,8.0476,8.073,8.0766,8.0513,8.0295,8.0078,7.9752,7.9282,7.8994,7.8527,7.7773,7.7164,7.6436,7.5765,7.5051,7.4607,7.4572,7.4431,7.4537,7.4712,7.4642,7.408,7.4045,7.401,7.401,7.401,7.401,7.4045,7.401,7.401,7.401,7.401,7.401,7.401,7.401,7.401,7.401,7.401,7.401,7.401,7.401,7.401,7.401,7.401,7.401,7.401,7.401,7.044,7.1064,7.2092,7.2532,7.2532,7.2532,7.2532,7.2532,7.2532,7.2761,7.3264,7.4251,7.4514,7.4574,7.5047,7.5226,7.4618,7.376,7.3011,7.2549,7.2192,7.2121,7.2656,7.3654,7.4616,7.5211,7.567,7.5829,7.5371,7.4973,7.4604,7.4529,7.5191,7.5371,7.5655,7.6003,7.6106,7.6208,7.6174,7.6275,7.6275,7.6275,7.6275,7.6275,7.6275,7.6275,7.6208,7.6208,7.6038,7.5549,7.5478,7.5263,7.4565,7.5581,7.641,7.6982,7.697,7.6985,7.8268,7.8632,7.8959,7.9793,8.0081,8.0042,8.0223,8.0297,8.0731,8.0911,8.0802,8.0802,8.0766,8.0658,8.0549,8.0368,8.0042,7.9717,7.9464,7.9104,7.8385,7.7991,7.726,7.6512,7.5759,7.552,7.5414,7.5168,7.5098,7.5309,7.5239,7.4712,7.4466,7.4431,7.4361,7.4466,7.4185,7.415,7.408,7.401,7.408,7.408,7.401,7.401,7.401,7.401,7.401,7.401,7.401,7.401,7.401,7.401,7.401,7.401,7.401,7.401,7.401,7.0587,7.1366,7.2165,7.2532,7.2532,7.2532,7.2532,7.2438,7.2101,7.2174,7.2593,7.3679,7.4049,7.3832,7.4436,7.4719,7.4352,7.2557,7.1874,7.2542,7.2066,7.1983,7.2484,7.3305,7.3994,7.4654,7.4941,7.49,7.4527,7.4187,7.3838,7.3956,7.4452,7.4527,7.4715,7.4936,7.5155,7.5478,7.5829,7.6174,7.6242,7.6208,7.6275,7.6208,7.6208,7.6106,7.5829,7.5829,7.5407,7.4821,7.478,7.4838,7.4436,7.5539,7.655,7.7001,7.698,7.7359,7.8244,7.85,7.9135,7.9729,8.0099,7.9699,7.9966,8.0186,8.0695,8.1056,8.0766,8.0513,8.044,8.0404,8.0404,8.0368,8.0078,7.9788,7.9571,7.9426,7.9034,7.8675,7.8052,7.7302,7.6804,7.6524,7.6222,7.5871,7.573,7.5871,7.5871,7.559,7.5379,7.5344,7.5168,7.5028,7.4712,7.4431,7.4466,7.4466,7.4466,7.4431,7.4185,7.4045,7.4045,7.4045,7.401,7.401,7.401,7.401,7.401,7.401,7.401,7.401,7.401,7.401,7.401,7.0697,7.1439,7.2202,7.2438,7.2409,7.2438,7.2409,7.2226,7.1354,7.1204,7.1687,7.2741,7.3012,7.2906,7.3508,7.3741,7.3142,7.1722,7.1463,7.2368,7.1376,7.1244,7.1966,7.2589,7.3417,7.3685,7.3878,7.4111,7.376,7.3362,7.3195,7.3602,7.3681,7.3681,7.376,7.4033,7.4264,7.4454,7.5119,7.5689,7.5829,7.6003,7.6106,7.5967,7.5864,7.569,7.5191,7.4897,7.4709,7.4346,7.4417,7.4833,7.5248,7.5351,7.6203,7.6733,7.681,7.7251,7.7797,7.8104,7.83,7.8529,7.844,7.8659,7.9183,7.9956,8.0511,8.0767,8.0514,8.0731,8.0766,8.0766,8.0766,8.073,8.0585,8.044,8.0368,8.0116,7.9828,7.9467,7.9135,7.8387,7.7479,7.7203,7.7081,7.6654,7.6643,7.6748,7.6643,7.6538,7.6222,7.6152,7.5836,7.5555,7.5239,7.5028,7.5063,7.5028,7.4993,7.4993,7.4923,7.4572,7.408,7.4045,7.401,7.401,7.401,7.401,7.401,7.401,7.401,7.401,7.401,7.401,7.401,7.1505,7.2239,7.2422,7.2197,7.1799,7.2292,7.183,7.0803,7.0264,7.0797,7.1888,7.1867,7.1938,7.218,7.2569,7.2793,7.2561,7.1525,7.1353,7.1553,7.1063,7.1007,7.169,7.2192,7.288,7.3522,7.3721,7.3281,7.2866,7.2356,7.196,7.2047,7.244,7.2825,7.2832,7.32,7.3562,7.3522,7.3917,7.4378,7.4378,7.4378,7.4378,7.4454,7.4416,7.4525,7.4361,7.4597,7.4297,7.4038,7.4495,7.5076,7.5708,7.5249,7.574,7.6681,7.6517,7.6755,7.7125,7.7449,7.7624,7.8104,7.8273,7.8357,7.877,7.9565,8.0063,8.0288,8.0547,8.0804,8.1092,8.1092,8.1092,8.1092,8.1092,8.1092,8.1092,8.0804,8.0515,8.0259,8.0037,7.9293,7.8386,7.7999,7.7878,7.7896,7.8019,7.8083,7.7942,7.7767,7.7064,7.6819,7.6397,7.6046,7.5765,7.5765,7.5906,7.5765,7.566,7.566,7.566,7.5239,7.4782,7.4221,7.401,7.4221,7.4291,7.401,7.401,7.4115,7.401,7.401,7.401,7.401,7.401,7.1589,7.1981,7.164,7.1485,7.1453,7.1516,7.0966,7.0127,6.9493,6.9777,7.0842,7.0943,7.1151,7.1561,7.2024,7.2188,7.2192,7.1225,7.1165,7.1165,7.1123,7.1063,7.1422,7.1807,7.203,7.2651,7.2651,7.2313,7.2004,7.1688,7.1412,7.1356,7.183,7.2047,7.2056,7.249,7.2742,7.2651,7.2742,7.2783,7.2949,7.3241,7.3721,7.3799,7.3795,7.3742,7.3874,7.4169,7.3945,7.3944,7.4319,7.5037,7.5504,7.5454,7.5612,7.6071,7.6114,7.5913,7.6346,7.6588,7.677,7.7229,7.7239,7.7051,7.714,7.7934,7.917,7.9408,7.9987,8.0326,8.0912,8.1092,8.1092,8.1092,8.1092,8.1092,8.1092,8.0948,8.0695,8.0401,8.0177,7.9804,7.9049,7.869,7.8529,7.8277,7.8504,7.8539,7.8574,7.8574,7.7977,7.7556,7.7135,7.6854,7.6678,7.6748,7.6889,7.6678,7.6292,7.6257,7.6187,7.5871,7.5484,7.5063,7.4782,7.4817,7.4782,7.4537,7.4431,7.4572,7.4291,7.401,7.401,7.4045,7.4045,7.1271,7.1159,7.057,7.057,7.1002,7.0606,7.0163,6.9708,6.898,6.8822,6.9395,7.0384,7.0384,7.0884,7.1753,7.1799,7.1615,7.1056,7.1005,7.0995,7.0768,7.0992,7.1151,7.1367,7.1546,7.159,7.159,7.159,7.1412,7.1312,7.1312,7.1312,7.1312,7.1312,7.1312,7.1356,7.1546,7.1634,7.1644,7.1457,7.196,7.2651,7.3072,7.3362,7.3472,7.3489,7.3472,7.3644,7.3591,7.4037,7.4462,7.5085,7.5492,7.5601,7.5588,7.5818,7.5818,7.5723,7.5818,7.5913,7.5865,7.5865,7.5676,7.5771,7.6054,7.6679,7.7926,7.8682,7.9174,7.9837,8.0473,8.0912,8.0912,8.1092,8.1092,8.1092,8.1092,8.1092,8.084,8.0582,8.036,8.0097,7.9711,7.9356,7.9034,7.8782,7.8574,7.8574,7.8574,7.8574,7.8293,7.8153,7.7977,7.7767,7.7415,7.7556,7.7661,7.731,7.6924,7.6854,7.6713,7.6538,7.6292,7.6011,7.5836,7.5625,7.5449,7.5239,7.5168,7.5063,7.5063,7.4782,7.4115,7.4115,7.4115,7.1019,7.0503,7.0334,7.0059,6.9743,7.0059,6.9849,6.9091,6.879,6.9028,6.9571,6.9808,6.9898,6.9841,7.0542,7.0998,7.1433,7.1007,7.1109,7.1176,7.1041,7.1176,7.1278,7.1312,7.1312,7.1312,7.1312,7.1312,7.1312,7.1312,7.1312,7.1312,7.1312,7.1312,7.1312,7.1312,7.1312,7.1312,7.1312,7.1312,7.1345,7.1722,7.1678,7.1776,7.1776,7.2155,7.2564,7.3209,7.3831,7.4403,7.4999,7.5439,7.5608,7.5676,7.5676,7.5676,7.5676,7.5676,7.5676,7.5676,7.5676,7.5676,7.5676,7.5676,7.5818,7.5865,7.6861,7.7493,7.8104,7.8973,7.9601,8.0061,8.0249,8.0804,8.1092,8.1092,8.1092,8.1092,8.0985,8.0876,8.0803,8.0324,7.9792,7.9479,7.9196,7.8911,7.8574,7.8574,7.8574,7.8574,7.8574,7.8574,7.8574,7.8118,7.7556,7.8047,7.8153,7.7837,7.7591,7.7556,7.7451,7.7275,7.7064,7.6854,7.6503,7.6222,7.6046,7.6046,7.5695,7.5625,7.5906,7.5695,7.4817,7.4361,7.4537]}]]